[[{"header":{"parameterUnit":"m.s-1","parameterCategory":1,"la1":31.0,"la2":29.5877,"lo1":-88.7671,"lo2":-86.6584,"dy":0.0162,"dx":0.0185,"nx":115,"ny":88,"refTime":"2023-11-03T12:00:00:Z","depth":0,"parameterNumber":2,"parameterNumberName":"U-component_of_WINDS"},"data":[0.0,0.0,0.0,0.0,0.0,0.0,0.0,0.0,0.0,0.0,0.0,0.0,0.0,0.0,0.0,0.0,0.0,0.0,0.0,0.0,0.0,0.0,0.0,0.0,0.0,0.0,0.0,0.0,0.0,0.0,0.0,0.0,0.0,0.0,0.0,0.0,0.0,0.0,0.0,0.0,0.0,0.0,0.0,0.0,0.0,0.0,0.0,0.0,0.0,0.0,0.0,0.0,0.0,0.0,0.0,0.0,0.0,0.0,0.0,0.0,0.0,0.0,0.0,0.0,0.0,0.0,0.0,0.0,0.0,0.0,0.0,0.0,0.0,0.0,0.0,0.0,0.0,0.0,0.0,0.0,0.0,0.0,0.0,0.0,0.0,0.0,0.0,0.0,0.0,0.0,0.0,0.0,0.0,0.0,0.0,0.0,0.0,0.0,0.0,0.0,0.0,0.0,0.0,0.0,0.0,0.0,0.0,0.0,0.0,0.0,0.0,0.0,0.0,0.0,0.0,0.0,0.0,0.0,0.0,0.0,0.0,0.0,0.0,0.0,0.0,0.0,0.0,0.0,0.0,0.0,0.0,0.0,0.0,0.0,0.0,0.0,0.0,0.0,0.0,0.0,0.0,0.0,0.0,0.0,0.0,0.0,0.0,0.0,0.0,0.0,0.0,0.0,0.0,0.0,0.0,0.0,0.0,0.0,0.0,0.0,0.0,0.0,0.0,0.0,0.0,0.0,0.0,0.0,0.0,0.0,0.0,0.0,0.0,0.0,0.0,0.0,0.0,0.0,0.0,0.0,0.0,0.0,0.0,0.0,0.0,0.0,0.0,0.0,0.0,0.0,0.0,0.0,0.0,0.0,0.0,0.0,0.0,0.0,0.0,0.0,0.0,0.0,0.0,0.0,0.0,0.0,0.0,0.0,0.0,0.0,0.0,0.0,0.0,0.0,0.0,0.0,0.0,0.0,0.0,0.0,0.0,0.0,0.0,0.0,0.0,0.0,0.0,0.0,0.0,0.0,0.0,0.0,0.0,0.0,0.0,0.0,0.0,0.0,0.0,0.0,0.0,0.0,0.0,0.0,0.0,0.0,0.0,0.0,0.0,0.0,0.0,0.0,0.0,0.0,0.0,0.0,0.0,0.0,0.0,0.0,0.0,0.0,0.0,0.0,0.0,0.0,0.0,0.0,0.0,0.0,0.0,0.0,0.0,0.0,0.0,0.0,0.0,0.0,0.0,0.0,0.0,0.0,0.0,0.0,0.0,0.0,0.0,0.0,0.0,0.0,0.0,0.0,0.0,0.0,0.0,0.0,0.0,0.0,0.0,0.0,0.0,0.0,0.0,0.0,0.0,0.0,0.0,0.0,0.0,0.0,0.0,0.0,0.0,0.0,0.0,0.0,0.0,0.0,0.0,0.0,0.0,0.0,0.0,0.0,0.0,0.0,0.0,0.0,0.0,0.0,0.0,0.0,0.0,0.0,0.0,0.0,0.0,0.0,0.0,0.0,0.0,0.0,0.0,0.0,0.0,0.0,0.0,0.0,0.0,0.0,0.0,0.0,0.0,0.0,0.0,0.0,0.0,0.0,0.0,0.0,0.0,0.0,0.0,0.0,0.0,0.0,0.0,0.0,0.0,0.0,0.0,0.0,0.0,0.0,0.0,0.0,0.0,0.0,0.0,0.0,0.0,0.0,0.0,0.0,0.0,0.0,0.0,0.0,0.0,0.0,0.0,0.0,0.0,0.0,0.0,0.0,0.0,0.0,0.0,0.0,0.0,0.0,0.0,0.0,0.0,0.0,0.0,0.0,0.0,0.0,0.0,0.0,0.0,0.0,0.0,0.0,0.0,0.0,0.0,0.0,0.0,0.0,0.0,0.0,0.0,0.0,0.0,0.0,0.0,0.0,0.0,0.0,0.0,0.0,0.0,0.0,0.0,0.0,0.0,0.0,0.0,0.0,0.0,0.0,0.0,0.0,0.0,0.0,0.0,0.0,0.0,0.0,0.0,0.0,0.0,0.0,0.0,0.0,0.0,0.0,0.0,0.0,0.0,0.0,0.0,0.0,0.0,0.0,0.0,0.0,0.0,0.0,0.0,0.0,0.0,0.0,0.0,0.0,0.0,0.0,0.0,0.0,0.0,0.0,0.0,0.0,0.0,0.0,0.0,0.0,0.0,0.0,0.0,0.0,0.0,0.0,0.0,0.0,0.0,0.0,0.0,0.0,0.0,0.0,0.0,0.0,0.0,0.0,0.0,0.0,0.0,0.0,0.0,0.0,0.0,0.0,0.0,0.0,0.0,0.0,0.0,0.0,0.0,0.0,0.0,0.0,0.0,0.0,0.0,0.0,0.0,0.0,0.0,0.0,0.0,0.0,0.0,0.0,0.0,0.0,0.0,0.0,0.0,0.0,0.0,0.0,0.0,0.0,0.0,0.0,0.0,0.0,0.0,0.0,0.0,0.0,0.0,0.0,0.0,0.0,0.0,0.0,0.0,0.0,0.0,0.0,0.0,0.0,0.0,0.0,0.0,0.0,0.0,0.0,0.0,0.0,0.0,0.0,0.0,0.0,0.0,0.0,0.0,0.0,0.0,0.0,0.0,0.0,0.0,0.0,0.0,0.0,0.0,0.0,0.0,0.0,0.0,0.0,0.0,0.0,0.0,0.0,0.0,0.0,0.0,0.0,0.0,0.0,0.0,0.0,0.0,0.0,0.0,0.0,0.0,0.0,0.0,0.0,0.0,0.0,0.0,0.0,0.0,0.0,0.0,0.0,0.0,0.0,0.0,0.0,0.0,0.0,0.0,0.0,0.0,0.0,0.0,0.0,0.0,0.0,0.0,0.0,0.0,0.0,0.0,0.0,0.0,0.0,0.0,0.0,0.0,0.0,0.0,0.0,0.0,0.0,0.0,0.0,0.0,0.0,0.0,0.0,0.0,0.0,0.0,0.0,0.0,0.0,0.0,0.0,0.0,0.0,0.0,0.0,0.0,0.0,0.0,0.0,0.0,0.0,0.0,0.0,0.0,0.0,0.0,0.0,0.0,0.0,0.0,0.0,0.0,0.0,0.0,0.0,0.0,0.0,0.0,0.0,0.0,0.0,0.0,0.0,0.0,0.0,0.0,0.0,0.0,0.0,0.0,0.0,0.0,0.0,0.0,0.0,0.0,0.0,0.0,0.0,0.0,0.0,0.0,0.0,0.0,0.0,0.0,0.0,0.0,0.0,0.0,0.0,0.0,0.0,0.0,0.0,0.0,0.0,0.0,0.0,0.0,0.0,0.0,0.0,0.0,0.0,0.0,0.0,0.0,0.0,0.0,0.0,0.0,0.0,0.0,0.0,0.0,0.0,0.0,0.0,0.0,0.0,0.0,0.0,0.0,0.0,0.0,0.0,0.0,0.0,0.0,0.0,0.0,0.0,0.0,0.0,0.0,0.0,0.0,0.0,0.0,0.0,0.0,0.0,0.0,0.0,0.0,0.0,0.0,0.0,0.0,0.0,0.0,0.0,0.0,0.0,0.0,0.0,0.0,0.0,0.0,0.0,0.0,0.0,0.0,0.0,0.0,0.0,0.0,0.0,0.0,0.0,0.0,0.0,0.0,0.0,0.0,0.0,0.0,0.0,0.0,0.0,0.0,0.0,0.0,0.0,0.0,0.0,0.0,0.0,0.0,0.0,0.0,0.0,0.0,0.0,0.0,0.0,0.0,0.0,0.0,0.0,0.0,0.0,0.0,0.0,0.0,0.0,0.0,0.0,0.0,0.0,0.0,0.0,0.0,0.0,0.0,0.0,0.0,0.0,0.0,0.0,0.0,0.0,0.0,0.0,0.0,0.0,0.0,0.0,0.0,0.0,0.0,0.0,0.0,0.0,0.0,0.0,0.0,0.0,0.0,0.0,0.0,0.0,0.0,0.0,0.0,0.0,0.0,0.0,0.0,0.0,0.0,0.0,0.0,0.0,0.0,0.0,0.0,0.0,0.0,0.0,0.0,0.0,0.0,0.0,0.0,0.0,0.0,0.0,0.0,0.0,0.0,0.0,0.0,0.0,0.0,0.0,0.0,0.0,0.0,0.0,0.0,0.0,0.0,0.0,0.0,0.0,0.0,0.0,0.0,0.0,0.0,0.0,0.0,0.0,0.0,0.0,0.0,0.0,0.0,0.0,0.0,0.0,0.0,0.0,0.0,0.0,0.0,0.0,0.0,0.0,0.0,0.0,0.0,0.0,0.0,0.0,0.0,0.0,0.0,0.0,0.0,0.0,0.0,0.0,0.0,0.0,2.6296,0.0,0.0,0.0,0.0,0.0,0.0,0.0,0.0,0.0,0.0,0.0,0.0,0.0,0.0,0.0,0.0,0.0,0.0,0.0,0.0,0.0,0.0,0.0,0.0,0.0,0.0,0.0,0.0,0.0,0.0,0.0,0.0,0.0,0.0,0.0,0.0,0.0,0.0,0.0,0.0,0.0,0.0,0.0,0.0,0.0,0.0,0.0,0.0,0.0,0.0,0.0,0.0,0.0,0.0,0.0,0.0,0.0,0.0,0.0,0.0,0.0,0.0,0.0,0.0,0.0,0.0,0.0,0.0,0.0,0.0,0.0,0.0,0.0,0.0,0.0,0.0,0.0,0.0,0.0,0.0,0.0,0.0,0.0,0.0,0.0,0.0,0.0,0.0,0.0,0.0,0.0,0.0,0.0,0.0,0.0,0.0,0.0,0.0,0.0,0.0,0.0,0.0,0.0,0.0,0.0,0.0,0.0,0.0,0.0,0.0,3.0082,3.0162,2.9411,2.8454,2.7284,0.0,0.0,0.0,0.0,0.0,0.0,0.0,0.0,0.0,0.0,0.0,0.0,0.0,0.0,0.0,0.0,0.0,0.0,0.0,0.0,0.0,0.0,0.0,0.0,0.0,0.0,0.0,0.0,0.0,0.0,0.0,0.0,0.0,0.0,0.0,0.0,0.0,0.0,0.0,0.0,0.0,0.0,0.0,0.0,0.0,0.0,0.0,0.0,0.0,0.0,0.0,0.0,0.0,0.0,0.0,0.0,0.0,0.0,0.0,0.0,0.0,0.0,0.0,0.0,0.0,0.0,0.0,0.0,0.0,0.0,0.0,0.0,0.0,0.0,0.0,0.0,0.0,0.0,0.0,0.0,0.0,0.0,0.0,0.0,0.0,0.0,0.0,0.0,0.0,0.0,0.0,0.0,0.0,0.0,0.0,0.0,0.0,0.0,0.0,0.0,0.0,0.0,0.0,0.0,0.0,0.0,0.0,0.0,0.0,0.0,0.0,0.0,2.9572,2.8699,2.7538,0.0,0.0,0.0,0.0,0.0,0.0,0.0,0.0,0.0,0.0,0.0,0.0,0.0,0.0,0.0,0.0,0.0,0.0,0.0,0.0,0.0,0.0,0.0,0.0,0.0,0.0,0.0,0.0,0.0,0.0,0.0,0.0,0.0,0.0,0.0,0.0,0.0,0.0,0.0,0.0,0.0,0.0,0.0,0.0,0.0,0.0,0.0,0.0,0.0,0.0,0.0,0.0,0.0,0.0,0.0,0.0,0.0,0.0,0.0,0.0,0.0,0.0,0.0,0.0,0.0,0.0,0.0,0.0,0.0,0.0,0.0,0.0,0.0,0.0,0.0,0.0,0.0,0.0,0.0,0.0,0.0,0.0,0.0,0.0,0.0,0.0,0.0,0.0,0.0,0.0,0.0,0.0,0.0,0.0,0.0,0.0,0.0,0.0,0.0,0.0,0.0,0.0,0.0,0.0,0.0,0.0,0.0,0.0,0.0,0.0,2.8986,2.8958,2.8955,0.0,2.5681,0.0,0.0,0.0,0.0,0.0,0.0,0.0,0.0,0.0,0.0,0.0,0.0,0.0,0.0,0.0,0.0,0.0,0.0,0.0,0.0,0.0,0.0,0.0,0.0,0.0,0.0,0.0,0.0,0.0,0.0,0.0,0.0,0.0,0.0,0.0,0.0,0.0,0.0,0.0,0.0,0.0,0.0,0.0,0.0,0.0,0.0,0.0,0.0,0.0,0.0,0.0,0.0,0.0,0.0,0.0,0.0,0.0,0.0,0.0,0.0,0.0,0.0,0.0,0.0,0.0,0.0,0.0,0.0,0.0,0.0,0.0,0.0,0.0,0.0,0.0,0.0,0.0,0.0,0.0,0.0,0.0,0.0,0.0,0.0,0.0,0.0,0.0,0.0,0.0,0.0,0.0,0.0,0.0,0.0,0.0,0.0,0.0,0.0,0.0,0.0,0.0,0.0,0.0,0.0,0.0,0.0,0.0,0.0,0.0,0.0,2.9393,2.9455,2.9056,2.796,0.0,0.0,0.0,0.0,0.0,0.0,0.0,0.0,0.0,0.0,0.0,0.0,0.0,0.0,0.0,0.0,0.0,0.0,0.0,0.0,0.0,0.0,0.0,0.0,0.0,0.0,0.0,0.0,0.0,0.0,0.0,0.0,0.0,0.0,0.0,0.0,0.0,0.0,0.0,0.0,0.0,0.0,0.0,0.0,0.0,0.0,0.0,0.0,0.0,0.0,0.0,0.0,0.0,0.0,0.0,0.0,0.0,0.0,0.0,0.0,0.0,0.0,0.0,0.0,0.0,0.0,0.0,0.0,0.0,0.0,0.0,0.0,0.0,0.0,0.0,0.0,0.0,0.0,0.0,0.0,0.0,0.0,0.0,0.0,0.0,0.0,0.0,0.0,0.0,0.0,0.0,0.0,0.0,0.0,0.0,0.0,0.0,0.0,0.0,0.0,0.0,0.0,0.0,0.0,0.0,0.0,0.0,0.0,0.0,0.0,2.9611,2.9743,2.9811,2.9101,2.8047,2.6639,0.0,0.0,0.0,0.0,0.0,0.0,0.0,0.0,0.0,0.0,0.0,0.0,0.0,0.0,0.0,0.0,0.0,0.0,0.0,0.0,0.0,0.0,0.0,0.0,0.0,0.0,0.0,0.0,0.0,0.0,0.0,0.0,0.0,0.0,0.0,0.0,0.0,0.0,0.0,0.0,0.0,0.0,0.0,0.0,0.0,0.0,0.0,0.0,0.0,0.0,0.0,0.0,0.0,0.0,0.0,0.0,0.0,0.0,0.0,0.0,0.0,0.0,0.0,0.0,0.0,0.0,0.0,0.0,0.0,0.0,0.0,0.0,0.0,0.0,0.0,0.0,0.0,0.0,0.0,0.0,0.0,0.0,0.0,0.0,0.0,0.0,0.0,0.0,0.0,0.0,0.0,0.0,0.0,0.0,0.0,0.0,0.0,0.0,0.0,0.0,0.0,0.0,0.0,0.0,0.0,0.0,0.0,0.0,2.9516,2.9635,2.9704,2.9713,2.889,2.7853,0.0,0.0,0.0,0.0,0.0,0.0,0.0,0.0,0.0,0.0,0.0,0.0,0.0,0.0,0.0,0.0,0.0,0.0,0.0,0.0,0.0,0.0,0.0,0.0,0.0,0.0,0.0,0.0,0.0,0.0,0.0,0.0,0.0,0.0,0.0,0.0,0.0,0.0,0.0,0.0,0.0,0.0,0.0,0.0,0.0,0.0,0.0,0.0,0.0,0.0,0.0,0.0,0.0,0.0,0.0,0.0,0.0,0.0,0.0,0.0,0.0,0.0,0.0,0.0,0.0,0.0,0.0,0.0,0.0,0.0,0.0,0.0,0.0,0.0,0.0,0.0,0.0,0.0,0.0,0.0,0.0,0.0,0.0,0.0,0.0,0.0,0.0,0.0,0.0,0.0,0.0,0.0,0.0,0.0,0.0,0.0,0.0,0.0,0.0,0.0,0.0,0.0,0.0,0.0,0.0,0.0,0.0,0.0,0.0,3.01,2.9729,2.9789,3.0249,2.8715,2.742,0.0,0.0,0.0,0.0,0.0,0.0,0.0,0.0,0.0,0.0,0.0,0.0,0.0,0.0,0.0,0.0,0.0,0.0,0.0,0.0,0.0,0.0,0.0,0.0,0.0,0.0,0.0,0.0,0.0,0.0,0.0,0.0,0.0,0.0,0.0,0.0,0.0,0.0,0.0,0.0,0.0,0.0,0.0,0.0,0.0,0.0,0.0,0.0,0.0,0.0,0.0,0.0,0.0,0.0,0.0,0.0,0.0,0.0,0.0,0.0,0.0,0.0,0.0,0.0,0.0,0.0,0.0,0.0,0.0,0.0,0.0,0.0,0.0,0.0,0.0,0.0,0.0,0.0,0.0,0.0,0.0,0.0,0.0,0.0,0.0,0.0,0.0,0.0,0.0,0.0,0.0,0.0,0.0,0.0,0.0,0.0,0.0,0.0,0.0,0.0,0.0,0.0,0.0,0.0,0.0,0.0,0.0,0.0,0.0,3.0217,0.0,2.9639,3.0038,2.8661,2.7456,0.0,0.0,0.0,0.0,0.0,0.0,0.0,0.0,0.0,0.0,0.0,0.0,0.0,0.0,0.0,0.0,0.0,0.0,0.0,0.0,0.0,0.0,0.0,0.0,0.0,0.0,0.0,0.0,0.0,0.0,0.0,0.0,0.0,0.0,0.0,0.0,0.0,0.0,0.0,0.0,0.0,0.0,0.0,0.0,0.0,0.0,0.0,0.0,0.0,0.0,0.0,0.0,0.0,0.0,0.0,0.0,0.0,0.0,0.0,0.0,0.0,0.0,0.0,0.0,0.0,0.0,0.0,0.0,0.0,0.0,0.0,0.0,0.0,0.0,0.0,0.0,0.0,0.0,0.0,0.0,0.0,0.0,0.0,0.0,0.0,0.0,0.0,0.0,0.0,0.0,0.0,0.0,0.0,0.0,0.0,0.0,0.0,0.0,0.0,0.0,0.0,0.0,0.0,0.0,0.0,0.0,0.0,0.0,2.95,2.9684,2.9516,2.9329,2.8961,2.8753,2.7911,0.0,0.0,0.0,0.0,0.0,0.0,0.0,0.0,0.0,0.0,0.0,0.0,0.0,0.0,0.0,0.0,0.0,0.0,0.0,0.0,0.0,0.0,0.0,0.0,0.0,0.0,0.0,0.0,0.0,0.0,0.0,0.0,0.0,0.0,0.0,0.0,0.0,0.0,0.0,0.0,0.0,0.0,0.0,0.0,0.0,0.0,0.0,0.0,0.0,0.0,0.0,0.0,0.0,0.0,0.0,0.0,0.0,0.0,0.0,0.0,0.0,0.0,0.0,0.0,0.0,0.0,0.0,0.0,0.0,0.0,0.0,0.0,0.0,0.0,0.0,0.0,0.0,0.0,0.0,0.0,0.0,0.0,0.0,0.0,0.0,0.0,0.0,0.0,0.0,0.0,0.0,0.0,0.0,0.0,0.0,0.0,0.0,0.0,0.0,0.0,0.0,0.0,0.0,0.0,0.0,0.0,0.0,0.0,0.0,2.955,2.9629,2.993,3.0427,2.9039,2.8117,0.0,0.0,0.0,0.0,0.0,0.0,0.0,0.0,0.0,0.0,0.0,0.0,0.0,0.0,0.0,0.0,0.0,0.0,0.0,0.0,0.0,0.0,0.0,0.0,0.0,0.0,0.0,0.0,0.0,0.0,0.0,0.0,0.0,0.0,0.0,0.0,0.0,0.0,0.0,0.0,0.0,0.0,0.0,0.0,0.0,0.0,0.0,0.0,0.0,0.0,0.0,0.0,0.0,0.0,0.0,0.0,0.0,0.0,0.0,0.0,0.0,0.0,0.0,0.0,0.0,0.0,0.0,0.0,0.0,0.0,0.0,0.0,0.0,0.0,0.0,0.0,0.0,0.0,0.0,0.0,0.0,0.0,0.0,0.0,0.0,0.0,0.0,0.0,0.0,0.0,0.0,0.0,0.0,0.0,0.0,0.0,0.0,0.0,0.0,0.0,0.0,0.0,0.0,0.0,0.0,0.0,0.0,0.0,0.0,2.9671,3.0049,3.0551,3.1196,2.9588,2.8548,2.8176,0.0,0.0,0.0,0.0,0.0,0.0,0.0,0.0,0.0,0.0,0.0,0.0,0.0,0.0,0.0,0.0,0.0,0.0,0.0,0.0,0.0,0.0,0.0,0.0,0.0,0.0,0.0,0.0,0.0,0.0,0.0,0.0,0.0,0.0,0.0,0.0,0.0,0.0,0.0,0.0,0.0,0.0,0.0,0.0,0.0,0.0,0.0,0.0,0.0,0.0,0.0,0.0,0.0,0.0,0.0,0.0,0.0,0.0,0.0,0.0,0.0,0.0,0.0,0.0,0.0,0.0,0.0,0.0,0.0,0.0,0.0,0.0,0.0,0.0,0.0,0.0,0.0,0.0,0.0,0.0,0.0,0.0,0.0,0.0,0.0,0.0,0.0,0.0,0.0,0.0,0.0,0.0,0.0,0.0,0.0,0.0,0.0,0.0,0.0,0.0,0.0,0.0,0.0,0.0,0.0,0.0,0.0,0.0,3.013,3.0793,3.1228,3.1371,3.036,2.9121,0.0,0.0,0.0,0.0,0.0,0.0,0.0,0.0,0.0,0.0,0.0,0.0,0.0,0.0,0.0,0.0,0.0,0.0,0.0,0.0,0.0,0.0,0.0,0.0,0.0,0.0,0.0,0.0,0.0,0.0,0.0,0.0,0.0,0.0,0.0,0.0,0.0,0.0,0.0,0.0,0.0,0.0,0.0,0.0,0.0,0.0,0.0,0.0,0.0,0.0,0.0,0.0,0.0,0.0,0.0,0.0,0.0,0.0,0.0,0.0,0.0,0.0,0.0,0.0,0.0,0.0,0.0,0.0,0.0,0.0,0.0,0.0,0.0,0.0,0.0,0.0,0.0,0.0,0.0,0.0,0.0,0.0,0.0,0.0,0.0,0.0,0.0,0.0,0.0,0.0,0.0,0.0,0.0,0.0,0.0,0.0,0.0,0.0,0.0,0.0,0.0,0.0,0.0,0.0,0.0,0.0,0.0,0.0,0.0,3.1858,3.2276,3.246,3.2398,3.1376,3.0233,0.0,0.0,0.0,0.0,0.0,0.0,0.0,0.0,0.0,0.0,0.0,0.0,0.0,0.0,0.0,0.0,0.0,0.0,0.0,0.0,0.0,0.0,0.0,0.0,0.0,0.0,0.0,0.0,0.0,0.0,0.0,0.0,0.0,0.0,0.0,0.0,0.0,0.0,0.0,0.0,0.0,0.0,0.0,0.0,0.0,0.0,0.0,0.0,0.0,0.0,0.0,0.0,0.0,0.0,0.0,0.0,0.0,0.0,0.0,0.0,0.0,0.0,0.0,0.0,0.0,0.0,0.0,0.0,0.0,0.0,0.0,0.0,0.0,0.0,0.0,0.0,0.0,0.0,0.0,0.0,0.0,0.0,0.0,0.0,0.0,0.0,0.0,0.0,0.0,0.0,0.0,0.0,0.0,0.0,0.0,0.0,0.0,0.0,0.0,0.0,0.0,0.0,0.0,0.0,0.0,0.0,0.0,0.0,3.1109,3.3173,3.3747,3.3836,3.3502,3.2108,3.0834,0.0,0.0,0.0,0.0,0.0,0.0,0.0,0.0,0.0,0.0,0.0,0.0,0.0,0.0,0.0,0.0,0.0,0.0,0.0,0.0,0.0,0.0,0.0,0.0,0.0,0.0,0.0,0.0,0.0,0.0,0.0,0.0,0.0,0.0,0.0,0.0,0.0,0.0,0.0,0.0,0.0,0.0,0.0,0.0,0.0,0.0,0.0,0.0,0.0,0.0,0.0,0.0,0.0,0.0,0.0,0.0,0.0,0.0,0.0,0.0,0.0,0.0,0.0,0.0,0.0,0.0,0.0,0.0,0.0,0.0,0.0,0.0,0.0,0.0,0.0,0.0,0.0,0.0,0.0,0.0,0.0,0.0,0.0,0.0,0.0,0.0,0.0,0.0,0.0,0.0,0.0,0.0,0.0,0.0,0.0,0.0,0.0,0.0,0.0,0.0,0.0,0.0,0.0,0.0,0.0,0.0,0.0,0.0,3.2027,3.4342,3.4995,3.5082,3.4525,3.2672,3.107,0.0,0.0,0.0,0.0,0.0,0.0,0.0,0.0,0.0,0.0,0.0,0.0,0.0,0.0,0.0,0.0,0.0,0.0,0.0,0.0,0.0,0.0,0.0,0.0,0.0,0.0,0.0,0.0,0.0,0.0,0.0,0.0,0.0,0.0,0.0,0.0,0.0,0.0,0.0,0.0,0.0,0.0,0.0,0.0,0.0,0.0,0.0,0.0,0.0,0.0,0.0,0.0,0.0,0.0,0.0,0.0,0.0,0.0,0.0,0.0,0.0,0.0,0.0,0.0,0.0,0.0,0.0,0.0,0.0,0.0,0.0,0.0,0.0,0.0,0.0,0.0,0.0,0.0,0.0,0.0,0.0,0.0,0.0,0.0,0.0,0.0,0.0,0.0,0.0,0.0,0.0,0.0,0.0,0.0,0.0,0.0,0.0,0.0,0.0,0.0,0.0,0.0,0.0,0.0,0.0,0.0,0.0,0.0,3.391,3.6118,3.5267,3.4821,3.496,3.3028,3.1342,0.0,0.0,0.0,0.0,0.0,0.0,0.0,0.0,0.0,0.0,0.0,0.0,0.0,0.0,0.0,0.0,0.0,0.0,0.0,0.0,0.0,0.0,0.0,0.0,0.0,0.0,0.0,0.0,0.0,0.0,0.0,0.0,0.0,0.0,0.0,0.0,0.0,0.0,0.0,0.0,0.0,0.0,0.0,0.0,0.0,0.0,0.0,0.0,1.9054,0.0,0.0,0.0,0.0,0.0,0.0,0.0,0.0,0.0,0.0,0.0,0.0,0.0,0.0,0.0,0.0,0.0,0.0,0.0,0.0,0.0,0.0,0.0,0.0,0.0,0.0,0.0,0.0,0.0,0.0,0.0,0.0,0.0,0.0,0.0,0.0,0.0,0.0,0.0,0.0,0.0,0.0,0.0,0.0,0.0,0.0,0.0,0.0,0.0,0.0,0.0,0.0,0.0,0.0,0.0,0.0,0.0,0.0,0.0,3.5528,3.712,3.6297,3.5725,3.5473,3.3581,3.1771,0.0,0.0,0.0,0.0,0.0,0.0,0.0,0.0,0.0,0.0,0.0,0.0,0.0,0.0,0.0,0.0,0.0,0.0,0.0,0.0,0.0,0.0,0.0,0.0,0.0,0.0,0.0,0.0,0.0,0.0,0.0,0.0,0.0,0.0,0.0,0.0,0.0,0.0,0.0,0.0,0.0,0.0,0.0,0.0,0.0,0.0,0.0,0.0,0.0,0.0,0.0,0.0,0.0,0.0,0.0,0.0,0.0,0.0,0.0,0.0,0.0,0.0,0.0,0.0,0.0,0.0,0.0,0.0,0.0,0.0,0.0,0.0,0.0,0.0,0.0,0.0,0.0,0.0,0.0,0.0,0.0,0.0,0.0,0.0,0.0,0.0,0.0,0.0,0.0,0.0,0.0,0.0,0.0,0.0,0.0,0.0,0.0,0.0,0.0,0.0,0.0,0.0,0.0,0.0,0.0,0.0,0.0,3.5391,3.6785,3.7762,3.7411,3.6795,3.5953,3.4045,3.226,3.0704,0.0,0.0,0.0,0.0,0.0,0.0,0.0,0.0,0.0,0.0,0.0,0.0,0.0,0.0,0.0,0.0,0.0,0.0,0.0,0.0,0.0,0.0,0.0,0.0,0.0,0.0,0.0,0.0,0.0,0.0,0.0,0.0,0.0,0.0,0.0,0.0,0.0,0.0,1.9087,1.9583,0.0,0.0,0.0,0.0,0.0,0.0,0.0,0.0,1.9054,0.0,0.0,0.0,0.0,0.0,0.0,0.0,0.0,0.0,0.0,0.0,0.0,0.0,0.0,0.0,0.0,0.0,0.0,0.0,0.0,0.0,0.0,0.0,0.0,0.0,0.0,0.0,0.0,0.0,0.0,0.0,0.0,0.0,0.0,0.0,0.0,0.0,0.0,0.0,0.0,0.0,0.0,0.0,0.0,0.0,0.0,0.0,0.0,0.0,0.0,0.0,0.0,0.0,0.0,0.0,0.0,3.6707,3.6542,3.7137,3.8486,3.7602,3.67,3.5821,3.3932,3.2578,3.1833,0.0,0.0,0.0,0.0,0.0,0.0,0.0,0.0,0.0,0.0,0.0,0.0,0.0,0.0,0.0,0.0,0.0,0.0,0.0,0.0,0.0,0.0,0.0,0.0,0.0,0.0,0.0,0.0,0.0,0.0,0.0,0.0,0.0,0.0,0.0,0.0,0.0,0.0,0.0,1.9555,1.9749,0.0,0.0,0.0,0.0,0.0,0.0,0.0,0.0,1.9343,0.0,0.0,0.0,0.0,0.0,0.0,0.0,0.0,0.0,0.0,0.0,0.0,0.0,0.0,0.0,0.0,0.0,0.0,0.0,0.0,0.0,0.0,0.0,0.0,0.0,0.0,0.0,0.0,0.0,0.0,0.0,0.0,0.0,0.0,0.0,0.0,0.0,0.0,0.0,0.0,0.0,0.0,0.0,0.0,0.0,0.0,0.0,0.0,0.0,0.0,0.0,0.0,0.0,0.0,0.0,3.7024,3.8158,3.8975,3.9634,3.8853,3.7952,3.6926,3.4604,3.3021,0.0,0.0,0.0,0.0,0.0,0.0,0.0,0.0,0.0,0.0,0.0,0.0,0.0,0.0,0.0,0.0,0.0,0.0,0.0,0.0,0.0,0.0,0.0,0.0,0.0,0.0,0.0,0.0,0.0,0.0,0.0,0.0,0.0,0.0,0.0,0.0,0.0,0.0,0.0,0.0,2.0444,2.0147,2.0329,0.0,0.0,0.0,0.0,0.0,0.0,1.8935,1.9009,0.0,0.0,0.0,0.0,0.0,0.0,0.0,0.0,0.0,0.0,0.0,0.0,0.0,0.0,0.0,0.0,0.0,0.0,0.0,0.0,0.0,0.0,0.0,0.0,0.0,0.0,0.0,0.0,0.0,0.0,0.0,0.0,0.0,0.0,0.0,0.0,0.0,0.0,0.0,0.0,0.0,0.0,0.0,0.0,0.0,0.0,0.0,0.0,0.0,0.0,0.0,0.0,0.0,0.0,0.0,3.695,3.9416,4.0585,4.0394,3.9873,3.9005,3.7806,3.5218,3.3472,0.0,0.0,0.0,0.0,0.0,0.0,0.0,0.0,0.0,0.0,0.0,0.0,0.0,0.0,0.0,0.0,0.0,0.0,0.0,0.0,0.0,0.0,0.0,0.0,0.0,0.0,0.0,0.0,0.0,0.0,0.0,0.0,0.0,0.0,0.0,0.0,0.0,0.0,0.0,0.0,0.0,2.0747,2.0404,2.0156,0.0,0.0,0.0,0.0,1.8527,1.8342,0.0,0.0,0.0,0.0,0.0,0.0,0.0,0.0,0.0,0.0,0.0,0.0,0.0,0.0,0.0,0.0,0.0,0.0,0.0,0.0,0.0,0.0,0.0,0.0,0.0,0.0,0.0,0.0,0.0,0.0,0.0,0.0,0.0,0.0,0.0,0.0,0.0,0.0,0.0,0.0,0.0,0.0,0.0,0.0,0.0,0.0,0.0,0.0,0.0,0.0,0.0,0.0,0.0,0.0,0.0,0.0,3.6962,3.9539,4.0478,3.9757,3.9631,3.8798,3.7155,3.5295,3.3814,0.0,0.0,0.0,0.0,0.0,0.0,0.0,0.0,0.0,0.0,0.0,0.0,0.0,0.0,0.0,0.0,0.0,0.0,0.0,0.0,0.0,0.0,0.0,0.0,0.0,0.0,0.0,0.0,0.0,0.0,0.0,0.0,0.0,0.0,0.0,0.0,0.0,0.0,0.0,0.0,0.0,2.1473,2.0679,2.0245,1.9683,0.0,0.0,0.0,1.7907,1.7264,0.0,0.0,0.0,0.0,0.0,0.0,0.0,0.0,0.0,0.0,0.0,0.0,0.0,0.0,0.0,0.0,0.0,0.0,0.0,0.0,0.0,0.0,0.0,0.0,0.0,0.0,0.0,0.0,0.0,0.0,0.0,0.0,0.0,0.0,0.0,0.0,0.0,0.0,0.0,0.0,0.0,0.0,0.0,0.0,0.0,0.0,0.0,0.0,0.0,0.0,0.0,0.0,0.0,0.0,0.0,3.5266,3.7686,4.0492,4.1442,4.0476,3.9998,3.8886,3.7113,3.5206,3.3342,0.0,0.0,0.0,0.0,0.0,0.0,0.0,0.0,0.0,0.0,0.0,0.0,0.0,0.0,0.0,0.0,0.0,0.0,0.0,0.0,0.0,0.0,0.0,0.0,0.0,0.0,0.0,0.0,0.0,0.0,0.0,0.0,0.0,0.0,0.0,0.0,0.0,0.0,0.0,0.0,0.0,0.0,2.1057,2.0257,0.0,0.0,0.0,1.7421,1.7006,0.0,0.0,0.0,0.0,0.0,0.0,0.0,0.0,0.0,0.0,0.0,0.0,0.0,0.0,0.0,0.0,0.0,0.0,0.0,0.0,0.0,0.0,0.0,0.0,0.0,0.0,0.0,0.0,0.0,0.0,0.0,0.0,0.0,0.0,0.0,0.0,0.0,0.0,0.0,0.0,0.0,0.0,0.0,0.0,0.0,0.0,0.0,0.0,0.0,0.0,0.0,0.0,0.0,0.0,0.0,0.0,0.0,3.8163,4.144,4.2383,4.0909,4.0058,3.8773,3.693,3.4701,0.0,0.0,0.0,0.0,0.0,0.0,0.0,0.0,0.0,0.0,0.0,0.0,0.0,0.0,0.0,0.0,0.0,0.0,0.0,0.0,0.0,0.0,0.0,0.0,0.0,0.0,0.0,2.1009,0.0,0.0,0.0,0.0,0.0,0.0,0.0,0.0,0.0,0.0,0.0,0.0,0.0,0.0,2.1303,2.102,2.0168,1.9213,0.0,0.0,1.7164,1.6481,1.6101,1.564,0.0,0.0,0.0,0.0,0.0,0.0,0.0,0.0,0.0,0.0,0.0,0.0,0.0,0.0,0.0,0.0,0.0,0.0,0.0,0.0,0.0,0.0,0.0,0.0,0.0,0.0,0.0,0.0,0.0,0.0,0.0,0.0,0.0,0.0,0.0,0.0,0.0,0.0,0.0,0.0,0.0,0.0,0.0,0.0,0.0,0.0,0.0,0.0,0.0,0.0,0.0,0.0,0.0,0.0,0.0,3.8127,4.21,4.2892,4.0359,3.9349,3.8056,3.6389,3.3732,3.18,0.0,0.0,0.0,0.0,0.0,0.0,0.0,0.0,0.0,0.0,0.0,0.0,0.0,0.0,0.0,0.0,0.0,0.0,0.0,0.0,0.0,0.0,0.0,0.0,0.0,0.0,0.0,0.0,0.0,0.0,0.0,0.0,0.0,0.0,0.0,0.0,0.0,0.0,0.0,0.0,0.0,2.15,2.027,1.9851,1.9478,0.0,0.0,1.7206,1.6664,1.6045,1.5078,1.3514,0.0,0.0,0.0,0.0,0.0,0.0,0.0,0.0,0.0,0.0,0.0,0.0,0.0,0.0,0.0,0.0,0.0,0.0,0.0,0.0,0.0,0.0,0.0,0.0,0.0,0.0,0.0,0.0,0.0,0.0,0.0,0.0,0.0,0.0,0.0,0.0,0.0,0.0,0.0,0.0,0.0,0.0,0.0,0.0,0.0,0.0,0.0,0.0,0.0,0.0,0.0,0.0,0.0,3.7376,3.8277,4.1804,4.2508,4.0212,3.8904,3.739,3.5607,3.3468,3.1489,0.0,0.0,0.0,0.0,0.0,0.0,0.0,0.0,0.0,0.0,0.0,0.0,0.0,0.0,0.0,0.0,0.0,0.0,0.0,0.0,0.0,0.0,0.0,0.0,0.0,0.0,0.0,0.0,2.2401,2.2119,2.1313,0.0,0.0,0.0,0.0,0.0,0.0,0.0,0.0,0.0,0.0,2.202,2.1708,2.1312,0.0,0.0,1.9621,1.8733,1.7311,1.6254,1.4916,1.2991,1.1928,0.0,0.0,0.0,0.0,0.0,0.0,0.0,0.0,0.0,0.0,0.0,0.0,0.0,0.0,0.0,0.0,0.0,0.0,0.0,0.0,0.0,0.0,0.0,0.0,0.0,0.0,0.0,0.0,0.0,0.0,0.0,0.0,0.0,0.0,0.0,0.0,0.0,0.0,0.0,0.0,0.0,0.0,0.0,0.0,0.0,0.0,0.0,0.0,0.0,0.0,0.0,0.0,3.773,3.8356,4.1756,4.2406,4.0042,3.8714,3.7032,3.4951,3.3143,3.1297,0.0,0.0,0.0,0.0,0.0,0.0,0.0,0.0,0.0,0.0,0.0,0.0,0.0,0.0,0.0,0.0,0.0,0.0,0.0,0.0,0.0,0.0,0.0,0.0,0.0,0.0,0.0,0.0,2.3401,2.2802,2.1904,0.0,0.0,0.0,0.0,0.0,0.0,0.0,0.0,0.0,0.0,2.2765,2.2719,2.2515,2.2042,2.1199,2.0577,1.9504,1.7521,1.6033,1.4284,1.1898,0.0,0.0,0.0,0.0,0.0,0.0,0.0,0.0,0.0,0.0,0.0,0.0,0.0,0.0,0.0,0.0,0.0,0.0,0.0,0.0,0.0,0.0,0.0,0.0,0.0,0.0,0.0,0.0,0.0,0.0,0.0,0.0,0.0,0.0,0.0,0.0,0.0,0.0,0.0,0.0,0.0,0.0,0.0,0.0,0.0,0.0,0.0,0.0,0.0,0.0,0.0,0.0,0.0,0.0,3.8254,4.2169,4.281,3.9892,3.887,3.7065,3.4517,3.2743,3.118,2.9767,0.0,0.0,0.0,0.0,0.0,0.0,0.0,0.0,0.0,0.0,0.0,0.0,0.0,0.0,0.0,0.0,0.0,0.0,0.0,0.0,0.0,0.0,0.0,0.0,0.0,0.0,2.4271,2.3299,2.2497,0.0,0.0,0.0,0.0,0.0,0.0,0.0,0.0,0.0,0.0,2.371,2.3765,2.2963,2.3128,2.2958,2.1702,2.0501,1.9049,1.7106,1.5212,1.2926,0.0,0.0,0.0,0.0,0.0,0.0,0.0,0.0,0.0,0.0,0.0,0.0,0.0,0.0,0.0,0.0,0.0,0.0,0.0,0.0,0.0,0.0,0.0,0.0,0.0,0.0,0.0,0.0,1.2351,0.0,0.0,0.0,0.0,0.0,0.0,0.0,0.0,0.0,0.0,0.0,2.041,2.2595,0.0,0.0,0.0,0.0,0.0,0.0,0.0,0.0,0.0,0.0,0.0,0.0,3.8408,3.9157,4.1903,4.2152,3.9646,3.78,3.6056,3.4314,3.2004,3.0196,2.8838,0.0,0.0,0.0,0.0,0.0,0.0,0.0,0.0,0.0,0.0,0.0,0.0,0.0,0.0,0.0,0.0,0.0,0.0,0.0,0.0,0.0,0.0,0.0,0.0,0.0,2.4696,0.0,0.0,0.0,0.0,0.0,0.0,0.0,0.0,0.0,0.0,0.0,2.4017,2.4571,2.5379,2.5547,2.4576,2.453,2.4064,0.0,0.0,0.0,0.0,0.0,0.0,0.0,0.0,0.0,0.0,0.0,0.0,0.0,0.0,0.897,1.0151,1.0156,1.0117,1.0623,0.0,0.0,0.0,0.0,0.0,0.0,0.0,0.0,0.0,0.0,0.0,0.0,0.0,0.0,0.0,0.0,1.1836,0.0,0.0,0.0,0.0,0.0,0.0,0.0,0.0,1.9295,2.0789,2.1854,2.3913,2.5348,0.0,2.7731,2.826,0.0,0.0,0.0,0.0,0.0,0.0,0.0,0.0,3.9016,3.9744,4.2136,4.2042,3.9287,3.7686,3.6043,3.429,3.1992,3.0132,2.8793,2.9237,2.9181,0.0,0.0,0.0,0.0,0.0,0.0,0.0,0.0,0.0,0.0,0.0,0.0,0.0,0.0,0.0,0.0,0.0,0.0,0.0,0.0,0.0,0.0,0.0,2.5522,0.0,0.0,0.0,0.0,0.0,0.0,0.0,0.0,0.0,2.2422,2.4055,2.5442,2.5955,2.6747,2.682,2.569,0.0,0.0,0.0,0.0,0.0,0.0,0.0,1.1291,0.8568,0.7477,0.6918,0.6709,0.7534,0.8306,0.8598,0.0,0.0,0.9907,0.9964,1.0171,1.0944,1.1571,1.2358,1.3578,1.4974,1.6412,0.0,0.0,0.0,0.0,0.0,0.0,0.0,0.0,1.2609,1.2745,0.0,1.1676,0.0,0.0,0.0,0.0,0.0,0.0,0.0,0.0,2.1274,2.2695,2.3556,2.511,2.6492,2.7683,2.911,3.0079,3.0503,2.8748,0.0,0.0,0.0,0.0,0.0,0.0,3.9891,4.0151,4.2893,4.2498,3.8801,3.8424,3.7058,3.4397,3.2584,3.1026,2.9796,3.0132,2.9983,2.9206,2.8348,0.0,0.0,0.0,0.0,0.0,0.0,0.0,0.0,0.0,0.0,0.0,0.0,0.0,0.0,0.0,0.0,0.0,0.0,0.0,0.0,2.7413,0.0,0.0,0.0,0.0,0.0,0.0,0.0,0.0,0.0,0.0,2.3787,2.4941,2.6168,2.7076,0.0,0.0,0.0,0.0,2.4014,2.1847,1.9341,1.6883,1.4538,1.1986,0.9724,0.8018,0.0,0.0,0.7516,0.8902,0.9986,0.9841,1.0949,1.1441,1.0192,1.0071,1.0474,1.1791,1.2621,1.3511,1.5014,1.6759,1.8383,0.9329,0.0,0.0,0.0,0.0,1.1329,1.1924,1.256,1.2922,1.2777,1.2216,1.1613,0.0,0.0,0.0,0.0,0.0,0.0,1.9376,2.0602,2.2467,2.3926,2.5011,2.6522,2.7672,2.8579,2.9783,3.0929,3.1902,3.1714,3.1191,3.0447,0.0,0.0,0.0,0.0,4.1668,4.154,4.3205,4.249,3.9156,3.8037,3.6095,3.3251,3.2685,3.2221,3.1833,3.168,3.1282,3.0706,3.0634,0.0,0.0,0.0,0.0,0.0,0.0,0.0,0.0,0.0,0.0,0.0,0.0,0.0,0.0,0.0,0.0,0.0,0.0,0.0,2.5643,2.6426,2.5983,0.0,0.0,0.0,0.0,0.0,0.0,0.0,0.0,0.0,2.6545,2.7532,2.7999,0.0,0.0,2.7661,2.5397,2.449,2.3131,2.0681,0.0,0.0,0.0,1.2319,1.0929,0.972,0.9717,0.9962,1.0205,1.1316,1.2134,1.2064,1.301,1.3854,1.4122,1.3155,1.2693,1.3382,1.4471,1.5711,1.7037,1.8718,2.0546,0.9402,0.9132,0.981,1.0415,1.1032,1.1761,1.23,1.2721,1.3075,1.2758,1.1949,1.1447,1.1345,1.1608,1.3039,0.0,0.0,0.0,2.0476,2.1842,2.3364,2.4831,2.6289,2.7562,2.8737,2.982,3.1008,3.2236,3.3411,3.3908,3.4038,3.3825,0.0,0.0,3.8357,4.156,4.2955,4.2584,4.3564,4.2587,3.954,3.7898,3.5919,3.3599,3.3489,3.327,3.2796,3.2366,3.1999,3.1724,3.1665,3.0697,0.0,0.0,0.0,0.0,0.0,0.0,0.0,0.0,0.0,0.0,0.0,2.4953,0.0,0.0,0.0,0.0,2.5685,2.6246,2.5882,2.6141,0.0,0.0,0.0,0.0,0.0,0.0,0.0,2.5232,2.6459,2.7522,2.8369,2.8792,2.8628,2.7623,2.7709,2.7109,2.4984,0.0,2.2388,2.0373,1.8365,1.6418,1.4605,1.354,1.2757,1.2344,1.247,1.28,1.318,1.4128,1.48,1.4959,1.5684,1.6666,1.7528,1.6928,1.6304,1.6361,1.7114,1.8208,1.9458,2.1081,2.2714,1.0173,1.0319,1.0707,1.1247,1.1884,1.2601,1.2871,1.2828,1.3135,1.273,1.1838,1.1349,1.1574,1.2447,1.4886,0.0,0.0,2.0015,2.1716,2.3132,2.4237,2.5737,2.7497,2.8423,2.9674,3.1147,3.2523,3.3777,3.488,3.5593,3.6752,3.8326,3.8016,3.8934,4.105,4.3217,4.4035,4.3462,4.4019,4.2856,3.9813,3.8028,3.6447,3.4951,3.4831,3.4247,3.3184,3.262,3.237,3.2445,3.1862,3.0832,2.9343,0.0,0.0,0.0,0.0,0.0,0.0,0.0,0.0,0.0,0.0,0.0,0.0,0.0,0.0,0.0,2.5971,0.0,2.7255,2.6288,0.0,0.0,0.0,2.2633,2.3332,2.4878,2.6209,2.7077,0.0,0.0,0.0,0.0,2.8431,2.7617,2.6927,2.6078,2.4829,2.3322,2.1861,2.0804,1.8969,1.7352,1.6421,1.5618,1.5229,1.5518,1.5586,1.5721,1.6269,1.7044,1.7703,1.7831,1.8645,1.9503,2.0213,2.0626,2.0935,2.0165,2.0246,2.0753,2.1883,2.3351,2.4467,1.2162,1.2805,1.3605,1.3604,1.3104,1.3494,1.3696,1.3696,1.3229,1.2747,1.2321,1.2257,1.3168,1.4914,1.68,1.8658,2.0514,2.2116,2.3794,2.5476,2.6418,2.7655,2.9074,2.9988,3.0697,3.1412,3.3155,3.4602,3.5725,3.7721,3.977,4.1693,4.2791,4.3285,4.3299,4.5084,4.5553,4.4671,4.4629,4.3138,4.01,3.8843,3.7763,3.6874,3.5855,3.5239,3.5048,3.4082,3.365,3.3791,3.2282,3.1263,3.0865,2.9027,0.0,0.0,0.0,0.0,0.0,0.0,0.0,0.0,0.0,2.3291,2.281,0.0,2.3984,0.0,2.5709,2.648,2.6038,2.5601,0.0,0.0,2.4643,2.5188,2.6784,2.7544,2.8176,2.8768,2.9556,2.9792,2.9179,2.8998,2.8575,2.7633,2.6573,2.5555,2.4513,2.3554,2.259,2.1696,2.0627,1.9618,1.8833,1.8482,1.832,1.8487,1.842,1.8588,1.9082,1.9588,2.0003,2.0253,2.0883,2.1575,2.2151,2.2438,2.2747,2.3158,2.28,2.2502,2.3149,2.4177,2.5201,1.4139,1.5108,1.5656,1.5727,1.5456,1.484,1.455,1.4451,1.3911,1.3434,1.3131,1.3786,1.5244,1.7276,1.8839,2.0626,2.2584,2.3824,2.5309,2.6976,2.7613,2.8829,3.0546,3.1363,3.2302,3.3396,3.493,3.6337,3.761,3.9477,4.1611,4.3883,4.4881,4.5671,4.6254,4.663,4.6335,4.5291,4.436,4.2879,4.0802,3.9877,3.8975,3.7958,3.7325,3.6574,3.5753,3.4963,3.424,3.3705,3.2356,3.1045,2.9955,2.8499,2.6934,0.0,0.0,0.0,0.0,0.0,0.0,0.0,0.0,0.0,0.0,0.0,2.4142,0.0,0.0,0.0,2.5751,2.5515,2.5621,2.628,2.6843,2.7736,2.9193,2.9844,3.0168,3.0168,3.0242,3.007,2.94,2.9019,2.8544,2.7737,2.7041,2.6167,2.5035,2.4171,2.3462,2.3013,2.2392,2.1793,2.1221,2.0931,2.083,2.1069,2.1005,2.1034,2.1411,2.1746,2.199,2.2167,2.2742,2.3303,2.3806,2.4036,2.441,2.4882,2.4771,2.4438,2.4463,2.5063,2.5804,1.5992,1.708,1.7171,1.7575,1.7972,1.6458,1.5526,1.507,1.4826,1.4581,1.4428,1.5781,1.7565,1.9604,2.1002,2.2602,2.4381,2.5353,2.662,2.8036,2.8435,2.9819,3.2017,3.2778,3.4147,3.6032,3.7122,3.84,3.9823,4.1078,4.294,4.5272,4.5675,4.6923,4.8903,4.7794,4.6605,4.5482,4.3929,4.2695,4.1732,4.1084,4.0092,3.8841,3.8655,3.7759,3.5984,3.5346,3.4427,3.3183,3.2286,3.0736,2.8412,2.738,2.5872,0.0,2.4221,0.0,0.0,0.0,0.0,0.0,0.0,0.0,0.0,2.4555,2.4843,2.5811,2.5636,2.5669,2.6142,2.6159,2.6735,2.8168,2.9304,3.0262,3.107,3.1838,3.1988,3.1266,3.0862,3.0436,2.9689,2.9149,2.8592,2.8208,2.7934,2.7376,2.6167,2.5271,2.4728,2.4659,2.424,2.379,2.3456,2.3006,2.2792,2.32,2.2989,2.297,2.3177,2.3487,2.368,2.3794,2.4247,2.4771,2.5086,2.5375,2.5659,2.5944,2.5913,2.5789,2.568,2.5885,2.6258,1.7656,1.8049,1.835,1.8495,1.8531,1.8064,1.6985,1.5556,1.5334,1.5977,1.7288,1.8466,2.0072,2.1996,2.335,2.4585,2.5703,2.69,2.8074,2.9207,3.0025,3.1541,3.3658,3.4562,3.5728,3.7122,3.848,3.9764,4.0998,4.277,4.4704,4.667,4.7076,4.7756,0.0,0.0,0.0,0.0,4.4703,4.388,4.2895,4.2333,4.1411,4.0156,3.8482,0.0,3.6521,3.5272,3.4319,3.3669,3.2607,0.0,0.0,0.0,0.0,0.0,0.0,0.0,0.0,0.0,0.0,0.0,2.4687,2.516,2.45,2.5653,2.6557,2.6823,2.7252,2.7545,2.7615,2.8549,2.9383,2.9917,3.1377,3.2477,3.2888,3.3432,3.3229,3.1683,3.1579,3.105,2.971,2.9559,2.9661,2.9393,2.9011,2.8552,2.8138,2.7205,2.6664,2.6668,2.6151,2.5688,2.5167,2.4766,2.4432,2.4376,2.4036,2.395,2.425,2.4529,2.4848,2.5084,2.5528,2.5794,2.5861,2.5727,2.5775,2.6029,2.5895,2.5745,2.5953,2.6339,2.6586,1.8892,0.0,1.9443,1.9795,0.0,1.9922,1.941,1.8726,1.7725,1.8243,1.9883,2.1086,2.2575,2.4194,2.536,2.6403,2.7374,2.8528,2.9732,3.1078,3.185,3.3366,3.5418,3.664,3.7727,3.8816,4.0545,4.1864,4.2812,4.4486,4.611,4.7709,4.7899,4.8381,4.9128,4.8243,4.7162,4.6048,4.526,4.4447,4.3624,4.3087,4.2012,4.0395,0.0,0.0,0.0,0.0,0.0,0.0,0.0,0.0,0.0,0.0,0.0,2.37,2.3848,2.356,2.2559,2.4076,2.5191,2.5441,2.7303,2.7777,2.6151,2.7537,2.8345,2.802,2.8344,2.8912,2.9762,3.0501,3.1565,3.3083,3.3829,3.4455,3.5046,3.4761,3.3915,3.2744,3.2368,3.1827,3.0675,3.0722,3.0713,3.0397,3.0153,2.9797,2.924,2.8267,2.7559,2.7591,2.7008,2.6572,2.6557,2.62,2.5844,2.5649,2.545,2.5356,2.5338,2.5454,2.5626,2.5843,2.613,2.6398,2.6398,2.6365,2.6432,2.6566,2.6499,2.6355,2.6397,2.6401,2.6443,2.0023,2.0739,2.0593,2.1143,2.2138,2.1758,2.2009,2.2477,0.0,0.0,0.0,2.3454,2.4705,2.6008,2.7076,2.8106,2.911,3.0149,3.1455,3.2963,3.3759,3.52,3.7174,3.8649,3.9794,4.0714,4.2569,4.383,4.4559,4.5847,4.7179,4.8436,4.8475,4.8759,4.9271,4.8327,4.7454,4.6768,4.5801,4.4868,4.3964,4.3498,4.227,4.0229,3.982,3.8637,3.6534,3.5293,3.3779,3.1899,3.0414,2.8743,2.6843,2.6091,2.5116,2.381,2.4356,2.4655,2.4504,2.5911,2.7202,2.8121,3.0258,3.0621,2.8442,2.959,3.0161,2.9512,2.9772,3.0687,3.2283,3.2685,3.3852,3.6437,3.6075,3.6026,3.6819,3.5822,3.4529,3.3655,3.3144,3.262,3.1939,3.1837,3.1751,3.134,3.1235,3.104,3.018,2.9104,2.8319,2.8289,2.7847,2.7435,2.7632,2.7296,2.6883,2.6608,2.6486,2.6398,2.6213,2.6164,2.6231,2.6432,2.6651,2.6851,2.6885,2.6934,2.7102,2.7121,2.7039,2.6928,2.6676,2.629,2.6132,2.1415,2.1809,2.2058,2.2432,2.2909,2.3385,2.4122,2.4854,2.3248,2.3201,2.4319,2.5092,2.6008,2.7045,2.834,2.9466,3.0488,3.1775,3.304,0.0,3.5538,3.7096,3.894,4.0319,4.149,4.2461,4.3572,4.4553,4.5421,4.6322,4.7564,4.8981,4.8881,4.8656,4.8419,4.7707,4.7087,4.6616,4.658,4.5638,4.3804,4.3499,4.2302,4.0141,3.9105,3.788,3.631,3.5133,3.3567,3.1594,3.0871,2.9477,2.7295,2.7104,2.6721,2.5965,2.6431,2.6968,2.7369,2.8667,3.0209,3.1948,3.3076,3.2666,3.0418,3.1309,3.1925,3.1644,3.2923,3.4284,3.5301,3.5863,3.669,3.8004,3.7242,3.6703,3.7077,3.625,3.5154,3.3934,3.3693,3.328,3.2489,3.2268,3.2319,3.2376,3.2154,3.1861,3.1334,3.0457,2.9756,2.9529,2.9413,2.9139,2.8639,2.7965,2.7388,2.6784,2.628,2.6109,2.6277,2.6512,2.6831,2.7334,2.7434,2.7484,2.7484,2.7085,2.6841,2.6768,2.6557,2.6318,2.6278,2.5945,2.5786,2.2459,2.3181,2.37,2.4313,2.5011,2.59,2.6648,2.721,2.6705,2.6394,2.6378,2.685,2.7654,2.8734,2.985,3.0906,3.1808,3.3301,3.4722,3.609,3.7426,3.8883,4.0425,4.207,4.2985,4.3468,4.506,4.5998,4.6297,4.7232,4.8402,4.9659,4.9779,4.9462,4.887,4.8511,4.7813,4.6782,4.6448,4.5358,4.3612,4.3663,4.2508,3.9972,3.908,3.7966,3.6469,3.4867,3.3336,3.1936,3.0705,2.9492,2.8296,2.7956,2.7849,2.7894,2.883,2.9533,2.9852,3.1762,3.341,3.4716,3.5697,3.5771,3.4524,3.4486,3.4518,3.443,3.559,3.6839,3.7984,3.7798,3.815,3.9633,3.8342,3.75,3.7567,3.6706,3.5624,3.4626,3.4268,3.3932,3.3351,3.3108,3.3071,3.3213,3.2837,3.2426,3.231,3.1731,3.1131,3.0635,3.0018,2.9526,2.9282,2.8573,2.7948,2.76,2.7292,2.7134,2.7284,2.7471,2.7571,2.7656,2.7695,2.7533,2.7284,2.6934,2.6677,2.6395,2.6268,2.608,2.5913,2.5596,2.5467,2.3775,2.4825,2.5325,2.614,2.714,2.8051,2.8692,2.9061,2.9301,2.9156,2.8742,2.8807,2.941,3.0467,3.1553,3.2501,3.3448,3.4887,3.641,3.7848,3.9274,4.0544,4.1859,4.3693,4.4507,4.4637,4.643,4.7298,4.7223,4.8058,4.9046,4.9938,5.0193,4.9906,4.9178,4.895,4.813,4.6733,4.6103,4.502,4.3476,4.3456,4.2245,3.9881,3.9129,3.8034,3.6365,3.4829,3.3454,3.2356,3.1013,3.0092,2.972,2.9472,2.965,3.0524,3.1591,3.2464,3.3028,3.4798,3.6279,3.7079,3.7942,3.8411,3.8315,3.8056,3.7584,3.7328,3.7889,3.8915,3.9964,3.9114,3.896,4.0535,3.9088,3.8048,3.819,3.7188,3.6168,3.5536,3.5163,3.4905,3.4649,3.4388,3.4268,3.4164,3.3625,3.3233,3.3243,3.293,3.2431,3.1803,3.0697,2.9942,2.9965,2.9201,2.8527,2.8362,2.8061,2.7903,2.7967,2.8067,2.8051,2.7832,2.7742,2.7516,2.6967,2.6767,2.6513,2.6154,2.5948,2.5891,2.5565,2.5326,2.5227,2.585,2.6766,2.6917,2.7554,2.8495,2.9003,2.9433,2.9793,2.9818,3.0572,3.1477,3.1028,3.1171,3.2047,3.3341,3.4478,3.5496,3.6605,3.7933,3.9417,4.0779,4.1977,4.3239,4.5104,4.6057,4.6264,4.7217,4.7839,4.8006,4.8356,4.8964,4.9668,4.9514,4.9157,4.8632,4.7927,4.7017,4.6001,4.5934,4.5098,4.3458,4.2372,4.1018,3.9393,3.8824,3.757,3.5735,3.5272,3.4286,3.2618,3.253,3.2337,3.1945,3.2334,3.3239,3.4468,3.5051,3.5912,3.7292,3.7715,3.8288,3.9266,3.95,3.9772,4.025,4.1315,4.1277,4.0012,3.9945,4.0676,4.1708,4.0217,3.9752,4.1067,3.9411,3.8107,3.8419,3.7641,3.6901,3.685,3.6414,3.6342,3.6029,3.5909,3.578,3.521,3.4839,3.4552,3.4478,3.4081,3.3705,3.3359,3.2263,3.1176,3.0764,2.9887,2.907,2.8444,2.7781,2.769,2.7816,2.7687,2.7444,2.795,2.7892,2.7566,2.72,2.6918,2.6433,2.5903,2.5669,2.5531,2.5249,2.5104,2.5226,2.74,2.8433,2.8382,2.8753,2.9425,2.9799,3.0192,3.0586,3.1248,3.2001,3.2805,3.3345,3.3545,3.3509,3.4694,3.5739,3.6632,3.8392,3.9899,4.1136,4.2462,4.3726,4.5019,4.6195,4.7015,4.7536,4.8344,4.8788,4.8904,4.927,4.965,4.9934,4.9713,4.941,4.8947,4.8373,4.7364,4.6022,4.5582,4.4507,4.2906,4.2552,4.1548,3.9791,3.9129,3.8249,3.6807,3.6048,3.5281,3.4486,3.4087,3.3986,3.4224,3.4857,3.567,3.6744,3.7928,3.8978,3.9922,3.9981,4.0338,4.1127,4.1334,4.1629,4.2179,4.3243,4.3366,4.2386,4.1659,4.1681,4.2331,4.0708,4.0019,4.1064,4.0061,3.9103,3.9094,3.8189,3.7471,3.7415,3.6658,3.62,3.6323,3.6165,3.5695,3.5181,3.518,3.5529,3.533,3.492,3.4667,3.4437,3.3276,3.2198,3.1525,3.0639,2.9752,2.909,2.8659,2.8515,2.805,2.7984,2.7953,2.798,2.7776,2.7467,2.6967,2.6602,2.6165,2.5694,2.5376,2.5203,2.4873,2.4949,2.515,2.8821,2.9745,2.9854,3.0098,3.0507,3.0766,3.109,3.1519,3.2456,3.3138,3.3798,3.4899,3.5428,3.5533,3.6363,3.7156,3.8022,3.9953,4.154,4.2605,4.3755,4.4975,4.6302,4.712,4.7899,4.8644,4.9306,4.9574,4.9549,4.9717,4.9829,4.974,4.9534,4.9209,4.876,4.8349,4.7478,4.615,4.5445,4.4273,4.2713,4.2751,4.1988,4.0033,3.9446,3.8789,3.7839,3.6979,3.6533,3.6465,3.5896,3.5921,3.6693,3.7213,3.7939,3.9023,4.0316,4.137,4.2053,4.1957,4.2189,4.2788,4.3086,4.3304,4.3714,4.4535,4.4606,4.3716,4.284,4.2551,4.2773,4.1062,4.0367,4.1339,4.0582,3.9841,3.9566,3.8697,3.817,3.8124,3.7383,3.6646,3.6934,3.6633,3.6006,3.5809,3.5977,3.6276,3.5981,3.555,3.5087,3.5055,3.3819,3.2676,3.2006,3.1251,3.0412,2.9807,2.9429,2.9025,2.8587,2.8435,2.8117,2.7816,2.7694,2.7416,2.6934,2.6453,2.6083,2.5729,2.5423,2.5122,2.4919,2.4934,2.4949,3.0201,3.0949,3.1314,3.1612,3.1983,3.1955,3.2251,3.2611,3.309,3.3817,3.4746,3.5367,3.6417,3.7904,3.8497,3.9155,3.9903,4.1169,4.2516,4.3795,4.4401,4.5444,4.6851,4.7744,4.8755,4.9692,4.9963,4.9953,4.9782,4.9473,4.916,4.8864,4.8465,4.8054,4.7716,4.731,4.6743,4.6211,4.574,4.4658,4.3081,4.2728,4.1809,4.022,3.9529,3.906,3.8464,3.8198,3.8066,3.8007,3.813,3.8524,3.92,3.9371,4.0147,4.1668,4.2269,4.2989,4.3835,4.3569,4.3668,4.443,4.4539,4.4498,4.4419,4.5299,4.516,4.3598,4.3469,4.3419,4.3121,4.1381,4.0522,4.1359,4.0634,4.003,3.9898,3.9395,3.9109,3.9213,3.8805,3.8426,3.8776,3.7845,3.7407,3.7434,3.7244,3.6859,3.6914,3.6049,3.5387,3.4907,3.3961,3.2708,3.2051,3.1593,3.107,3.0366,2.9673,2.9259,2.8909,2.8553,2.8051,2.7619,2.7444,2.7199,2.6849,2.6526,2.6211,2.589,2.5628,2.5344,2.492,2.4749,2.4812,3.1597,3.2085,3.225,3.2523,3.2818,3.2608,3.2852,3.35,3.4638,3.5132,3.5585,3.7197,3.831,3.8748,4.0452,4.0995,4.0876,4.2939,4.4377,4.5118,4.571,4.6942,4.8603,4.8975,4.9563,5.0424,5.0784,5.0545,4.986,4.9323,4.8837,4.8471,4.8072,4.7596,4.7144,4.6867,4.6343,4.5636,4.5406,4.4626,4.3289,4.2928,4.2388,4.1662,4.0538,3.9973,3.9893,3.9443,3.9529,4.013,4.0096,4.0369,4.1005,4.1634,4.2379,4.3329,4.377,4.4202,4.4705,4.4693,4.4999,4.5933,4.5723,4.5508,4.5587,4.6044,4.5795,4.4243,4.4079,4.3968,4.303,4.1703,4.1024,4.1387,4.1237,4.0888,4.0697,4.0254,4.0112,4.0492,4.0273,3.9704,3.8803,3.8147,3.7825,3.7678,3.7601,3.7619,3.7587,3.7053,3.6309,3.5574,3.4668,3.3635,3.2657,3.2106,3.1505,3.0627,2.9934,2.9324,2.8877,2.8309,2.7828,2.7661,2.7432,2.7199,2.6967,2.6794,2.646,2.5791,2.5532,2.5455,2.4874,2.4937,2.5093,3.2693,3.3031,3.3218,3.3492,3.3823,3.3719,3.3998,3.47,3.597,3.6479,3.6824,3.8663,3.9591,3.9956,4.1764,4.2466,4.226,4.4301,4.5647,4.6295,4.6714,4.7891,4.9373,4.9334,4.9764,5.0694,5.0893,5.0547,4.9911,4.9226,4.8532,4.7797,4.7549,4.7061,4.6379,4.625,4.5902,4.5367,4.5178,4.4531,4.3581,4.3227,4.2991,4.2604,4.1715,4.1274,4.1402,4.1049,4.1205,4.1879,4.1984,4.226,4.2799,4.33,4.4011,4.4792,4.507,4.5529,4.6111,4.6119,4.6344,4.7075,4.6806,4.643,4.6069,4.6681,4.6107,4.4817,4.4549,4.4403,4.3341,4.2432,4.1974,4.1891,4.172,4.1651,4.1706,4.1329,4.1254,4.1336,4.0896,4.0101,3.9233,3.8771,3.8466,3.807,3.8193,3.821,3.8166,3.766,3.7155,3.6286,3.5204,3.4357,3.3468,3.2757,3.2083,3.124,3.0404,2.9668,2.8942,2.8329,2.7849,2.7716,2.7484,2.73,2.7121,2.7011,2.6479,2.5743,2.5688,2.5771,2.547,2.5297,2.5408,3.3424,3.3802,3.4215,3.4597,3.4959,3.5301,3.576,3.6211,3.7022,3.7711,3.8231,3.935,4.0378,4.1287,4.2562,4.3409,4.4131,4.506,4.617,4.7278,4.7288,4.8122,4.9613,4.9019,4.9412,5.0623,5.0236,4.9936,4.9695,4.9126,4.8207,4.7032,4.6908,4.6405,4.5149,4.5402,4.5481,4.5343,4.5082,4.4608,4.3913,4.3795,4.3516,4.3126,4.2978,4.295,4.2956,4.2985,4.3115,4.3527,4.3894,4.4286,4.4598,4.4589,4.5002,4.6107,4.622,4.6921,4.8153,4.7804,4.7438,4.7762,4.7693,4.7074,4.629,4.7015,4.6894,4.5227,4.4967,4.4748,4.3812,4.3344,4.2981,4.2577,4.2103,4.2225,4.2556,4.2583,4.2252,4.1837,4.1191,4.0496,4.0239,3.9632,3.9174,3.9248,3.8951,3.8576,3.8489,3.7777,3.7123,3.6635,3.5669,3.4679,3.4043,3.3437,3.2714,3.1952,3.111,3.0301,2.9553,2.8875,2.8213,2.7948,2.7467,2.7234,2.72,2.7057,2.6947,2.6433,2.6358,2.6088,2.5929,2.5723,2.5627,3.3837,3.4252,3.4649,3.5194,3.5848,3.6257,3.666,3.7141,3.8354,3.8899,3.9167,4.0843,4.1852,4.2376,4.3597,4.4619,4.5388,4.6123,4.6865,4.7434,4.7751,4.8711,4.9844,4.9472,4.9535,5.0055,4.9652,4.9146,4.8788,4.8528,4.7763,4.6668,4.6248,4.5757,4.5019,4.4809,4.4846,4.5053,4.4964,4.4954,4.5105,4.4969,4.4761,4.4666,4.4785,4.4881,4.4881,4.434,4.4195,4.4494,4.5198,4.5885,4.6336,4.6403,4.6586,4.7001,4.7053,4.7097,4.7553,4.7619,4.7748,4.8205,4.8181,4.7667,4.6965,4.7526,4.7244,4.5631,4.5593,4.5454,4.4945,4.413,4.344,4.2587,4.3012,4.3218,4.3243,4.336,4.3204,4.2719,4.2257,4.1714,4.0874,4.0114,3.9823,3.9626,3.9144,3.8747,3.854,3.7926,3.7016,3.6336,3.5515,3.4995,3.4479,3.3875,3.317,3.2491,3.1691,3.0864,3.0099,2.939,2.8726,2.8031,2.7533,2.7267,2.72,2.7153,2.701,2.6884,2.6565,2.6407,2.6247,2.6151,2.6037,3.427,3.4688,3.5237,3.5934,3.6682,3.7222,3.7773,3.8401,3.9458,3.9994,4.0518,4.2208,4.3036,4.3294,4.4593,4.5473,4.5957,4.6664,4.7232,4.7705,4.8126,4.9064,5.0085,4.9708,4.9303,4.9255,4.8983,4.8539,4.8056,4.789,4.733,4.6434,4.6015,4.5616,4.5083,4.4768,4.4795,4.5052,4.5104,4.5274,4.5527,4.5514,4.5415,4.5412,4.5561,4.5712,4.5755,4.5448,4.5344,4.5542,4.6048,4.665,4.725,4.761,4.7838,4.7861,4.7907,4.7925,4.7944,4.799,4.8011,4.8553,4.8402,4.7937,4.749,4.7728,4.7236,4.6343,4.5897,4.5871,4.5742,4.5045,4.422,4.3749,4.3932,4.4132,4.3937,4.413,4.3959,4.3374,4.2841,4.2111,4.1261,4.055,4.0182,3.9724,3.921,3.8714,3.8482,3.7983,3.7145,3.6443,3.5938,3.5422,3.4914,3.4296,3.3619,3.2935,3.2269,3.142,3.0604,2.9841,2.9159,2.8146,2.75,2.7267,2.72,2.72,2.7121,2.693,2.6787,2.6709,2.6597,2.6566,2.6466,3.4692,3.5131,3.599,3.6806,3.7596,3.8364,3.9127,3.9844,4.0363,4.1064,4.2084,4.3356,4.3881,4.4118,4.5358,4.608,4.6175,4.6798,4.7536,4.8066,4.8518,4.9055,4.957,4.944,4.904,4.8551,4.8415,4.8117,4.7778,4.7622,4.7046,4.6514,4.611,4.5778,4.547,4.5176,4.5121,4.5441,4.5488,4.5516,4.5596,4.5566,4.5536,4.5536,4.5586,4.5738,4.5968,4.6353,4.6606,4.6514,4.6566,4.6878,4.7431,4.8273,4.8734,4.856,4.8668,4.8737,4.8908,4.8587,4.8524,4.8577,4.8347,4.796,4.7484,4.7487,4.7427,4.6927,4.6289,4.6042,4.6337,4.5871,4.5501,4.5482,4.4852,4.4589,4.4938,4.4865,4.4394,4.3755,4.2957,4.2038,4.1325,4.0702,4.0214,3.9822,3.9407,3.8913,3.8316,3.785,3.7448,3.6817,3.6081,3.5734,3.5156,3.4677,3.4025,3.3599,3.2887,3.2044,3.0935,3.008,2.9176,2.8212,2.7582,2.7366,2.72,2.72,2.72,2.7105,2.701,2.6962,2.6914,2.6851,2.6736,3.5232,3.5961,3.6782,3.7765,3.8859,3.965,4.0286,4.0844,4.1734,4.2053,4.2517,4.4054,4.4683,4.4673,4.5852,4.6746,4.7194,4.7556,4.8203,4.8844,4.8928,4.9107,4.9286,4.9183,4.8959,4.8711,4.8344,4.8052,4.7809,4.7797,4.7481,4.6784,4.6275,4.6058,4.6034,4.5466,4.5494,4.6034,4.6142,4.6274,4.6433,4.6459,4.6402,4.6229,4.6382,4.6536,4.6643,4.6955,4.7246,4.735,4.7333,4.7278,4.7485,4.8437,4.887,4.8609,4.8759,4.8939,4.8811,4.8548,4.8373,4.8344,4.8315,4.8032,4.7643,4.7821,4.7762,4.751,4.7091,4.7022,4.7406,4.6755,4.6221,4.6036,4.5438,4.5121,4.5354,4.511,4.4539,4.3833,4.2917,4.2102,4.1434,4.0766,4.0312,4.0084,3.9593,3.8946,3.8283,3.7616,3.718,3.6457,3.5831,3.5709,3.5399,3.4948,3.4535,3.4231,3.3566,3.2745,3.1397,3.0036,2.8977,2.788,2.7776,2.7557,2.7363,2.725,2.7216,2.7447,2.7302,2.7288,2.7187,2.7089,2.6941,3.6075,3.703,3.7679,3.8671,3.9832,4.0495,4.1081,4.1715,4.2437,4.2852,4.3226,4.4609,4.5191,4.4982,4.6461,4.7266,4.759,4.8195,4.8755,4.919,4.9288,4.9314,4.9286,4.9198,4.8994,4.8378,4.7988,4.7626,4.7393,4.7444,4.7268,4.7066,4.662,4.6541,4.6727,4.6247,4.6142,4.6673,4.6779,4.6889,4.7079,4.7079,4.7,4.6867,4.7028,4.7134,4.7402,4.7616,4.7637,4.7518,4.7299,4.7287,4.7649,4.7889,4.8315,4.8511,4.8824,4.9001,4.9102,4.8764,4.8595,4.8784,4.8703,4.8344,4.812,4.8015,4.7742,4.7863,4.7447,4.7531,4.7873,4.7305,4.6785,4.6542,4.588,4.5439,4.558,4.497,4.4467,4.3828,4.312,4.228,4.1669,4.0997,4.0529,4.0182,3.9625,3.8946,3.8229,3.7528,3.6843,3.6219,3.5879,3.5806,3.5617,3.5184,3.4755,3.4433,3.353,3.2847,3.177,3.0242,2.9243,2.8388,2.8085,2.785,2.7752,2.7756,2.7958,2.8025,2.7795,2.7599,2.7499,2.7334,2.7167,3.7113,3.8324,3.8676,3.9528,4.0662,4.1102,4.1807,4.2556,4.2993,4.3425,4.4148,4.529,4.5602,4.5096,4.7028,4.7758,4.7459,4.839,4.8888,4.9215,4.9369,4.9435,4.9146,4.933,4.8982,4.8197,4.7547,4.7379,4.7341,4.703,4.7088,4.7421,4.7289,4.7243,4.7433,4.7166,4.7141,4.733,4.741,4.7386,4.739,4.7392,4.7369,4.7209,4.721,4.7456,4.7839,4.8001,4.789,4.7352,4.6918,4.7271,4.793,4.7129,4.7527,4.864,4.893,4.9162,4.9706,4.9213,4.9075,4.9566,4.9208,4.8774,4.8579,4.814,4.7969,4.8117,4.7438,4.7432,4.7662,4.7416,4.7091,4.6738,4.59,4.5386,4.5147,4.4656,4.4196,4.4063,4.3298,4.2706,4.2133,4.1458,4.0735,4.0487,3.9787,3.8946,3.8229,3.7528,3.6809,3.6118,3.6001,3.6001,3.5743,3.5436,3.4971,3.4524,3.3288,3.2434,3.1895,3.0685,2.9779,2.9067,2.8632,2.8461,2.8488,2.8612,2.8669,2.8473,2.8091,2.7961,2.7864,2.7633,2.7451,3.8356,3.9516,3.9603,4.053,4.1844,4.2114,4.2764,4.3769,4.4154,4.4342,4.4878,4.616,4.6424,4.5992,4.7421,4.817,4.8172,4.8471,4.854,4.883,4.9367,4.921,4.8896,4.9038,4.9102,4.8875,4.8298,4.8107,4.8227,4.8076,4.834,4.8722,4.8201,4.8129,4.8478,4.7966,4.7729,4.7959,4.7982,4.7863,4.7774,4.7837,4.7762,4.7417,4.7365,4.7367,4.7502,4.7742,4.7817,4.7768,4.7781,4.781,4.774,4.7786,4.8164,4.8621,4.8996,4.9391,5.0024,4.9583,4.9278,4.9842,4.9674,4.9428,4.8772,4.8866,4.8641,4.8332,4.7805,4.7479,4.7282,4.7227,4.7052,4.6607,4.5875,4.5208,4.4878,4.4299,4.3907,4.3659,4.3359,4.2935,4.2635,4.1826,4.1221,4.0782,3.9938,3.8988,3.825,3.7528,3.6876,3.6186,3.5933,3.5899,3.5728,3.5333,3.4749,3.4336,3.3255,3.2278,3.1722,3.1236,3.0356,2.9692,2.9136,2.908,2.9082,2.8938,2.8912,2.8633,2.8437,2.8272,2.8141,2.7928,2.76,3.9792,4.0759,4.0821,4.1501,4.2582,4.2697,4.3272,4.4125,4.4617,4.4886,4.5214,4.6344,4.6604,4.6436,4.7593,4.8357,4.8635,4.8858,4.8926,4.896,4.9116,4.9097,4.9112,4.8935,4.9063,4.9078,4.8703,4.8573,4.8605,4.8753,4.8868,4.9355,4.8911,4.8871,4.9157,4.8592,4.8354,4.8332,4.8328,4.8215,4.8064,4.8105,4.8112,4.7744,4.7644,4.762,4.802,4.7968,4.8093,4.8256,4.8437,4.8419,4.8161,4.8409,4.8771,4.9062,4.8941,4.9476,4.9972,4.9727,4.9365,4.9924,4.9648,4.921,4.8816,4.893,4.8754,4.8319,4.7995,4.7701,4.7251,4.7281,4.7182,4.6934,4.5969,4.5245,4.4874,4.4281,4.3734,4.3618,4.3461,4.3131,4.271,4.2059,4.1298,4.0736,3.9642,3.8714,3.825,3.7582,3.6978,3.6369,3.5947,3.5709,3.5606,3.5162,3.4439,3.3971,3.3292,3.247,3.1808,3.1374,3.0956,3.0285,2.9652,2.9589,2.9558,2.9365,2.922,2.921,2.9064,2.8715,2.8385,2.8123,2.7744,4.1206,4.2013,4.1895,4.2365,4.3032,4.3121,4.3542,4.4327,4.4798,4.5234,4.5535,4.6219,4.6639,4.6751,4.7716,4.8461,4.8978,4.9301,4.9401,4.9452,4.9306,4.9413,4.9568,4.9591,4.9384,4.8739,4.8761,4.8768,4.8779,4.8824,4.9148,4.9425,4.9353,4.9332,4.9327,4.9168,4.8863,4.8739,4.8781,4.8745,4.862,4.8659,4.8609,4.8405,4.8014,4.8155,4.8424,4.8407,4.8332,4.8714,4.889,4.8866,4.8895,4.9096,4.9354,4.9641,4.9185,4.9505,5.0113,4.9785,4.948,4.9985,4.943,4.894,4.8822,4.8921,4.8789,4.8447,4.8179,4.8063,4.7678,4.7577,4.7622,4.735,4.6216,4.5324,4.488,4.4251,4.3703,4.3537,4.3517,4.3415,4.2903,4.2293,4.1451,4.0601,3.9474,3.8603,3.8191,3.7636,3.7011,3.6539,3.6084,3.5709,3.5572,3.523,3.4474,3.3918,3.338,3.2662,3.1999,3.1583,3.1217,3.0688,3.0232,3.0135,2.9957,2.9724,2.9682,2.9808,2.9443,2.886,2.8513,2.8301,2.7871,4.2081,4.2863,4.2447,4.2798,4.3514,4.3513,4.3975,4.4823,4.5548,4.589,4.6069,4.6799,4.7084,4.7248,4.7917,4.8799,4.9411,4.9648,4.9786,5.001,5.0039,5.019,5.0198,5.0439,5.0506,5.0173,4.9723,4.9374,4.9304,4.9267,4.9551,4.978,4.9582,4.9473,4.9651,4.9502,4.9378,4.9351,4.946,4.9515,4.9509,4.9606,4.9568,4.917,4.8583,4.8606,4.8786,4.858,4.8475,4.8914,4.858,4.8658,4.9006,4.9496,4.9754,4.9836,4.9583,4.9708,5.0195,4.9875,4.9873,5.0137,4.99,4.9462,4.9292,4.9528,4.9367,4.8816,4.8592,4.8462,4.7704,4.7714,4.7485,4.7068,4.626,4.5196,4.4601,4.4001,4.3465,4.3346,4.3519,4.3575,4.3015,4.246,4.1813,4.0883,3.9751,3.8954,3.8483,3.7764,3.7011,3.6573,3.6219,3.5845,3.5538,3.5162,3.4646,3.4158,3.3568,3.2942,3.2348,3.1912,3.1426,3.0862,3.0539,3.0376,3.0181,2.9935,2.9786,2.9658,2.9298,2.8871,2.8625,2.8313,2.7852,4.3657,4.4339,4.3696,4.3882,4.4467,4.4106,4.4512,4.5486,4.5927,4.6231,4.661,4.7191,4.7433,4.7482,4.8013,4.8857,4.9507,4.9949,5.0147,5.045,5.0452,5.0645,5.0753,5.103,5.1147,5.1087,5.0753,5.0291,5.0082,5.0114,5.009,5.0078,5.0021,5.0219,5.0321,5.027,5.0107,5.0089,5.0095,5.0032,4.9919,5.0104,4.9925,4.9659,4.9363,4.9274,4.9348,4.9296,4.909,4.9012,4.8541,4.8697,4.9128,4.948,4.9746,5.002,4.983,4.9768,5.0053,4.9729,4.9562,4.9839,4.9711,4.9429,4.9393,4.9674,4.9828,4.9256,4.8922,4.8853,4.8314,4.8213,4.8045,4.7596,4.6611,4.5636,4.4896,4.4229,4.3705,4.3317,4.3307,4.3274,4.3028,4.2504,4.2111,4.1164,4.0027,3.9349,3.8825,3.7988,3.7159,3.6606,3.6219,3.5811,3.547,3.5162,3.4818,3.4365,3.3776,3.3151,3.2594,3.2123,3.1564,3.0948,3.073,3.0567,2.9997,2.9556,2.9531,2.9541,2.9231,2.8924,2.8668,2.8307,2.7815,4.5007,4.5667,4.4975,4.5133,4.5587,4.5142,4.5456,4.6316,4.6631,4.6844,4.7045,4.76,4.7708,4.7653,4.8291,4.9129,4.9886,5.0631,5.0877,5.1225,5.1376,5.1487,5.1698,5.1909,5.227,5.2852,5.2387,5.1722,5.0958,5.0937,5.0742,5.0601,5.0829,5.0988,5.0937,5.0966,5.0951,5.0819,5.063,5.038,5.0184,5.0102,5.0054,5.0028,4.9976,4.9897,5.0054,4.9845,4.9714,4.9401,4.8986,4.8816,4.9475,4.9558,4.9791,5.0182,4.9816,4.9674,4.9554,4.9358,4.9191,4.9573,4.9268,4.9172,4.9333,4.9689,4.9842,4.9481,4.9299,4.9191,4.8857,4.8774,4.8584,4.8135,4.7192,4.6206,4.5405,4.4713,4.4017,4.3634,4.3297,4.3076,4.2951,4.2647,4.2216,4.1677,4.0533,3.9736,3.9155,3.8219,3.7401,3.6734,3.6219,3.5743,3.5401,3.5162,3.4921,3.4627,3.3988,3.331,3.2823,3.2316,3.1684,3.1103,3.0853,3.0584,2.9907,2.9549,2.977,2.9799,2.9357,2.9013,2.8747,2.8323,2.7799,4.5434,4.6222,4.6085,4.6311,4.6752,4.6884,4.7185,4.7497,4.8079,4.8283,4.8014,4.809,4.8064,4.8193,4.8961,5.0413,5.1565,5.1922,5.2129,5.2685,5.3262,5.3576,5.3985,5.4831,5.4567,5.4671,5.4226,5.3106,5.2143,5.1846,5.1461,5.122,5.1229,5.1297,5.1363,5.1611,5.1651,5.1605,5.1414,5.1202,5.1033,5.0871,5.0755,5.0603,5.0315,5.0237,5.0577,5.0372,5.0132,5.0394,4.9632,4.9573,5.0187,5.068,5.0604,5.0297,4.9696,4.9065,4.9073,4.8912,4.9147,4.9502,4.937,4.9404,4.9655,4.9549,4.9606,4.9788,4.9609,4.9462,4.9223,4.8938,4.8685,4.8171,4.7462,4.6472,4.5667,4.5291,4.4563,4.3997,4.3684,4.332,4.3026,4.2696,4.2286,4.1757,4.1143,4.0363,3.944,3.8486,3.736,3.6604,3.6253,3.5811,3.5572,3.5299,3.5085,3.4894,3.4078,3.3436,3.2965,3.2439,3.1806,3.126,3.1029,3.0852,3.0461,3.0299,3.0335,3.0113,2.9794,2.9328,2.8866,2.839,2.7832,4.6508,4.7029,4.6746,4.7165,4.7866,4.7431,4.775,4.8526,4.8747,4.8825,4.8919,4.9109,4.9261,4.9451,5.0081,5.1285,5.2759,5.3205,5.3763,5.4296,5.4838,5.5095,5.513,5.5499,5.5767,5.6019,5.5631,5.5073,5.3972,5.2928,5.2178,5.1774,5.1976,5.2051,5.2001,5.2319,5.2493,5.2547,5.2516,5.2459,5.2314,5.1998,5.1753,5.1701,5.1152,5.1047,5.1073,5.1073,5.076,5.086,5.0315,5.0066,4.9789,4.9542,4.9313,4.9568,4.9106,4.9085,4.9531,4.9033,4.9399,4.9969,4.9969,4.9889,5.0265,4.995,4.9753,5.0223,4.9824,4.9632,4.9576,4.9238,4.8878,4.8335,4.7701,4.7061,4.6279,4.5747,4.5232,4.4659,4.4052,4.3668,4.3213,4.2838,4.2526,4.2189,4.1615,4.0893,3.9866,3.876,3.7499,3.6225,3.6103,3.5967,3.5777,3.5592,3.5394,3.5048,3.3941,3.3368,3.302,3.2526,3.1822,3.1524,3.1383,3.1206,3.1029,3.0797,3.0548,3.0416,3.025,2.9796,2.9293,2.851,2.7934,4.7293,4.773,4.7605,4.8105,4.8924,4.8239,4.8692,4.9621,4.9605,4.9672,4.9911,5.0229,5.0521,5.0877,5.1218,5.2176,5.3746,5.4245,5.4951,5.5478,5.5956,5.6042,5.625,5.6311,5.6875,5.7032,5.6831,5.6613,5.6108,5.5125,5.3958,5.2616,5.3255,5.3278,5.3112,5.3284,5.3494,5.3048,5.3268,5.3244,5.3081,5.2839,5.2746,5.2537,5.2197,5.1831,5.1805,5.1596,5.1309,5.0987,5.0903,5.0545,4.9935,4.9513,4.9235,4.9358,4.9135,4.9412,4.9714,4.9629,4.9853,5.0345,5.0712,5.0426,5.0632,5.0292,4.9881,5.0194,4.9893,4.9783,4.9783,4.9404,4.899,4.851,4.7994,4.7473,4.6941,4.6365,4.5657,4.4879,4.4312,4.3946,4.3545,4.3036,4.2757,4.2535,4.2021,4.136,4.0222,3.9005,3.797,3.6725,3.6346,3.6312,3.6154,3.5962,3.5749,3.5223,3.4163,3.3443,3.3198,3.2525,3.1717,3.1559,3.1612,3.1489,3.1277,3.101,3.0781,3.0839,3.0775,3.0314,2.9722,2.8882,2.7934,4.7493,4.8291,4.9,4.9332,4.9528,5.0659,5.0869,5.0675,5.0985,5.1097,5.1145,5.1306,5.1415,5.1803,5.2266,5.3169,5.4737,5.424,5.5178,5.6021,5.6527,5.7134,5.7579,5.8297,5.8875,5.8915,5.844,5.8278,5.8275,5.7703,5.6209,5.4789,5.4895,5.494,5.4749,5.4602,5.432,5.3914,5.3918,5.3647,5.3433,5.3276,5.3354,5.3217,5.2798,5.2433,5.2406,5.1931,5.1466,5.1085,5.0942,5.0707,5.0107,4.9816,4.96,4.9433,4.9481,4.9677,4.9852,4.9663,4.9915,5.0471,5.0877,5.0773,5.0626,5.0359,5.0072,4.9879,4.9654,4.959,4.9525,4.9267,4.878,4.8477,4.796,4.7464,4.7032,4.6831,4.609,4.5187,4.456,4.4112,4.3593,4.3048,4.2518,4.2271,4.1968,4.1292,4.0319,3.9208,3.8502,3.7599,3.6969,3.6723,3.6621,3.6355,3.596,3.5461,3.4658,3.3999,3.3554,3.2736,3.1873,3.1751,3.1768,3.1681,3.1559,3.1312,3.1241,3.1453,3.1282,3.073,2.9841,2.8813,2.7848,4.8153,4.8749,4.9578,4.9931,4.997,5.0455,5.0866,5.1099,5.106,5.1229,5.1473,5.1709,5.2137,5.2726,5.3337,5.4399,5.5926,5.6376,5.7132,5.8056,5.8734,5.9173,5.9747,6.0075,6.0535,6.0479,5.9997,5.9647,5.9638,5.9502,5.8716,5.7557,5.6893,5.6014,5.5772,5.5778,5.5503,5.5416,5.5237,5.5101,5.4577,5.4223,5.4098,5.3844,5.3347,5.2851,5.2505,5.2085,5.1615,5.1186,5.076,5.0359,4.9971,4.9761,4.9539,4.9368,4.9437,4.9626,4.9711,4.942,4.9477,5.0085,5.0632,5.0899,5.0455,5.0327,5.02,4.9944,4.9525,4.9429,4.9525,4.891,4.8289,4.8182,4.7861,4.7364,4.7032,4.6831,4.6261,4.521,4.4629,4.4169,4.3593,4.3014,4.2454,4.1983,4.1658,4.1234,4.028,3.954,3.8864,3.8125,3.7468,3.6964,3.6806,3.6447,3.6089,3.5603,3.5117,3.4558,3.3947,3.3054,3.2346,3.2188,3.1873,3.1681,3.1595,3.1595,3.1595,3.1595,3.1386,3.1023,2.996,2.8811,2.7926,4.871,4.9184,5.0009,5.0322,5.0244,5.0572,5.0983,5.1315,5.1254,5.1407,5.1893,5.2488,5.3156,5.3877,5.4733,5.5872,5.7171,5.7899,5.9052,5.9789,6.0348,6.089,6.1371,6.1693,6.1773,6.1808,6.1891,6.1621,6.1044,6.1001,6.0508,5.9845,5.9165,5.8294,5.7184,5.6921,5.6977,5.6912,5.6643,5.6511,5.5922,5.5314,5.4899,5.4557,5.402,5.353,5.3042,5.262,5.1948,5.1319,5.071,5.0104,4.9583,4.9203,4.9076,4.9108,4.926,4.9451,4.9431,4.9371,4.9384,4.9919,5.0527,5.0569,5.0455,5.0359,5.0168,4.9912,4.9493,4.9299,4.9429,4.878,4.8223,4.8149,4.7795,4.7331,4.6965,4.6697,4.5991,4.521,4.4732,4.4238,4.3302,4.2686,4.2124,4.1686,4.1395,4.0977,4.0335,3.9704,3.9267,3.8541,3.7764,3.7328,3.6964,3.6538,3.6143,3.5924,3.5431,3.4994,3.4342,3.3463,3.2664,3.2243,3.191,3.1682,3.1524,3.1418,3.1489,3.1595,3.1386,3.1178,3.0196,2.911,2.8269,4.9105,4.9578,5.04,5.0555,5.0377,5.1462,5.1716,5.147,5.1786,5.2233,5.2829,5.3943,5.4746,5.5324,5.6315,5.7585,5.8595,5.8999,5.9899,6.1184,6.1451,6.1693,6.2239,6.2705,6.31,6.3125,6.3306,6.3219,6.2566,6.3022,6.2683,6.1985,6.1394,6.0671,5.9372,5.8893,5.8415,5.7897,5.7357,5.7104,5.6771,5.6113,5.5729,5.5241,5.476,5.4288,5.3753,5.3179,5.2446,5.1627,5.1168,5.0558,4.9913,4.978,4.9698,4.9687,4.9622,4.9758,4.9938,4.981,4.9674,4.9726,5.0186,5.041,5.0436,5.027,4.9976,4.9622,4.9332,4.9202,4.904,4.8706,4.8215,4.7927,4.7597,4.7327,4.6983,4.6685,4.6088,4.5268,4.4822,4.4319,4.3211,4.2321,4.1756,4.1366,4.1096,4.0698,4.0244,3.9932,3.9565,3.893,3.8147,3.7641,3.7186,3.6607,3.622,3.6035,3.5723,3.5248,3.4667,3.3839,3.309,3.2367,3.1891,3.1553,3.1397,3.1241,3.1363,3.152,3.1576,3.1282,3.0298,2.9443,2.8648,4.9578,5.0009,5.0555,5.0711,5.0711,5.1292,5.1508,5.1516,5.1931,5.258,5.3389,5.4414,5.5545,5.6571,5.7823,5.9142,6.028,6.0585,6.1451,6.2883,6.2768,6.337,6.3983,6.4365,6.4581,6.4789,6.5025,6.4991,6.4509,6.4712,6.415,6.341,6.2652,6.1692,6.0394,5.964,5.9131,5.8829,5.838,5.7962,5.759,5.6987,5.6393,5.5883,5.5453,5.4987,5.4405,5.373,5.3005,5.2221,5.1783,5.1259,5.0794,5.0677,5.0567,5.0406,5.028,4.9773,4.9474,4.9128,4.9134,4.9381,4.9761,4.9939,4.9552,4.9728,4.954,4.9202,4.878,4.8584,4.8256,4.7819,4.7488,4.7563,4.7403,4.725,4.6998,4.68,4.6322,4.5367,4.4721,4.363,4.2526,4.2025,4.1508,4.1081,4.0811,4.0638,4.0258,4.0146,3.989,3.9277,3.8585,3.8005,3.7439,3.6905,3.6349,3.6036,3.576,3.5413,3.4794,3.4144,3.3371,3.2588,3.2003,3.1437,3.1229,3.1109,3.1319,3.1462,3.1588,3.1313,3.038,2.9693,2.9096,5.0216,5.0664,5.1116,5.135,5.1483,5.1423,5.147,5.1654,5.2193,5.3069,5.4234,5.515,5.6501,5.8026,5.9301,6.0629,6.2006,6.2525,6.3253,6.4695,6.4636,6.529,6.5955,6.6222,6.635,6.6496,6.6498,6.6439,6.5833,6.5689,6.5173,6.4341,6.3372,6.2354,6.1292,6.0691,6.0065,5.9659,5.9078,5.8613,5.8115,5.7577,5.6972,5.6505,5.6058,5.5645,5.4998,5.4384,5.3833,5.307,5.2522,5.2085,5.1817,5.1448,5.1321,5.1092,5.0615,5.01,4.9647,4.9227,4.9215,4.8932,4.9386,4.94,4.9014,4.9113,4.9196,4.8843,4.8223,4.8172,4.8079,4.758,4.7595,4.7728,4.7499,4.7366,4.6716,4.6492,4.5886,4.4975,4.4232,4.303,4.2054,4.1657,4.1295,4.0903,4.0489,4.0356,4.0241,4.0153,4.0008,3.941,3.8879,3.8312,3.7757,3.7183,3.6645,3.6091,3.5705,3.5339,3.501,3.4393,3.3597,3.2752,3.2081,3.1431,3.1059,3.1007,3.1517,3.1752,3.1776,3.1255,3.0426,2.9928,2.9481,5.1061,5.1525,5.1986,5.237,5.2573,5.1901,5.1778,5.2132,5.2635,5.381,5.5482,5.6406,5.7803,5.9652,6.0687,6.1977,6.3379,6.4345,6.5269,6.6127,6.6358,6.7145,6.7551,6.7792,6.7589,6.7847,6.7881,6.7407,6.6821,6.6314,6.5802,6.4998,6.3647,6.2739,6.205,6.1545,6.0827,6.0123,5.9418,5.8998,5.857,5.789,5.7472,5.7082,5.6703,5.6288,5.5788,5.5356,5.4821,5.4154,5.3507,5.3036,5.2531,5.185,5.1748,5.1478,5.0927,5.0592,5.0193,4.9766,4.9264,4.8919,4.8843,4.9008,4.897,4.8753,4.865,4.8664,4.8346,4.849,4.8534,4.8439,4.832,4.8118,4.7814,4.7244,4.6351,4.5759,4.5096,4.4383,4.3817,4.2905,4.2025,4.1544,4.1046,4.0694,4.0381,4.0323,4.0184,4.0041,3.9821,3.9436,3.8936,3.8545,3.7967,3.7239,3.6626,3.5981,3.552,3.5133,3.486,3.4497,3.3624,3.2797,3.2057,3.1579,3.1532,3.1708,3.205,3.2164,3.2011,3.1317,3.0503,3.0321,2.9942,5.1229,5.1847,5.2001,5.231,5.2608,5.2682,5.2938,5.3407,5.3634,5.4673,5.6415,5.6958,5.868,6.0857,6.1995,6.3421,6.4645,6.5659,6.6386,6.7057,6.7641,6.787,6.8149,6.8392,6.8254,6.828,6.8311,6.8132,6.7354,6.6742,6.5694,6.484,6.3607,6.2771,6.223,6.187,6.1073,6.0288,5.9478,5.9189,5.8911,5.8359,5.7957,5.7538,5.732,5.6851,5.6269,5.6017,5.5462,5.4863,5.4606,5.4398,5.4322,5.3523,5.2932,5.2043,5.1581,5.1142,5.0527,5.0268,4.9816,4.9088,4.8843,4.8818,4.8723,4.8448,4.8229,4.8322,4.8149,4.811,4.8257,4.83,4.8348,4.8253,4.783,4.7151,4.6311,4.5633,4.4942,4.4175,4.3573,4.2581,4.1771,4.1274,4.0796,4.0484,4.025,4.0151,4.0082,3.9917,3.979,3.9437,3.8888,3.8456,3.7687,3.6942,3.6405,3.5889,3.539,3.4964,3.4636,3.4199,3.3505,3.2873,3.2196,3.2117,3.2282,3.2446,3.251,3.2374,3.2168,3.137,3.0719,3.052,3.0352,5.1793,5.2495,5.2557,5.2902,5.3476,5.4237,5.4758,5.4969,5.5023,5.5935,5.7323,5.8121,5.9782,6.2017,6.3272,6.4735,6.6688,6.7597,6.8293,6.8686,6.8742,6.9441,6.9593,6.9372,6.9356,6.914,6.8631,6.8258,6.744,6.6056,6.4907,6.419,6.3185,6.2465,6.1789,6.1282,6.0616,5.9977,5.9447,5.9228,5.8982,5.87,5.8226,5.7841,5.7692,5.7106,5.6496,5.6374,5.5913,5.5568,5.5517,5.5304,5.5101,5.4274,5.3451,5.2639,5.2312,5.1867,5.1247,5.0619,5.0027,4.9418,4.8974,4.8778,4.8522,4.8211,4.815,4.8134,4.7696,4.7456,4.77,4.7967,4.8096,4.8256,4.7689,4.7086,4.6391,4.5718,4.4932,4.4153,4.3219,4.2223,4.1487,4.0989,4.0453,3.9991,3.9698,3.9572,3.9618,3.9689,3.9693,3.9582,3.8914,3.8271,3.7483,3.6738,3.622,3.5777,3.535,3.4906,3.4484,3.4152,3.3707,3.3068,3.2399,3.2483,3.2679,3.2783,3.2845,3.2655,3.2365,3.1655,3.1021,3.0615,3.0496,5.2634,5.3433,5.348,5.3947,5.4841,5.6004,5.656,5.6663,5.6871,5.7379,5.836,5.9578,6.127,6.3125,6.4351,6.6057,6.78,6.904,6.9583,7.05,7.0646,7.1028,7.1044,7.1132,7.0249,6.9931,6.9212,6.8002,6.7018,6.5488,6.3923,6.3302,6.2652,6.1951,6.1367,6.0866,6.0258,5.9616,5.9403,5.9263,5.8947,5.8629,5.8248,5.7901,5.758,5.7169,5.6772,5.6496,5.6219,5.6163,5.6031,5.5679,5.5173,5.4828,5.4012,5.336,5.3048,5.2587,5.1975,5.1297,5.0472,4.9831,4.9289,4.8856,4.8483,4.8179,4.8149,4.8044,4.772,4.7686,4.793,4.7943,4.799,4.8025,4.7691,4.7189,4.6649,4.5637,4.4317,4.349,4.2534,4.1594,4.1239,4.074,4.0182,3.9574,3.9162,3.9087,3.909,3.9295,3.9299,3.9338,3.8519,3.7784,3.7334,3.6644,3.6107,3.5644,3.516,3.4861,3.4454,3.4192,3.3963,3.3433,3.2888,3.2871,3.296,3.3119,3.3174,3.2963,3.2585,3.1923,3.1356,3.0916,3.0576,5.3327,5.3712,5.4052,5.4722,5.5639,5.6276,5.7375,5.8656,5.9309,5.9349,5.9313,6.0397,6.2007,6.3926,6.5343,6.7006,6.8618,7.0111,7.0363,7.0865,7.1387,7.1816,7.1545,7.1202,7.0584,6.9783,6.8806,6.7303,6.5587,6.41,6.3022,6.2555,6.2078,6.164,6.1087,6.0628,6.0141,5.9449,5.9123,5.8982,5.8664,5.8284,5.7927,5.7784,5.7523,5.7163,5.6837,5.6692,5.6438,5.6289,5.6202,5.5825,5.5358,5.5467,5.5042,5.4341,5.3698,5.3227,5.2669,5.1899,5.1072,5.024,4.9594,4.8986,4.8534,4.8286,4.8115,4.7995,4.7958,4.8016,4.7964,4.7861,4.7817,4.777,4.7667,4.7206,4.6751,4.5279,4.3779,4.2769,4.1813,4.131,4.0954,4.0433,3.993,3.9425,3.8938,3.8694,3.8599,3.8649,3.8538,3.8443,3.7687,3.707,3.6715,3.6268,3.5583,3.5174,3.4689,3.4481,3.4403,3.4142,3.3881,3.3823,3.3566,3.3405,3.3351,3.3549,3.3549,3.3317,3.2875,3.2248,3.1766,3.134,3.0916,5.3746,5.4085,5.4309,5.5075,5.6103,5.685,5.8089,5.9614,6.0887,6.1178,6.0852,6.1566,6.2927,6.4829,6.6258,6.8197,6.9797,7.1143,7.1848,7.2149,7.2057,7.2395,7.2105,7.1366,7.0576,6.9724,6.7777,6.5958,6.413,6.3013,6.2251,6.2031,6.1767,6.1305,6.0849,6.0681,6.0263,5.951,5.899,5.8549,5.83,5.8025,5.7641,5.7498,5.7199,5.691,5.6692,5.6547,5.6438,5.613,5.5979,5.5897,5.557,5.5458,5.511,5.4605,5.4113,5.3757,5.3173,5.2463,5.1644,5.0845,4.976,4.9108,4.8936,4.8682,4.8093,4.796,4.7729,4.7714,4.7361,4.7143,4.738,4.7434,4.7026,4.6527,4.5796,4.4683,4.3439,4.2428,4.1629,4.1132,4.0668,3.9986,3.9445,3.9011,3.8574,3.8347,3.8266,3.799,3.7856,3.7586,3.6909,3.6261,3.5802,3.5392,3.4852,3.4478,3.429,3.4328,3.4328,3.4026,3.3799,3.3782,3.3782,3.3727,3.3782,3.3799,3.3799,3.3621,3.314,3.2574,3.2161,3.1679,3.1112,5.4195,5.4533,5.4644,5.5359,5.6576,5.765,5.8844,6.0233,6.1812,6.263,6.2678,6.2858,6.4321,6.5869,6.7396,6.9677,7.1381,7.2223,7.3055,7.352,7.344,7.3233,7.2547,7.1634,7.0222,6.8437,6.6492,6.477,6.3122,6.2298,6.189,6.18,6.1387,6.0845,6.0814,6.0603,6.0138,5.95,5.8918,5.8206,5.7959,5.7836,5.7379,5.7019,5.6805,5.6648,5.6429,5.642,5.642,5.6294,5.6107,5.5806,5.5594,5.5363,5.4952,5.4558,5.4428,5.4003,5.3508,5.2745,5.2104,5.1321,5.0127,4.9534,4.9411,4.8926,4.8335,4.7901,4.7669,4.7283,4.6874,4.657,4.6827,4.6912,4.6362,4.5817,4.4941,4.4066,4.3063,4.2025,4.136,4.0847,4.0238,3.9538,3.9067,3.8611,3.8269,3.8076,3.7802,3.7369,3.7096,3.68,3.6228,3.5645,3.5215,3.4659,3.4239,3.4215,3.4139,3.4252,3.4252,3.3988,3.3799,3.3799,3.3799,3.3799,3.3799,3.3799,3.3799,3.3799,3.3532,3.3014,3.2416,3.1896,3.1274,5.5097,5.5435,5.5819,5.6464,5.7274,5.8505,5.9818,6.1073,6.2183,6.3091,6.3961,6.4623,6.5671,6.7175,6.8838,7.0684,7.22,7.3028,7.3748,7.4321,7.3796,7.3592,7.2612,7.0598,6.8734,6.679,6.4963,6.3532,6.2576,6.1963,6.1248,6.0725,6.1335,6.101,6.0694,6.0527,6.0514,5.9893,5.9144,5.8456,5.7965,5.7629,5.7044,5.6844,5.6903,5.6907,5.6935,5.7349,5.7499,5.7399,5.6848,5.6064,5.5544,5.5224,5.4915,5.463,5.4498,5.4122,5.3559,5.3207,5.2685,5.1846,5.0829,5.0346,4.9983,4.9233,4.8673,4.8106,4.7728,4.7088,4.6642,4.6144,4.6123,4.6127,4.5852,4.5114,4.4329,4.3457,4.2536,4.1527,4.0647,4.0166,3.9646,3.9103,3.8776,3.8338,3.7843,3.7629,3.7446,3.6952,3.6426,3.6068,3.5725,3.5578,3.5386,3.4359,3.3911,3.3915,3.3912,3.3912,3.3912,3.3912,3.3799,3.3799,3.3799,3.3799,3.3799,3.3799,3.3799,3.3799,3.3799,3.3477,3.2838,3.2237,3.1666]},{"header":{"parameterUnit":"m.s-1","parameterCategory":1,"la1":31.0,"la2":29.5877,"lo1":-88.7671,"lo2":-86.6584,"dy":0.0162,"dx":0.0185,"nx":115,"ny":88,"refTime":"2023-11-03T12:00:00:Z","depth":0,"parameterNumber":3,"parameterNumberName":"V-component_of_WINDS"},"data":[0.0,0.0,0.0,0.0,0.0,0.0,0.0,0.0,0.0,0.0,0.0,0.0,0.0,0.0,0.0,0.0,0.0,0.0,0.0,0.0,0.0,0.0,0.0,0.0,0.0,0.0,0.0,0.0,0.0,0.0,0.0,0.0,0.0,0.0,0.0,0.0,0.0,0.0,0.0,0.0,0.0,0.0,0.0,0.0,0.0,0.0,0.0,0.0,0.0,0.0,0.0,0.0,0.0,0.0,0.0,0.0,0.0,0.0,0.0,0.0,0.0,0.0,0.0,0.0,0.0,0.0,0.0,0.0,0.0,0.0,0.0,0.0,0.0,0.0,0.0,0.0,0.0,0.0,0.0,0.0,0.0,0.0,0.0,0.0,0.0,0.0,0.0,0.0,0.0,0.0,0.0,0.0,0.0,0.0,0.0,0.0,0.0,0.0,0.0,0.0,0.0,0.0,0.0,0.0,0.0,0.0,0.0,0.0,0.0,0.0,0.0,0.0,0.0,0.0,0.0,0.0,0.0,0.0,0.0,0.0,0.0,0.0,0.0,0.0,0.0,0.0,0.0,0.0,0.0,0.0,0.0,0.0,0.0,0.0,0.0,0.0,0.0,0.0,0.0,0.0,0.0,0.0,0.0,0.0,0.0,0.0,0.0,0.0,0.0,0.0,0.0,0.0,0.0,0.0,0.0,0.0,0.0,0.0,0.0,0.0,0.0,0.0,0.0,0.0,0.0,0.0,0.0,0.0,0.0,0.0,0.0,0.0,0.0,0.0,0.0,0.0,0.0,0.0,0.0,0.0,0.0,0.0,0.0,0.0,0.0,0.0,0.0,0.0,0.0,0.0,0.0,0.0,0.0,0.0,0.0,0.0,0.0,0.0,0.0,0.0,0.0,0.0,0.0,0.0,0.0,0.0,0.0,0.0,0.0,0.0,0.0,0.0,0.0,0.0,0.0,0.0,0.0,0.0,0.0,0.0,0.0,0.0,0.0,0.0,0.0,0.0,0.0,0.0,0.0,0.0,0.0,0.0,0.0,0.0,0.0,0.0,0.0,0.0,0.0,0.0,0.0,0.0,0.0,0.0,0.0,0.0,0.0,0.0,0.0,0.0,0.0,0.0,0.0,0.0,0.0,0.0,0.0,0.0,0.0,0.0,0.0,0.0,0.0,0.0,0.0,0.0,0.0,0.0,0.0,0.0,0.0,0.0,0.0,0.0,0.0,0.0,0.0,0.0,0.0,0.0,0.0,0.0,0.0,0.0,0.0,0.0,0.0,0.0,0.0,0.0,0.0,0.0,0.0,0.0,0.0,0.0,0.0,0.0,0.0,0.0,0.0,0.0,0.0,0.0,0.0,0.0,0.0,0.0,0.0,0.0,0.0,0.0,0.0,0.0,0.0,0.0,0.0,0.0,0.0,0.0,0.0,0.0,0.0,0.0,0.0,0.0,0.0,0.0,0.0,0.0,0.0,0.0,0.0,0.0,0.0,0.0,0.0,0.0,0.0,0.0,0.0,0.0,0.0,0.0,0.0,0.0,0.0,0.0,0.0,0.0,0.0,0.0,0.0,0.0,0.0,0.0,0.0,0.0,0.0,0.0,0.0,0.0,0.0,0.0,0.0,0.0,0.0,0.0,0.0,0.0,0.0,0.0,0.0,0.0,0.0,0.0,0.0,0.0,0.0,0.0,0.0,0.0,0.0,0.0,0.0,0.0,0.0,0.0,0.0,0.0,0.0,0.0,0.0,0.0,0.0,0.0,0.0,0.0,0.0,0.0,0.0,0.0,0.0,0.0,0.0,0.0,0.0,0.0,0.0,0.0,0.0,0.0,0.0,0.0,0.0,0.0,0.0,0.0,0.0,0.0,0.0,0.0,0.0,0.0,0.0,0.0,0.0,0.0,0.0,0.0,0.0,0.0,0.0,0.0,0.0,0.0,0.0,0.0,0.0,0.0,0.0,0.0,0.0,0.0,0.0,0.0,0.0,0.0,0.0,0.0,0.0,0.0,0.0,0.0,0.0,0.0,0.0,0.0,0.0,0.0,0.0,0.0,0.0,0.0,0.0,0.0,0.0,0.0,0.0,0.0,0.0,0.0,0.0,0.0,0.0,0.0,0.0,0.0,0.0,0.0,0.0,0.0,0.0,0.0,0.0,0.0,0.0,0.0,0.0,0.0,0.0,0.0,0.0,0.0,0.0,0.0,0.0,0.0,0.0,0.0,0.0,0.0,0.0,0.0,0.0,0.0,0.0,0.0,0.0,0.0,0.0,0.0,0.0,0.0,0.0,0.0,0.0,0.0,0.0,0.0,0.0,0.0,0.0,0.0,0.0,0.0,0.0,0.0,0.0,0.0,0.0,0.0,0.0,0.0,0.0,0.0,0.0,0.0,0.0,0.0,0.0,0.0,0.0,0.0,0.0,0.0,0.0,0.0,0.0,0.0,0.0,0.0,0.0,0.0,0.0,0.0,0.0,0.0,0.0,0.0,0.0,0.0,0.0,0.0,0.0,0.0,0.0,0.0,0.0,0.0,0.0,0.0,0.0,0.0,0.0,0.0,0.0,0.0,0.0,0.0,0.0,0.0,0.0,0.0,0.0,0.0,0.0,0.0,0.0,0.0,0.0,0.0,0.0,0.0,0.0,0.0,0.0,0.0,0.0,0.0,0.0,0.0,0.0,0.0,0.0,0.0,0.0,0.0,0.0,0.0,0.0,0.0,0.0,0.0,0.0,0.0,0.0,0.0,0.0,0.0,0.0,0.0,0.0,0.0,0.0,0.0,0.0,0.0,0.0,0.0,0.0,0.0,0.0,0.0,0.0,0.0,0.0,0.0,0.0,0.0,0.0,0.0,0.0,0.0,0.0,0.0,0.0,0.0,0.0,0.0,0.0,0.0,0.0,0.0,0.0,0.0,0.0,0.0,0.0,0.0,0.0,0.0,0.0,0.0,0.0,0.0,0.0,0.0,0.0,0.0,0.0,0.0,0.0,0.0,0.0,0.0,0.0,0.0,0.0,0.0,0.0,0.0,0.0,0.0,0.0,0.0,0.0,0.0,0.0,0.0,0.0,0.0,0.0,0.0,0.0,0.0,0.0,0.0,0.0,0.0,0.0,0.0,0.0,0.0,0.0,0.0,0.0,0.0,0.0,0.0,0.0,0.0,0.0,0.0,0.0,0.0,0.0,0.0,0.0,0.0,0.0,0.0,0.0,0.0,0.0,0.0,0.0,0.0,0.0,0.0,0.0,0.0,0.0,0.0,0.0,0.0,0.0,0.0,0.0,0.0,0.0,0.0,0.0,0.0,0.0,0.0,0.0,0.0,0.0,0.0,0.0,0.0,0.0,0.0,0.0,0.0,0.0,0.0,0.0,0.0,0.0,0.0,0.0,0.0,0.0,0.0,0.0,0.0,0.0,0.0,0.0,0.0,0.0,0.0,0.0,0.0,0.0,0.0,0.0,0.0,0.0,0.0,0.0,0.0,0.0,0.0,0.0,0.0,0.0,0.0,0.0,0.0,0.0,0.0,0.0,0.0,0.0,0.0,0.0,0.0,0.0,0.0,0.0,0.0,0.0,0.0,0.0,0.0,0.0,0.0,0.0,0.0,0.0,0.0,0.0,0.0,0.0,0.0,0.0,0.0,0.0,0.0,0.0,0.0,0.0,0.0,0.0,0.0,0.0,0.0,0.0,0.0,0.0,0.0,0.0,0.0,0.0,0.0,0.0,0.0,0.0,0.0,0.0,0.0,0.0,0.0,0.0,0.0,0.0,0.0,0.0,0.0,0.0,0.0,0.0,0.0,0.0,0.0,0.0,0.0,0.0,0.0,0.0,0.0,0.0,0.0,0.0,0.0,0.0,0.0,0.0,0.0,0.0,0.0,0.0,0.0,0.0,0.0,0.0,0.0,0.0,0.0,0.0,0.0,0.0,0.0,0.0,0.0,0.0,0.0,0.0,0.0,0.0,0.0,0.0,0.0,0.0,0.0,0.0,0.0,0.0,0.0,0.0,0.0,0.0,0.0,0.0,0.0,0.0,0.0,0.0,0.0,0.0,0.0,0.0,0.0,0.0,0.0,0.0,0.0,0.0,0.0,0.0,0.0,0.0,0.0,0.0,0.0,0.0,0.0,0.0,0.0,0.0,0.0,0.0,0.0,0.0,0.0,0.0,0.0,0.0,0.0,0.0,0.0,0.0,0.0,0.0,0.0,0.0,0.0,0.0,0.0,0.0,0.0,0.0,0.0,0.0,0.0,0.0,0.0,0.0,0.0,0.0,0.0,0.0,0.0,1.3525,0.0,0.0,0.0,0.0,0.0,0.0,0.0,0.0,0.0,0.0,0.0,0.0,0.0,0.0,0.0,0.0,0.0,0.0,0.0,0.0,0.0,0.0,0.0,0.0,0.0,0.0,0.0,0.0,0.0,0.0,0.0,0.0,0.0,0.0,0.0,0.0,0.0,0.0,0.0,0.0,0.0,0.0,0.0,0.0,0.0,0.0,0.0,0.0,0.0,0.0,0.0,0.0,0.0,0.0,0.0,0.0,0.0,0.0,0.0,0.0,0.0,0.0,0.0,0.0,0.0,0.0,0.0,0.0,0.0,0.0,0.0,0.0,0.0,0.0,0.0,0.0,0.0,0.0,0.0,0.0,0.0,0.0,0.0,0.0,0.0,0.0,0.0,0.0,0.0,0.0,0.0,0.0,0.0,0.0,0.0,0.0,0.0,0.0,0.0,0.0,0.0,0.0,0.0,0.0,0.0,0.0,0.0,0.0,0.0,0.0,1.6955,1.5995,1.5576,1.5129,1.4584,0.0,0.0,0.0,0.0,0.0,0.0,0.0,0.0,0.0,0.0,0.0,0.0,0.0,0.0,0.0,0.0,0.0,0.0,0.0,0.0,0.0,0.0,0.0,0.0,0.0,0.0,0.0,0.0,0.0,0.0,0.0,0.0,0.0,0.0,0.0,0.0,0.0,0.0,0.0,0.0,0.0,0.0,0.0,0.0,0.0,0.0,0.0,0.0,0.0,0.0,0.0,0.0,0.0,0.0,0.0,0.0,0.0,0.0,0.0,0.0,0.0,0.0,0.0,0.0,0.0,0.0,0.0,0.0,0.0,0.0,0.0,0.0,0.0,0.0,0.0,0.0,0.0,0.0,0.0,0.0,0.0,0.0,0.0,0.0,0.0,0.0,0.0,0.0,0.0,0.0,0.0,0.0,0.0,0.0,0.0,0.0,0.0,0.0,0.0,0.0,0.0,0.0,0.0,0.0,0.0,0.0,0.0,0.0,0.0,0.0,0.0,0.0,1.6266,1.5826,1.5422,0.0,0.0,0.0,0.0,0.0,0.0,0.0,0.0,0.0,0.0,0.0,0.0,0.0,0.0,0.0,0.0,0.0,0.0,0.0,0.0,0.0,0.0,0.0,0.0,0.0,0.0,0.0,0.0,0.0,0.0,0.0,0.0,0.0,0.0,0.0,0.0,0.0,0.0,0.0,0.0,0.0,0.0,0.0,0.0,0.0,0.0,0.0,0.0,0.0,0.0,0.0,0.0,0.0,0.0,0.0,0.0,0.0,0.0,0.0,0.0,0.0,0.0,0.0,0.0,0.0,0.0,0.0,0.0,0.0,0.0,0.0,0.0,0.0,0.0,0.0,0.0,0.0,0.0,0.0,0.0,0.0,0.0,0.0,0.0,0.0,0.0,0.0,0.0,0.0,0.0,0.0,0.0,0.0,0.0,0.0,0.0,0.0,0.0,0.0,0.0,0.0,0.0,0.0,0.0,0.0,0.0,0.0,0.0,0.0,0.0,1.6904,1.6951,1.6801,0.0,1.5507,0.0,0.0,0.0,0.0,0.0,0.0,0.0,0.0,0.0,0.0,0.0,0.0,0.0,0.0,0.0,0.0,0.0,0.0,0.0,0.0,0.0,0.0,0.0,0.0,0.0,0.0,0.0,0.0,0.0,0.0,0.0,0.0,0.0,0.0,0.0,0.0,0.0,0.0,0.0,0.0,0.0,0.0,0.0,0.0,0.0,0.0,0.0,0.0,0.0,0.0,0.0,0.0,0.0,0.0,0.0,0.0,0.0,0.0,0.0,0.0,0.0,0.0,0.0,0.0,0.0,0.0,0.0,0.0,0.0,0.0,0.0,0.0,0.0,0.0,0.0,0.0,0.0,0.0,0.0,0.0,0.0,0.0,0.0,0.0,0.0,0.0,0.0,0.0,0.0,0.0,0.0,0.0,0.0,0.0,0.0,0.0,0.0,0.0,0.0,0.0,0.0,0.0,0.0,0.0,0.0,0.0,0.0,0.0,0.0,0.0,1.7444,1.7416,1.7094,1.649,0.0,0.0,0.0,0.0,0.0,0.0,0.0,0.0,0.0,0.0,0.0,0.0,0.0,0.0,0.0,0.0,0.0,0.0,0.0,0.0,0.0,0.0,0.0,0.0,0.0,0.0,0.0,0.0,0.0,0.0,0.0,0.0,0.0,0.0,0.0,0.0,0.0,0.0,0.0,0.0,0.0,0.0,0.0,0.0,0.0,0.0,0.0,0.0,0.0,0.0,0.0,0.0,0.0,0.0,0.0,0.0,0.0,0.0,0.0,0.0,0.0,0.0,0.0,0.0,0.0,0.0,0.0,0.0,0.0,0.0,0.0,0.0,0.0,0.0,0.0,0.0,0.0,0.0,0.0,0.0,0.0,0.0,0.0,0.0,0.0,0.0,0.0,0.0,0.0,0.0,0.0,0.0,0.0,0.0,0.0,0.0,0.0,0.0,0.0,0.0,0.0,0.0,0.0,0.0,0.0,0.0,0.0,0.0,0.0,0.0,1.7991,1.7849,1.7735,1.74,1.6727,1.5731,0.0,0.0,0.0,0.0,0.0,0.0,0.0,0.0,0.0,0.0,0.0,0.0,0.0,0.0,0.0,0.0,0.0,0.0,0.0,0.0,0.0,0.0,0.0,0.0,0.0,0.0,0.0,0.0,0.0,0.0,0.0,0.0,0.0,0.0,0.0,0.0,0.0,0.0,0.0,0.0,0.0,0.0,0.0,0.0,0.0,0.0,0.0,0.0,0.0,0.0,0.0,0.0,0.0,0.0,0.0,0.0,0.0,0.0,0.0,0.0,0.0,0.0,0.0,0.0,0.0,0.0,0.0,0.0,0.0,0.0,0.0,0.0,0.0,0.0,0.0,0.0,0.0,0.0,0.0,0.0,0.0,0.0,0.0,0.0,0.0,0.0,0.0,0.0,0.0,0.0,0.0,0.0,0.0,0.0,0.0,0.0,0.0,0.0,0.0,0.0,0.0,0.0,0.0,0.0,0.0,0.0,0.0,0.0,1.8221,1.8027,1.7914,1.7898,1.7747,1.7048,0.0,0.0,0.0,0.0,0.0,0.0,0.0,0.0,0.0,0.0,0.0,0.0,0.0,0.0,0.0,0.0,0.0,0.0,0.0,0.0,0.0,0.0,0.0,0.0,0.0,0.0,0.0,0.0,0.0,0.0,0.0,0.0,0.0,0.0,0.0,0.0,0.0,0.0,0.0,0.0,0.0,0.0,0.0,0.0,0.0,0.0,0.0,0.0,0.0,0.0,0.0,0.0,0.0,0.0,0.0,0.0,0.0,0.0,0.0,0.0,0.0,0.0,0.0,0.0,0.0,0.0,0.0,0.0,0.0,0.0,0.0,0.0,0.0,0.0,0.0,0.0,0.0,0.0,0.0,0.0,0.0,0.0,0.0,0.0,0.0,0.0,0.0,0.0,0.0,0.0,0.0,0.0,0.0,0.0,0.0,0.0,0.0,0.0,0.0,0.0,0.0,0.0,0.0,0.0,0.0,0.0,0.0,0.0,0.0,1.8763,1.8397,1.83,1.8446,1.751,1.6557,0.0,0.0,0.0,0.0,0.0,0.0,0.0,0.0,0.0,0.0,0.0,0.0,0.0,0.0,0.0,0.0,0.0,0.0,0.0,0.0,0.0,0.0,0.0,0.0,0.0,0.0,0.0,0.0,0.0,0.0,0.0,0.0,0.0,0.0,0.0,0.0,0.0,0.0,0.0,0.0,0.0,0.0,0.0,0.0,0.0,0.0,0.0,0.0,0.0,0.0,0.0,0.0,0.0,0.0,0.0,0.0,0.0,0.0,0.0,0.0,0.0,0.0,0.0,0.0,0.0,0.0,0.0,0.0,0.0,0.0,0.0,0.0,0.0,0.0,0.0,0.0,0.0,0.0,0.0,0.0,0.0,0.0,0.0,0.0,0.0,0.0,0.0,0.0,0.0,0.0,0.0,0.0,0.0,0.0,0.0,0.0,0.0,0.0,0.0,0.0,0.0,0.0,0.0,0.0,0.0,0.0,0.0,0.0,0.0,1.8722,0.0,1.8319,1.8116,1.7222,1.6193,0.0,0.0,0.0,0.0,0.0,0.0,0.0,0.0,0.0,0.0,0.0,0.0,0.0,0.0,0.0,0.0,0.0,0.0,0.0,0.0,0.0,0.0,0.0,0.0,0.0,0.0,0.0,0.0,0.0,0.0,0.0,0.0,0.0,0.0,0.0,0.0,0.0,0.0,0.0,0.0,0.0,0.0,0.0,0.0,0.0,0.0,0.0,0.0,0.0,0.0,0.0,0.0,0.0,0.0,0.0,0.0,0.0,0.0,0.0,0.0,0.0,0.0,0.0,0.0,0.0,0.0,0.0,0.0,0.0,0.0,0.0,0.0,0.0,0.0,0.0,0.0,0.0,0.0,0.0,0.0,0.0,0.0,0.0,0.0,0.0,0.0,0.0,0.0,0.0,0.0,0.0,0.0,0.0,0.0,0.0,0.0,0.0,0.0,0.0,0.0,0.0,0.0,0.0,0.0,0.0,0.0,0.0,0.0,1.8322,1.7946,1.8221,1.7929,1.6868,1.6915,1.5953,0.0,0.0,0.0,0.0,0.0,0.0,0.0,0.0,0.0,0.0,0.0,0.0,0.0,0.0,0.0,0.0,0.0,0.0,0.0,0.0,0.0,0.0,0.0,0.0,0.0,0.0,0.0,0.0,0.0,0.0,0.0,0.0,0.0,0.0,0.0,0.0,0.0,0.0,0.0,0.0,0.0,0.0,0.0,0.0,0.0,0.0,0.0,0.0,0.0,0.0,0.0,0.0,0.0,0.0,0.0,0.0,0.0,0.0,0.0,0.0,0.0,0.0,0.0,0.0,0.0,0.0,0.0,0.0,0.0,0.0,0.0,0.0,0.0,0.0,0.0,0.0,0.0,0.0,0.0,0.0,0.0,0.0,0.0,0.0,0.0,0.0,0.0,0.0,0.0,0.0,0.0,0.0,0.0,0.0,0.0,0.0,0.0,0.0,0.0,0.0,0.0,0.0,0.0,0.0,0.0,0.0,0.0,0.0,0.0,1.8241,1.8112,1.7917,1.7611,1.6576,1.5506,0.0,0.0,0.0,0.0,0.0,0.0,0.0,0.0,0.0,0.0,0.0,0.0,0.0,0.0,0.0,0.0,0.0,0.0,0.0,0.0,0.0,0.0,0.0,0.0,0.0,0.0,0.0,0.0,0.0,0.0,0.0,0.0,0.0,0.0,0.0,0.0,0.0,0.0,0.0,0.0,0.0,0.0,0.0,0.0,0.0,0.0,0.0,0.0,0.0,0.0,0.0,0.0,0.0,0.0,0.0,0.0,0.0,0.0,0.0,0.0,0.0,0.0,0.0,0.0,0.0,0.0,0.0,0.0,0.0,0.0,0.0,0.0,0.0,0.0,0.0,0.0,0.0,0.0,0.0,0.0,0.0,0.0,0.0,0.0,0.0,0.0,0.0,0.0,0.0,0.0,0.0,0.0,0.0,0.0,0.0,0.0,0.0,0.0,0.0,0.0,0.0,0.0,0.0,0.0,0.0,0.0,0.0,0.0,0.0,1.8857,1.8324,1.8018,1.792,1.6317,1.5119,1.4395,0.0,0.0,0.0,0.0,0.0,0.0,0.0,0.0,0.0,0.0,0.0,0.0,0.0,0.0,0.0,0.0,0.0,0.0,0.0,0.0,0.0,0.0,0.0,0.0,0.0,0.0,0.0,0.0,0.0,0.0,0.0,0.0,0.0,0.0,0.0,0.0,0.0,0.0,0.0,0.0,0.0,0.0,0.0,0.0,0.0,0.0,0.0,0.0,0.0,0.0,0.0,0.0,0.0,0.0,0.0,0.0,0.0,0.0,0.0,0.0,0.0,0.0,0.0,0.0,0.0,0.0,0.0,0.0,0.0,0.0,0.0,0.0,0.0,0.0,0.0,0.0,0.0,0.0,0.0,0.0,0.0,0.0,0.0,0.0,0.0,0.0,0.0,0.0,0.0,0.0,0.0,0.0,0.0,0.0,0.0,0.0,0.0,0.0,0.0,0.0,0.0,0.0,0.0,0.0,0.0,0.0,0.0,0.0,1.9731,1.8755,1.8098,1.7771,1.6121,1.4778,0.0,0.0,0.0,0.0,0.0,0.0,0.0,0.0,0.0,0.0,0.0,0.0,0.0,0.0,0.0,0.0,0.0,0.0,0.0,0.0,0.0,0.0,0.0,0.0,0.0,0.0,0.0,0.0,0.0,0.0,0.0,0.0,0.0,0.0,0.0,0.0,0.0,0.0,0.0,0.0,0.0,0.0,0.0,0.0,0.0,0.0,0.0,0.0,0.0,0.0,0.0,0.0,0.0,0.0,0.0,0.0,0.0,0.0,0.0,0.0,0.0,0.0,0.0,0.0,0.0,0.0,0.0,0.0,0.0,0.0,0.0,0.0,0.0,0.0,0.0,0.0,0.0,0.0,0.0,0.0,0.0,0.0,0.0,0.0,0.0,0.0,0.0,0.0,0.0,0.0,0.0,0.0,0.0,0.0,0.0,0.0,0.0,0.0,0.0,0.0,0.0,0.0,0.0,0.0,0.0,0.0,0.0,0.0,0.0,2.0223,1.8471,1.7578,1.7774,1.6117,1.5177,0.0,0.0,0.0,0.0,0.0,0.0,0.0,0.0,0.0,0.0,0.0,0.0,0.0,0.0,0.0,0.0,0.0,0.0,0.0,0.0,0.0,0.0,0.0,0.0,0.0,0.0,0.0,0.0,0.0,0.0,0.0,0.0,0.0,0.0,0.0,0.0,0.0,0.0,0.0,0.0,0.0,0.0,0.0,0.0,0.0,0.0,0.0,0.0,0.0,0.0,0.0,0.0,0.0,0.0,0.0,0.0,0.0,0.0,0.0,0.0,0.0,0.0,0.0,0.0,0.0,0.0,0.0,0.0,0.0,0.0,0.0,0.0,0.0,0.0,0.0,0.0,0.0,0.0,0.0,0.0,0.0,0.0,0.0,0.0,0.0,0.0,0.0,0.0,0.0,0.0,0.0,0.0,0.0,0.0,0.0,0.0,0.0,0.0,0.0,0.0,0.0,0.0,0.0,0.0,0.0,0.0,0.0,0.0,2.0517,2.0403,1.8562,1.7567,1.7533,1.5791,1.5018,0.0,0.0,0.0,0.0,0.0,0.0,0.0,0.0,0.0,0.0,0.0,0.0,0.0,0.0,0.0,0.0,0.0,0.0,0.0,0.0,0.0,0.0,0.0,0.0,0.0,0.0,0.0,0.0,0.0,0.0,0.0,0.0,0.0,0.0,0.0,0.0,0.0,0.0,0.0,0.0,0.0,0.0,0.0,0.0,0.0,0.0,0.0,0.0,0.0,0.0,0.0,0.0,0.0,0.0,0.0,0.0,0.0,0.0,0.0,0.0,0.0,0.0,0.0,0.0,0.0,0.0,0.0,0.0,0.0,0.0,0.0,0.0,0.0,0.0,0.0,0.0,0.0,0.0,0.0,0.0,0.0,0.0,0.0,0.0,0.0,0.0,0.0,0.0,0.0,0.0,0.0,0.0,0.0,0.0,0.0,0.0,0.0,0.0,0.0,0.0,0.0,0.0,0.0,0.0,0.0,0.0,0.0,0.0,2.0898,2.0356,1.8803,1.7707,1.7073,1.5431,1.4799,0.0,0.0,0.0,0.0,0.0,0.0,0.0,0.0,0.0,0.0,0.0,0.0,0.0,0.0,0.0,0.0,0.0,0.0,0.0,0.0,0.0,0.0,0.0,0.0,0.0,0.0,0.0,0.0,0.0,0.0,0.0,0.0,0.0,0.0,0.0,0.0,0.0,0.0,0.0,0.0,0.0,0.0,0.0,0.0,0.0,0.0,0.0,0.0,0.0,0.0,0.0,0.0,0.0,0.0,0.0,0.0,0.0,0.0,0.0,0.0,0.0,0.0,0.0,0.0,0.0,0.0,0.0,0.0,0.0,0.0,0.0,0.0,0.0,0.0,0.0,0.0,0.0,0.0,0.0,0.0,0.0,0.0,0.0,0.0,0.0,0.0,0.0,0.0,0.0,0.0,0.0,0.0,0.0,0.0,0.0,0.0,0.0,0.0,0.0,0.0,0.0,0.0,0.0,0.0,0.0,0.0,0.0,0.0,2.1215,2.0722,1.8457,1.6913,1.6256,1.5864,1.6012,0.0,0.0,0.0,0.0,0.0,0.0,0.0,0.0,0.0,0.0,0.0,0.0,0.0,0.0,0.0,0.0,0.0,0.0,0.0,0.0,0.0,0.0,0.0,0.0,0.0,0.0,0.0,0.0,0.0,0.0,0.0,0.0,0.0,0.0,0.0,0.0,0.0,0.0,0.0,0.0,0.0,0.0,0.0,0.0,0.0,0.0,0.0,0.0,2.4224,0.0,0.0,0.0,0.0,0.0,0.0,0.0,0.0,0.0,0.0,0.0,0.0,0.0,0.0,0.0,0.0,0.0,0.0,0.0,0.0,0.0,0.0,0.0,0.0,0.0,0.0,0.0,0.0,0.0,0.0,0.0,0.0,0.0,0.0,0.0,0.0,0.0,0.0,0.0,0.0,0.0,0.0,0.0,0.0,0.0,0.0,0.0,0.0,0.0,0.0,0.0,0.0,0.0,0.0,0.0,0.0,0.0,0.0,0.0,2.1189,2.0128,1.8246,1.7016,1.6542,1.6515,1.6627,0.0,0.0,0.0,0.0,0.0,0.0,0.0,0.0,0.0,0.0,0.0,0.0,0.0,0.0,0.0,0.0,0.0,0.0,0.0,0.0,0.0,0.0,0.0,0.0,0.0,0.0,0.0,0.0,0.0,0.0,0.0,0.0,0.0,0.0,0.0,0.0,0.0,0.0,0.0,0.0,0.0,0.0,0.0,0.0,0.0,0.0,0.0,0.0,0.0,0.0,0.0,0.0,0.0,0.0,0.0,0.0,0.0,0.0,0.0,0.0,0.0,0.0,0.0,0.0,0.0,0.0,0.0,0.0,0.0,0.0,0.0,0.0,0.0,0.0,0.0,0.0,0.0,0.0,0.0,0.0,0.0,0.0,0.0,0.0,0.0,0.0,0.0,0.0,0.0,0.0,0.0,0.0,0.0,0.0,0.0,0.0,0.0,0.0,0.0,0.0,0.0,0.0,0.0,0.0,0.0,0.0,0.0,2.2601,2.1051,1.9501,1.8196,1.7403,1.7173,1.716,1.704,1.6801,0.0,0.0,0.0,0.0,0.0,0.0,0.0,0.0,0.0,0.0,0.0,0.0,0.0,0.0,0.0,0.0,0.0,0.0,0.0,0.0,0.0,0.0,0.0,0.0,0.0,0.0,0.0,0.0,0.0,0.0,0.0,0.0,0.0,0.0,0.0,0.0,0.0,0.0,2.0922,2.2208,0.0,0.0,0.0,0.0,0.0,0.0,0.0,0.0,2.4224,0.0,0.0,0.0,0.0,0.0,0.0,0.0,0.0,0.0,0.0,0.0,0.0,0.0,0.0,0.0,0.0,0.0,0.0,0.0,0.0,0.0,0.0,0.0,0.0,0.0,0.0,0.0,0.0,0.0,0.0,0.0,0.0,0.0,0.0,0.0,0.0,0.0,0.0,0.0,0.0,0.0,0.0,0.0,0.0,0.0,0.0,0.0,0.0,0.0,0.0,0.0,0.0,0.0,0.0,0.0,0.0,2.4585,2.253,2.1065,2.0141,1.8518,1.7603,1.7447,1.7382,1.7688,1.8379,0.0,0.0,0.0,0.0,0.0,0.0,0.0,0.0,0.0,0.0,0.0,0.0,0.0,0.0,0.0,0.0,0.0,0.0,0.0,0.0,0.0,0.0,0.0,0.0,0.0,0.0,0.0,0.0,0.0,0.0,0.0,0.0,0.0,0.0,0.0,0.0,0.0,0.0,0.0,2.1341,2.1481,0.0,0.0,0.0,0.0,0.0,0.0,0.0,0.0,2.4345,0.0,0.0,0.0,0.0,0.0,0.0,0.0,0.0,0.0,0.0,0.0,0.0,0.0,0.0,0.0,0.0,0.0,0.0,0.0,0.0,0.0,0.0,0.0,0.0,0.0,0.0,0.0,0.0,0.0,0.0,0.0,0.0,0.0,0.0,0.0,0.0,0.0,0.0,0.0,0.0,0.0,0.0,0.0,0.0,0.0,0.0,0.0,0.0,0.0,0.0,0.0,0.0,0.0,0.0,0.0,2.3672,2.2421,2.1134,1.9869,1.8714,1.8153,1.821,1.8038,1.8422,0.0,0.0,0.0,0.0,0.0,0.0,0.0,0.0,0.0,0.0,0.0,0.0,0.0,0.0,0.0,0.0,0.0,0.0,0.0,0.0,0.0,0.0,0.0,0.0,0.0,0.0,0.0,0.0,0.0,0.0,0.0,0.0,0.0,0.0,0.0,0.0,0.0,0.0,0.0,0.0,2.1148,2.1323,2.2852,0.0,0.0,0.0,0.0,0.0,0.0,2.4318,2.4606,0.0,0.0,0.0,0.0,0.0,0.0,0.0,0.0,0.0,0.0,0.0,0.0,0.0,0.0,0.0,0.0,0.0,0.0,0.0,0.0,0.0,0.0,0.0,0.0,0.0,0.0,0.0,0.0,0.0,0.0,0.0,0.0,0.0,0.0,0.0,0.0,0.0,0.0,0.0,0.0,0.0,0.0,0.0,0.0,0.0,0.0,0.0,0.0,0.0,0.0,0.0,0.0,0.0,0.0,0.0,2.2837,2.2272,2.1099,1.9294,1.8752,1.8578,1.8721,1.8382,1.8817,0.0,0.0,0.0,0.0,0.0,0.0,0.0,0.0,0.0,0.0,0.0,0.0,0.0,0.0,0.0,0.0,0.0,0.0,0.0,0.0,0.0,0.0,0.0,0.0,0.0,0.0,0.0,0.0,0.0,0.0,0.0,0.0,0.0,0.0,0.0,0.0,0.0,0.0,0.0,0.0,0.0,2.1344,2.2785,2.3212,0.0,0.0,0.0,0.0,2.4336,2.4231,0.0,0.0,0.0,0.0,0.0,0.0,0.0,0.0,0.0,0.0,0.0,0.0,0.0,0.0,0.0,0.0,0.0,0.0,0.0,0.0,0.0,0.0,0.0,0.0,0.0,0.0,0.0,0.0,0.0,0.0,0.0,0.0,0.0,0.0,0.0,0.0,0.0,0.0,0.0,0.0,0.0,0.0,0.0,0.0,0.0,0.0,0.0,0.0,0.0,0.0,0.0,0.0,0.0,0.0,0.0,0.0,2.2817,2.1973,2.0625,1.8724,1.8533,1.8376,1.8097,1.7718,1.8359,0.0,0.0,0.0,0.0,0.0,0.0,0.0,0.0,0.0,0.0,0.0,0.0,0.0,0.0,0.0,0.0,0.0,0.0,0.0,0.0,0.0,0.0,0.0,0.0,0.0,0.0,0.0,0.0,0.0,0.0,0.0,0.0,0.0,0.0,0.0,0.0,0.0,0.0,0.0,0.0,0.0,2.0669,2.2642,2.3187,2.3666,0.0,0.0,0.0,2.3629,2.3331,0.0,0.0,0.0,0.0,0.0,0.0,0.0,0.0,0.0,0.0,0.0,0.0,0.0,0.0,0.0,0.0,0.0,0.0,0.0,0.0,0.0,0.0,0.0,0.0,0.0,0.0,0.0,0.0,0.0,0.0,0.0,0.0,0.0,0.0,0.0,0.0,0.0,0.0,0.0,0.0,0.0,0.0,0.0,0.0,0.0,0.0,0.0,0.0,0.0,0.0,0.0,0.0,0.0,0.0,0.0,2.3011,2.1758,2.1361,2.0268,1.8473,1.8202,1.8004,1.7826,1.7721,1.8245,0.0,0.0,0.0,0.0,0.0,0.0,0.0,0.0,0.0,0.0,0.0,0.0,0.0,0.0,0.0,0.0,0.0,0.0,0.0,0.0,0.0,0.0,0.0,0.0,0.0,0.0,0.0,0.0,0.0,0.0,0.0,0.0,0.0,0.0,0.0,0.0,0.0,0.0,0.0,0.0,0.0,0.0,2.2238,2.3073,0.0,0.0,0.0,2.3651,2.3326,0.0,0.0,0.0,0.0,0.0,0.0,0.0,0.0,0.0,0.0,0.0,0.0,0.0,0.0,0.0,0.0,0.0,0.0,0.0,0.0,0.0,0.0,0.0,0.0,0.0,0.0,0.0,0.0,0.0,0.0,0.0,0.0,0.0,0.0,0.0,0.0,0.0,0.0,0.0,0.0,0.0,0.0,0.0,0.0,0.0,0.0,0.0,0.0,0.0,0.0,0.0,0.0,0.0,0.0,0.0,0.0,0.0,2.0991,2.0887,1.9932,1.808,1.7783,1.7593,1.7392,1.742,0.0,0.0,0.0,0.0,0.0,0.0,0.0,0.0,0.0,0.0,0.0,0.0,0.0,0.0,0.0,0.0,0.0,0.0,0.0,0.0,0.0,0.0,0.0,0.0,0.0,0.0,0.0,1.7805,0.0,0.0,0.0,0.0,0.0,0.0,0.0,0.0,0.0,0.0,0.0,0.0,0.0,0.0,2.1234,2.2272,2.315,2.3647,0.0,0.0,2.3356,2.3079,2.3345,2.417,0.0,0.0,0.0,0.0,0.0,0.0,0.0,0.0,0.0,0.0,0.0,0.0,0.0,0.0,0.0,0.0,0.0,0.0,0.0,0.0,0.0,0.0,0.0,0.0,0.0,0.0,0.0,0.0,0.0,0.0,0.0,0.0,0.0,0.0,0.0,0.0,0.0,0.0,0.0,0.0,0.0,0.0,0.0,0.0,0.0,0.0,0.0,0.0,0.0,0.0,0.0,0.0,0.0,0.0,0.0,2.1216,2.0876,1.9575,1.7288,1.7263,1.7093,1.6608,1.6293,1.6908,0.0,0.0,0.0,0.0,0.0,0.0,0.0,0.0,0.0,0.0,0.0,0.0,0.0,0.0,0.0,0.0,0.0,0.0,0.0,0.0,0.0,0.0,0.0,0.0,0.0,0.0,0.0,0.0,0.0,0.0,0.0,0.0,0.0,0.0,0.0,0.0,0.0,0.0,0.0,0.0,0.0,2.1974,2.3165,2.3423,2.3734,0.0,0.0,2.2347,2.2753,2.156,2.1583,2.4443,0.0,0.0,0.0,0.0,0.0,0.0,0.0,0.0,0.0,0.0,0.0,0.0,0.0,0.0,0.0,0.0,0.0,0.0,0.0,0.0,0.0,0.0,0.0,0.0,0.0,0.0,0.0,0.0,0.0,0.0,0.0,0.0,0.0,0.0,0.0,0.0,0.0,0.0,0.0,0.0,0.0,0.0,0.0,0.0,0.0,0.0,0.0,0.0,0.0,0.0,0.0,0.0,0.0,2.2209,2.0864,2.0417,1.9288,1.7433,1.6815,1.6379,1.6157,1.5941,1.6239,0.0,0.0,0.0,0.0,0.0,0.0,0.0,0.0,0.0,0.0,0.0,0.0,0.0,0.0,0.0,0.0,0.0,0.0,0.0,0.0,0.0,0.0,0.0,0.0,0.0,0.0,0.0,0.0,2.2895,2.3437,2.3438,0.0,0.0,0.0,0.0,0.0,0.0,0.0,0.0,0.0,0.0,2.3743,2.403,2.4329,0.0,0.0,2.3514,2.3081,2.1569,2.2761,2.4074,2.4724,2.6288,0.0,0.0,0.0,0.0,0.0,0.0,0.0,0.0,0.0,0.0,0.0,0.0,0.0,0.0,0.0,0.0,0.0,0.0,0.0,0.0,0.0,0.0,0.0,0.0,0.0,0.0,0.0,0.0,0.0,0.0,0.0,0.0,0.0,0.0,0.0,0.0,0.0,0.0,0.0,0.0,0.0,0.0,0.0,0.0,0.0,0.0,0.0,0.0,0.0,0.0,0.0,0.0,2.2225,2.0717,2.0337,1.9325,1.7723,1.6959,1.6512,1.6368,1.6165,1.627,0.0,0.0,0.0,0.0,0.0,0.0,0.0,0.0,0.0,0.0,0.0,0.0,0.0,0.0,0.0,0.0,0.0,0.0,0.0,0.0,0.0,0.0,0.0,0.0,0.0,0.0,0.0,0.0,2.4048,2.4081,2.4062,0.0,0.0,0.0,0.0,0.0,0.0,0.0,0.0,0.0,0.0,2.5338,2.5011,2.5143,2.4832,2.3647,2.3933,2.3713,2.2101,2.4052,2.5802,2.5958,0.0,0.0,0.0,0.0,0.0,0.0,0.0,0.0,0.0,0.0,0.0,0.0,0.0,0.0,0.0,0.0,0.0,0.0,0.0,0.0,0.0,0.0,0.0,0.0,0.0,0.0,0.0,0.0,0.0,0.0,0.0,0.0,0.0,0.0,0.0,0.0,0.0,0.0,0.0,0.0,0.0,0.0,0.0,0.0,0.0,0.0,0.0,0.0,0.0,0.0,0.0,0.0,0.0,0.0,2.0905,2.0738,1.9849,1.8153,1.7945,1.7654,1.7351,1.7045,1.715,1.7732,0.0,0.0,0.0,0.0,0.0,0.0,0.0,0.0,0.0,0.0,0.0,0.0,0.0,0.0,0.0,0.0,0.0,0.0,0.0,0.0,0.0,0.0,0.0,0.0,0.0,0.0,2.4672,2.4579,2.4632,0.0,0.0,0.0,0.0,0.0,0.0,0.0,0.0,0.0,0.0,2.7006,2.6539,2.6155,2.5799,2.5637,2.5438,2.4459,2.4029,2.4977,2.513,2.5855,0.0,0.0,0.0,0.0,0.0,0.0,0.0,0.0,0.0,0.0,0.0,0.0,0.0,0.0,0.0,0.0,0.0,0.0,0.0,0.0,0.0,0.0,0.0,0.0,0.0,0.0,0.0,0.0,3.2707,0.0,0.0,0.0,0.0,0.0,0.0,0.0,0.0,0.0,0.0,0.0,3.5801,3.7098,0.0,0.0,0.0,0.0,0.0,0.0,0.0,0.0,0.0,0.0,0.0,0.0,2.2766,2.1288,2.0835,1.9964,1.8593,1.7652,1.7319,1.7578,1.7107,1.715,1.7758,0.0,0.0,0.0,0.0,0.0,0.0,0.0,0.0,0.0,0.0,0.0,0.0,0.0,0.0,0.0,0.0,0.0,0.0,0.0,0.0,0.0,0.0,0.0,0.0,0.0,2.5241,0.0,0.0,0.0,0.0,0.0,0.0,0.0,0.0,0.0,0.0,0.0,2.9559,2.9609,2.8971,2.8404,2.8117,2.8002,2.7682,0.0,0.0,0.0,0.0,0.0,0.0,0.0,0.0,0.0,0.0,0.0,0.0,0.0,0.0,3.866,3.5694,3.5936,3.6636,3.6818,0.0,0.0,0.0,0.0,0.0,0.0,0.0,0.0,0.0,0.0,0.0,0.0,0.0,0.0,0.0,0.0,3.219,0.0,0.0,0.0,0.0,0.0,0.0,0.0,0.0,3.7868,3.8894,3.9024,4.0044,4.0125,0.0,3.9284,3.7545,0.0,0.0,0.0,0.0,0.0,0.0,0.0,0.0,2.4026,2.2087,2.1672,2.0818,1.9428,1.861,1.8315,1.8546,1.81,1.7882,1.7905,1.7093,1.6405,0.0,0.0,0.0,0.0,0.0,0.0,0.0,0.0,0.0,0.0,0.0,0.0,0.0,0.0,0.0,0.0,0.0,0.0,0.0,0.0,0.0,0.0,0.0,2.5411,0.0,0.0,0.0,0.0,0.0,0.0,0.0,0.0,0.0,3.251,3.1958,3.1771,3.191,3.0939,3.0148,3.0046,0.0,0.0,0.0,0.0,0.0,0.0,0.0,3.2674,3.3814,3.4712,3.5902,3.7689,3.9801,4.1521,4.2259,0.0,0.0,4.0203,4.0149,4.0983,4.1753,4.2718,4.3635,4.4498,4.4996,4.5323,0.0,0.0,0.0,0.0,0.0,0.0,0.0,0.0,3.4236,3.3309,0.0,3.2746,0.0,0.0,0.0,0.0,0.0,0.0,0.0,0.0,4.2207,4.3366,4.2993,4.3057,4.3231,4.3454,4.3361,4.2072,3.9618,3.598,0.0,0.0,0.0,0.0,0.0,0.0,2.6216,2.3269,2.3168,2.233,2.0631,2.0673,2.0568,2.0186,1.9943,1.927,1.8214,1.7419,1.6813,1.644,1.4659,0.0,0.0,0.0,0.0,0.0,0.0,0.0,0.0,0.0,0.0,0.0,0.0,0.0,0.0,0.0,0.0,0.0,0.0,0.0,0.0,2.576,0.0,0.0,0.0,0.0,0.0,0.0,0.0,0.0,0.0,0.0,3.4368,3.3783,3.3835,3.4116,0.0,0.0,0.0,0.0,3.1155,3.153,3.1991,3.3046,3.499,3.6151,3.7349,3.8869,0.0,0.0,4.0679,4.3273,4.5159,4.4391,4.7424,4.9435,4.7313,4.614,4.6171,4.8188,4.8583,4.9032,5.0185,5.0453,5.0592,4.1543,0.0,0.0,0.0,0.0,3.8321,3.8181,3.8799,3.649,3.5464,3.5289,3.4834,0.0,0.0,0.0,0.0,0.0,0.0,4.1909,4.2713,4.4274,4.5057,4.5179,4.5308,4.5212,4.4968,4.4415,4.3864,4.3162,4.1052,3.7922,3.3927,0.0,0.0,0.0,0.0,2.6995,2.453,2.398,2.301,2.1454,2.0895,2.0526,2.0426,2.03,2.0085,1.9747,1.8871,1.8083,1.7439,1.6439,0.0,0.0,0.0,0.0,0.0,0.0,0.0,0.0,0.0,0.0,0.0,0.0,0.0,0.0,0.0,0.0,0.0,0.0,0.0,2.4899,2.6054,2.7202,0.0,0.0,0.0,0.0,0.0,0.0,0.0,0.0,0.0,3.73,3.6577,3.5676,0.0,0.0,3.3593,3.3588,3.4255,3.4906,3.5374,0.0,0.0,0.0,3.863,3.9492,4.1895,4.4058,4.5644,4.6151,4.794,4.9471,4.977,5.1225,5.2621,5.3641,5.2397,5.1506,5.1977,5.2738,5.336,5.3526,5.3789,5.3787,4.6082,4.4024,4.2596,4.1969,4.1811,4.0596,4.0232,4.0347,3.8587,3.7787,3.7682,3.796,3.8072,3.8115,3.9834,0.0,0.0,0.0,4.4543,4.541,4.6228,4.67,4.6882,4.7143,4.7124,4.6864,4.6462,4.6144,4.5882,4.444,4.18,3.7981,0.0,0.0,3.183,3.0718,2.8804,2.6128,2.5247,2.4125,2.2685,2.1936,2.1449,2.1123,2.1079,2.084,2.0344,1.9399,1.8638,1.8177,1.7485,1.6732,0.0,0.0,0.0,0.0,0.0,0.0,0.0,0.0,0.0,0.0,0.0,2.2199,0.0,0.0,0.0,0.0,2.5911,2.5735,2.5825,2.7698,0.0,0.0,0.0,0.0,0.0,0.0,0.0,4.0428,4.1037,4.0851,3.9453,3.9,3.7904,3.5475,3.5109,3.5329,3.6057,0.0,3.7724,3.8672,3.9666,4.0763,4.2192,4.23,4.3154,4.5868,4.7895,4.9384,5.0173,5.182,5.3255,5.3941,5.5035,5.6377,5.7668,5.7033,5.628,5.6019,5.6529,5.6883,5.6509,5.6383,5.5956,5.0708,5.016,4.6959,4.4902,4.3686,4.3322,4.2263,4.0763,4.0501,4.0221,4.0045,4.1807,4.2637,4.2878,4.4572,0.0,0.0,4.701,4.7583,4.7824,4.815,4.8341,4.8354,4.8676,4.8841,4.889,4.902,4.8689,4.7953,4.6544,4.5183,4.3751,4.0767,3.7845,3.506,3.3575,3.1229,2.7889,2.6777,2.5528,2.407,2.3618,2.3052,2.2347,2.2244,2.1634,2.046,1.9431,1.8854,1.8803,1.7935,1.7135,1.6517,0.0,0.0,0.0,0.0,0.0,0.0,0.0,0.0,0.0,0.0,0.0,0.0,0.0,0.0,0.0,2.7159,0.0,2.8471,3.0408,0.0,0.0,0.0,3.8713,4.0565,4.2287,4.3084,4.2451,0.0,0.0,0.0,0.0,4.0416,3.7924,3.6977,3.72,3.902,3.9396,4.0002,4.1613,4.2481,4.3839,4.5735,4.651,4.7665,5.0072,5.1481,5.2338,5.3111,5.4997,5.647,5.6552,5.8466,5.9913,5.976,6.0115,6.0586,5.9941,5.9749,5.9533,5.8919,5.8437,5.7554,5.3077,5.1599,5.0666,4.8641,4.5982,4.4483,4.3603,4.3111,4.2603,4.3034,4.4335,4.5446,4.7181,4.9358,5.0028,5.0491,5.0694,5.0486,5.0452,5.0544,5.0279,5.0279,5.0421,5.0156,4.9909,4.9786,4.9679,4.959,4.9511,4.8553,4.7554,4.6508,4.3878,4.0585,3.6696,3.4672,3.2194,2.9183,2.8091,2.6792,2.524,2.5105,2.4759,2.4262,2.3396,2.2694,2.2194,2.1013,2.0219,1.983,1.8381,1.7485,1.7396,1.636,0.0,0.0,0.0,0.0,0.0,0.0,0.0,0.0,0.0,2.7726,2.5612,0.0,2.9585,0.0,2.9771,3.0395,3.0724,3.3629,0.0,0.0,4.1064,4.2921,4.5471,4.5335,4.5037,4.494,4.4707,4.4221,4.3362,4.3296,4.2967,4.1998,4.0871,4.0502,4.1459,4.2548,4.3685,4.4917,4.559,4.65,4.8042,4.9515,5.1113,5.3125,5.4263,5.5155,5.5812,5.7497,5.8717,5.8714,5.9488,6.0403,6.086,6.1129,6.1348,6.1528,6.1287,6.0689,5.9817,5.9747,5.928,5.5291,5.4021,5.3173,5.1643,4.9682,4.7338,4.6323,4.6272,4.5948,4.6659,4.8164,4.9604,5.1258,5.2874,5.3291,5.3296,5.2964,5.2504,5.2108,5.1751,5.1458,5.128,5.1279,5.1242,5.1072,5.0878,5.0883,5.0708,5.0308,4.9408,4.8452,4.7473,4.4833,4.2034,3.907,3.6186,3.3318,3.0441,2.8946,2.7713,2.6751,2.652,2.6042,2.5243,2.4501,2.3723,2.2832,2.1741,2.0829,2.0052,1.833,1.7475,1.7799,1.7188,1.6973,0.0,0.0,0.0,0.0,0.0,0.0,0.0,0.0,0.0,0.0,0.0,3.0659,0.0,0.0,0.0,3.4251,3.7917,4.1152,4.3361,4.5119,4.6678,4.799,4.7357,4.6733,4.6454,4.5799,4.5163,4.4576,4.4685,4.4805,4.4713,4.4453,4.4202,4.4136,4.4926,4.6047,4.7578,4.8089,4.9091,5.0995,5.2631,5.4264,5.5887,5.6745,5.74,5.8135,5.9344,6.0212,6.0188,6.0725,6.1306,6.1615,6.161,6.1673,6.1779,6.1697,6.1157,6.0263,6.0228,5.9701,5.7059,5.6416,5.4876,5.4091,5.3714,5.1127,4.9906,4.9679,4.9752,5.0434,5.1696,5.3706,5.4669,5.4885,5.516,5.482,5.3967,5.3604,5.3029,5.2383,5.2168,5.1975,5.1802,5.2203,5.2207,5.1879,5.2163,5.1717,5.0629,4.9666,4.8588,4.7292,4.4641,4.2575,4.108,3.7678,3.4407,3.1478,2.9596,2.8561,2.8381,2.7875,2.7042,2.5891,2.5464,2.4551,2.2979,2.2087,2.1123,2.0086,1.8453,1.7701,1.8144,1.8295,1.8819,0.0,2.2194,0.0,0.0,0.0,0.0,0.0,0.0,0.0,0.0,3.2364,3.1797,3.0966,3.3259,3.5862,3.8484,4.2428,4.5274,4.6419,4.8471,4.9626,4.9124,4.8676,4.8157,4.7463,4.6794,4.6092,4.5554,4.5809,4.6205,4.6714,4.7423,4.7657,4.7085,4.7217,4.8076,4.973,5.0326,5.1531,5.3864,5.5456,5.6767,5.8245,5.8832,5.9258,5.989,6.0692,6.1287,6.1285,6.1653,6.1992,6.1992,6.1832,6.1756,6.168,6.1608,6.1406,6.0774,6.0431,5.9588,5.7752,5.6278,5.5852,5.568,5.5586,5.5082,5.387,5.2306,5.229,5.3403,5.5249,5.6102,5.6584,5.6745,5.6371,5.5544,5.4345,5.3806,5.3644,5.3793,5.3341,5.3413,5.3864,5.3475,5.2844,5.2163,5.224,5.1763,5.0741,5.0133,4.8947,4.7131,4.4479,4.2112,0.0,0.0,0.0,0.0,3.0473,2.9877,2.9861,2.9163,2.8229,2.7086,2.5865,0.0,2.366,2.2715,2.1811,2.0937,2.0573,0.0,0.0,0.0,0.0,0.0,0.0,0.0,0.0,0.0,0.0,0.0,3.5216,3.4591,3.3186,3.4276,3.4964,3.476,3.7899,4.0836,4.3035,4.5633,4.7599,4.8463,4.9669,5.0311,5.0043,4.9681,4.9206,4.8498,4.8052,4.7698,4.7488,4.7535,4.7932,4.8737,4.9373,4.9955,5.0503,5.0302,5.0679,5.1778,5.2739,5.4007,5.5626,5.6788,5.7908,5.9032,6.0056,6.0511,6.0686,6.1289,6.1792,6.1697,6.1726,6.17,6.1672,6.1728,6.175,6.1601,6.1658,6.1678,6.1421,6.1214,6.0511,5.8469,0.0,5.7381,5.7591,0.0,5.8374,5.8011,5.7208,5.6217,5.6462,5.7644,5.813,5.8239,5.8051,5.7551,5.6864,5.5969,5.539,5.4975,5.472,5.4274,5.4183,5.4409,5.4067,5.3506,5.2817,5.2542,5.1698,5.0405,4.9461,4.8167,4.6527,4.3939,4.1872,4.0319,3.8117,3.562,3.2846,3.1728,3.105,3.0795,3.0065,2.9009,2.7569,0.0,0.0,0.0,0.0,0.0,0.0,0.0,0.0,0.0,0.0,0.0,2.6178,2.8737,3.0913,3.2557,3.5401,3.7524,3.8437,3.8678,3.771,3.522,3.6378,3.753,3.8258,4.0953,4.3681,4.6159,4.7819,4.9132,5.0102,5.045,5.0545,5.0518,5.005,4.9637,4.953,4.9076,4.8777,4.8911,4.8928,4.921,4.9909,5.0558,5.1221,5.1945,5.1859,5.2106,5.35,5.4843,5.6181,5.7525,5.8331,5.9173,6.015,6.0785,6.1121,6.1171,6.1546,6.177,6.1722,6.1559,6.1444,6.1444,6.1458,6.143,6.1372,6.1401,6.125,6.0891,6.0719,6.0275,5.9412,5.991,5.9175,5.9603,6.0823,6.1126,6.1617,6.2071,0.0,0.0,0.0,5.9447,5.9276,5.8759,5.8231,5.7785,5.7286,5.6702,5.6167,5.5613,5.5225,5.4922,5.479,5.4624,5.4086,5.3299,5.2686,5.1488,4.9815,4.8524,4.7231,4.5713,4.3361,4.1552,4.0391,3.7885,3.5881,3.4449,3.3124,3.2078,3.1395,3.0635,2.946,2.7811,2.6607,2.5422,2.421,2.3112,2.2358,2.2,2.1669,2.228,2.4011,2.5278,2.753,3.1065,3.3871,3.5999,3.7464,4.009,4.144,4.0916,4.1219,4.0314,3.7701,3.8693,4.0025,4.1517,4.3573,4.5926,4.8429,4.9382,5.0246,5.126,5.075,5.0449,5.0793,5.0163,4.9831,5.019,4.978,4.9518,4.9774,4.9794,5.008,5.0706,5.1411,5.2303,5.2939,5.3049,5.3472,5.5073,5.639,5.7761,5.8921,5.9722,6.038,6.1013,6.1279,6.1444,6.1566,6.1544,6.1516,6.143,6.1292,6.1205,6.119,6.1211,6.1051,6.0915,6.0909,6.0659,5.9916,5.966,5.9302,6.0791,6.1481,6.1226,6.163,6.2412,6.307,6.3669,6.4016,6.187,6.0342,5.9351,5.9114,5.8759,5.8246,5.7627,5.7059,5.652,5.5807,5.6021,0.0,5.6189,5.6112,5.6659,5.5878,5.4623,5.3024,5.2216,5.0915,4.9136,4.8125,4.6843,4.5129,4.2962,4.0827,3.8774,3.6772,3.5847,3.6013,3.4506,3.3082,3.1752,3.0565,2.9346,2.8074,2.6688,2.5431,2.4405,2.426,2.4109,2.3889,2.5251,2.6223,2.6561,2.9417,3.1987,3.3991,3.6757,3.9102,4.0672,4.2152,4.2794,4.2445,4.2863,4.2093,3.9732,4.1361,4.3096,4.4363,4.6855,4.8906,4.9719,5.0278,5.079,5.1184,5.0387,5.0056,5.0799,5.0529,5.0205,5.0191,5.007,4.9924,4.9791,4.9748,5.0366,5.1625,5.2406,5.3223,5.4754,5.5158,5.545,5.6499,5.757,5.8364,5.9046,5.9972,6.071,6.1234,6.1537,6.1695,6.1624,6.1523,6.1342,6.1034,6.0989,6.0923,6.0923,6.1102,6.0911,6.0388,6.0267,5.9989,5.9109,5.8445,5.7917,6.1496,6.2104,6.2451,6.2927,6.3494,6.4106,6.4433,6.4495,6.3394,6.2465,6.1581,6.0394,5.9815,5.9738,5.8662,5.8202,5.8204,5.7317,5.7291,5.7826,5.7017,5.6509,5.6284,5.5703,5.4404,5.2556,5.1665,5.0198,4.8258,4.7232,4.6033,4.4615,4.2703,4.0774,3.896,3.8029,3.7146,3.6181,3.4487,3.3068,3.2014,3.1145,2.9937,2.8315,2.7206,2.6276,2.5418,2.5245,2.5407,2.5861,2.7076,2.8449,3.0014,3.2373,3.4699,3.6891,3.9409,4.1118,4.1706,4.2973,4.3492,4.3111,4.4478,4.4669,4.3065,4.424,4.5497,4.6636,4.8207,4.9616,5.0809,5.0216,5.0341,5.206,5.0882,5.039,5.1118,5.1164,5.0877,5.0618,5.0625,5.0663,5.0627,5.0739,5.123,5.2575,5.3454,5.4706,5.6175,5.637,5.6525,5.7239,5.8049,5.8738,5.9297,6.0074,6.0712,6.0914,6.148,6.1849,6.1825,6.17,6.1655,6.1574,6.1214,6.0944,6.1013,6.1211,6.0898,6.0253,6.0053,5.9624,5.8459,5.7489,5.6948,6.2548,6.3021,6.3579,6.4093,6.4524,6.49,6.4919,6.4797,6.4388,6.4069,6.3527,6.1777,6.1059,6.1107,5.9892,5.9472,5.9573,5.8786,5.8409,5.8421,5.7614,5.6775,5.6056,5.5487,5.4231,5.2494,5.1284,4.9679,4.7793,4.6561,4.5288,4.3891,4.2398,4.0911,3.9514,3.9111,3.8071,3.6307,3.4623,3.3199,3.2134,3.15,3.0307,2.8644,2.7814,2.713,2.6573,2.6605,2.709,2.8095,2.9174,3.089,3.3372,3.5084,3.7109,3.9601,4.1638,4.2741,4.2801,4.3746,4.4206,4.3896,4.5772,4.6752,4.6325,4.6891,4.7569,4.8265,4.8769,4.9753,5.0866,4.9895,4.9866,5.2352,5.1346,5.0663,5.1435,5.1539,5.1354,5.0987,5.1102,5.1326,5.1734,5.1955,5.2455,5.3498,5.4804,5.5998,5.6718,5.7036,5.7321,5.7671,5.8268,5.8923,5.9611,6.0119,6.0485,6.0563,6.1219,6.1763,6.1905,6.1946,6.191,6.1966,6.1407,6.0995,6.1197,6.1285,6.0884,6.006,5.9766,5.928,5.7674,5.6882,5.6413,6.4589,6.5019,6.5083,6.541,6.573,6.5721,6.5529,6.528,6.4495,6.4185,6.4094,6.266,6.1759,6.1397,6.0615,6.002,5.9515,5.8794,5.8552,5.8507,5.7567,5.7184,5.712,5.576,5.4465,5.3103,5.1359,4.9647,4.8006,4.6646,4.4916,4.2891,4.187,4.1019,4.0,3.8638,3.7651,3.7168,3.5807,3.4139,3.2158,3.0997,2.9938,2.8983,2.8239,2.7769,2.7669,2.8755,2.9804,3.0717,3.2601,3.4526,3.6306,3.7984,3.9877,4.1953,4.3092,4.4003,4.4789,4.5097,4.5278,4.547,4.6504,4.7451,4.7916,4.8857,4.9247,4.9026,4.9383,4.9896,5.026,4.9664,5.0087,5.2035,5.1246,5.057,5.1215,5.116,5.1023,5.1012,5.1228,5.1662,5.2545,5.2863,5.3422,5.4544,5.589,5.68,5.7028,5.7357,5.7579,5.778,5.8354,5.8943,5.9334,5.9781,6.0269,6.0567,6.096,6.1559,6.193,6.1732,6.137,6.1956,6.1382,6.0929,6.1093,6.1176,6.0791,5.9573,5.9036,5.8542,5.7045,5.6468,5.6328,6.5644,6.5586,6.6161,6.6128,6.5704,6.5578,6.5398,6.5128,6.4423,6.4096,6.3952,6.2877,6.2105,6.1636,6.0932,6.0371,5.9925,5.9975,5.9784,5.9367,5.8378,5.7633,5.6978,5.542,5.3847,5.239,5.1056,4.9431,4.7484,4.5794,4.4509,4.3598,4.26,4.169,4.0844,3.9699,3.8526,3.7267,3.638,3.4969,3.3147,3.2065,3.1061,3.0018,2.9856,2.9783,2.9839,3.0992,3.2153,3.323,3.4687,3.6247,3.7885,3.9572,4.0988,4.2176,4.3632,4.479,4.5573,4.6247,4.6557,4.6333,4.7865,4.8796,4.8735,4.9363,4.9722,4.9793,4.9538,4.9673,5.0504,4.9769,4.9974,5.174,5.1682,5.1481,5.188,5.1727,5.1575,5.1616,5.163,5.2,5.2912,5.368,5.4509,5.549,5.6644,5.7484,5.7653,5.7902,5.8054,5.81,5.8368,5.8613,5.8978,5.997,6.0415,6.0563,6.1372,6.23,6.1997,6.1941,6.1783,6.2114,6.1392,6.0974,6.1197,6.1271,6.0992,5.9536,5.7928,5.7193,5.6613,5.6451,5.6405,6.6482,6.6417,6.7053,6.6815,6.5984,6.5605,6.5365,6.5073,6.4392,6.3912,6.3565,6.2878,6.2222,6.1622,6.1272,6.0932,6.0626,6.1012,6.0796,6.0007,5.893,5.7955,5.7051,5.5048,5.3431,5.2221,5.0946,4.9143,4.6867,4.5308,4.4426,4.4055,4.3106,4.2168,4.137,4.0524,3.9312,3.779,3.7048,3.6012,3.4588,3.3664,3.2547,3.1242,3.1482,3.1798,3.1962,3.3187,3.4479,3.5678,3.6688,3.8019,3.9651,4.0923,4.1951,4.2867,4.4384,4.5695,4.65,4.7476,4.7896,4.7783,4.9292,5.0035,4.9573,4.9679,5.0087,5.0401,4.9609,4.9601,5.0694,5.0034,5.0296,5.197,5.2118,5.2098,5.2209,5.2177,5.2177,5.2114,5.2168,5.2641,5.3677,5.4825,5.5844,5.648,5.7436,5.8124,5.8215,5.8297,5.8394,5.8414,5.8281,5.8348,5.8718,5.9477,6.0173,6.0693,6.144,6.1891,6.2009,6.2036,6.1966,6.193,6.13,6.104,6.1211,6.1293,6.0984,5.935,5.7864,5.6759,5.655,5.65,5.6451,6.724,6.7716,6.7634,6.7408,6.7147,6.625,6.5759,6.5407,6.442,6.36,6.3007,6.2751,6.2056,6.1252,6.1757,6.1758,6.1371,6.1613,6.1215,6.021,5.8788,5.8035,5.7663,5.4923,5.3499,5.3113,5.1233,4.8982,4.6677,4.5632,4.4702,4.3805,4.302,4.2188,4.1387,4.0541,3.9702,3.8818,3.8042,3.7265,3.6592,3.5615,3.4274,3.2824,3.2803,3.336,3.4105,3.5387,3.672,3.8007,3.8929,4.0287,4.1853,4.2174,4.3053,4.4732,4.5826,4.6863,4.7995,4.8708,4.9196,4.9616,5.0564,5.0964,5.0096,5.02,5.0431,5.071,4.984,4.9728,5.0655,5.048,5.0773,5.2054,5.2127,5.2051,5.2054,5.2338,5.2552,5.2572,5.2923,5.3871,5.5442,5.6505,5.7123,5.7712,5.8391,5.8773,5.8646,5.854,5.8532,5.8456,5.838,5.833,5.8649,5.934,5.9924,6.0327,6.0671,6.0915,6.1557,6.2025,6.191,6.1762,6.137,6.1179,6.1291,6.1006,6.0461,5.9366,5.8244,5.7344,5.6635,5.6582,5.664,6.8148,6.8222,6.8187,6.7711,6.6917,6.6672,6.6072,6.5219,6.4888,6.3954,6.2897,6.2912,6.2516,6.1784,6.2365,6.201,6.1104,6.1825,6.1573,6.0351,5.877,5.784,5.7222,5.4932,5.35,5.2905,5.1961,5.0161,4.773,4.6196,4.4997,4.4124,4.3284,4.2528,4.1802,4.0875,4.0108,3.9671,3.934,3.875,3.7964,3.7606,3.7214,3.6738,3.5473,3.5287,3.6197,3.7144,3.8298,3.9694,4.0227,4.0946,4.1909,4.2878,4.4222,4.596,4.6938,4.787,4.884,4.98,5.0417,5.068,5.1341,5.1324,5.0519,5.0579,5.0805,5.0616,5.0707,5.0803,5.0886,5.0872,5.1172,5.2031,5.225,5.2276,5.2325,5.2224,5.2334,5.337,5.4364,5.5599,5.6658,5.743,5.783,5.8298,5.8951,5.9264,5.9284,5.9297,5.9252,5.9059,5.878,5.8478,5.8314,5.9286,5.9961,6.0108,6.0369,6.0711,6.1227,6.132,6.1239,6.1315,6.1075,6.1179,6.1197,6.0803,6.0225,5.9494,5.8371,5.7594,5.6698,5.6926,5.7113,6.8929,6.8767,6.8677,6.8196,6.7378,6.708,6.6457,6.5519,6.5143,6.4231,6.3222,6.317,6.2823,6.2267,6.2578,6.2151,6.1202,6.1964,6.1758,6.0538,5.9124,5.8225,5.749,5.5396,5.3952,5.3187,5.2072,5.0381,4.8409,4.6867,4.5554,4.428,4.357,4.2888,4.2128,4.1279,4.0789,4.0625,4.0368,3.992,3.9456,3.9265,3.9351,3.9425,3.8141,3.7697,3.8481,3.9253,4.0272,4.1425,4.1984,4.2537,4.3268,4.4255,4.5525,4.6995,4.7754,4.8717,4.9828,5.0828,5.1414,5.1542,5.2155,5.202,5.0662,5.1055,5.1207,5.1048,5.1023,5.1305,5.1594,5.1588,5.166,5.2079,5.2215,5.2421,5.2726,5.2426,5.2981,5.4298,5.5458,5.6611,5.7689,5.8094,5.8531,5.8975,5.9592,5.9906,5.9981,5.9977,5.9969,5.9724,5.9098,5.8691,5.8483,5.9019,5.9787,6.0012,5.9914,6.0326,6.0764,6.0751,6.0757,6.0818,6.0923,6.1049,6.0915,6.0579,6.0088,5.9472,5.8815,5.8052,5.763,5.7493,5.7743,6.9489,6.9305,6.919,6.8825,6.8334,6.7454,6.6902,6.6347,6.527,6.4422,6.3706,6.3434,6.2925,6.2378,6.2511,6.2211,6.1798,6.2091,6.1759,6.0717,5.9716,5.9096,5.8671,5.6143,5.4697,5.4168,5.1513,4.9556,4.8463,4.7648,4.635,4.4583,4.4031,4.3368,4.2195,4.1923,4.1721,4.164,4.1174,4.1055,4.14,4.084,4.0624,4.0925,4.074,4.0713,4.0763,4.1692,4.2508,4.348,4.4327,4.5312,4.5881,4.6324,4.701,4.8007,4.844,4.9444,5.1021,5.1828,5.211,5.2237,5.3143,5.2858,5.141,5.1703,5.2023,5.1571,5.1332,5.142,5.227,5.2406,5.2198,5.1823,5.2109,5.2612,5.2847,5.3176,5.3837,5.5144,5.6114,5.6905,5.7802,5.8551,5.9186,5.9793,6.0266,6.0553,6.0562,6.0456,6.0357,6.0151,5.9731,5.9317,5.8964,5.8726,5.9399,5.9857,5.9683,5.9791,6.0426,6.0623,6.0675,6.0712,6.0974,6.1078,6.1093,6.0772,6.0436,5.9895,5.9202,5.8595,5.8324,5.8202,5.85,6.9376,6.9171,6.893,6.8609,6.8226,6.7743,6.7082,6.6235,6.5766,6.4899,6.3915,6.3879,6.3457,6.2825,6.2699,6.2409,6.1901,6.1696,6.1283,6.0645,5.9497,5.8764,5.8167,5.6474,5.4954,5.3736,5.1698,5.023,4.9377,4.8422,4.7142,4.586,4.5004,4.4332,4.3522,4.2895,4.2744,4.3318,4.3185,4.3364,4.3939,4.3854,4.3843,4.3941,4.3819,4.3721,4.3721,4.31,4.3194,4.4059,4.4513,4.5486,4.6692,4.7065,4.7979,4.9691,5.0018,5.0672,5.1952,5.2367,5.2567,5.2838,5.3335,5.3114,5.2274,5.261,5.2759,5.2204,5.1874,5.1944,5.2334,5.236,5.2173,5.1663,5.2527,5.3014,5.3045,5.3905,5.4927,5.5798,5.6783,5.7811,5.8646,5.9262,5.9599,6.0011,6.042,6.0675,6.0715,6.0916,6.0926,6.0697,6.0367,6.0083,5.9795,5.9645,5.9995,6.0233,5.9996,5.9767,6.0287,6.0679,6.065,6.0717,6.0944,6.1064,6.1093,6.0986,6.0665,6.0293,5.9666,5.9223,5.8866,5.8909,5.9173,6.9685,6.9478,6.9157,6.8754,6.8358,6.811,6.7448,6.6596,6.6158,6.5424,6.4686,6.4531,6.4029,6.3288,6.3098,6.266,6.1966,6.1436,6.1,6.0581,5.9696,5.8928,5.832,5.6682,5.5058,5.3518,5.1957,5.0816,5.0035,4.8999,4.7797,4.6484,4.5964,4.5368,4.474,4.4282,4.4309,4.4661,4.4664,4.4881,4.5181,4.5415,4.5514,4.5462,4.5313,4.5216,4.5061,4.437,4.4365,4.4999,4.5598,4.6599,4.7821,4.8343,4.9268,5.0545,5.1038,5.1449,5.2494,5.2717,5.2856,5.3102,5.3345,5.3239,5.2801,5.3007,5.2923,5.267,5.2335,5.2306,5.2678,5.2916,5.2641,5.1966,5.2882,5.3477,5.3537,5.4739,5.5824,5.6526,5.7371,5.8295,5.8995,5.9486,5.9782,6.0087,6.0378,6.0696,6.0844,6.1157,6.1213,6.1179,6.0934,6.0738,6.0626,6.0619,6.0729,6.0659,6.0529,6.0358,6.047,6.0763,6.0877,6.0792,6.0959,6.1064,6.1093,6.1093,6.0915,6.0487,6.0165,5.9901,5.9651,5.958,5.9795,7.0348,7.0174,6.9693,6.9222,6.8885,6.8504,6.8027,6.7473,6.6434,6.5956,6.5821,6.5272,6.4448,6.3669,6.3369,6.2846,6.2047,6.1334,6.0912,6.0495,5.9982,5.9442,5.8554,5.6812,5.5187,5.3685,5.2433,5.143,5.0623,4.9747,4.8294,4.723,4.7024,4.6584,4.612,4.5971,4.5915,4.6039,4.5937,4.5965,4.5995,4.5915,4.5835,4.5835,4.5785,4.5688,4.5568,4.5901,4.6201,4.6514,4.7179,4.7912,4.8955,4.9988,5.0575,5.1228,5.1341,5.1866,5.2562,5.2965,5.3129,5.3186,5.3343,5.3323,5.2911,5.2856,5.2962,5.3041,5.2666,5.2675,5.3246,5.3649,5.3451,5.2902,5.3335,5.3911,5.4635,5.5652,5.6377,5.7022,5.7723,5.8395,5.895,5.9429,5.976,6.0022,6.0249,6.0569,6.0948,6.1239,6.1486,6.1502,6.1484,6.1505,6.1433,6.1526,6.1621,6.1721,6.1528,6.1311,6.0959,6.1081,6.0998,6.0934,6.1051,6.1105,6.1093,6.1093,6.1093,6.0879,6.0665,6.0558,6.0451,6.0308,6.0316,7.0472,7.0673,6.9543,6.9104,6.9123,6.8762,6.8392,6.806,6.7196,6.6489,6.61,6.5698,6.4561,6.3138,6.311,6.2743,6.2063,6.1144,6.0735,6.0723,5.9951,5.9045,5.8026,5.6828,5.552,5.4277,5.3398,5.2555,5.1663,5.1088,5.0474,4.9896,4.8604,4.8324,4.8563,4.7702,4.7836,4.8616,4.873,4.855,4.8398,4.8373,4.8103,4.7455,4.725,4.7098,4.7103,4.7782,4.766,4.6837,4.7076,4.7848,4.9012,4.983,5.0661,5.1504,5.206,5.248,5.2919,5.3213,5.3372,5.3398,5.3424,5.3521,5.3555,5.3344,5.3396,5.3464,5.3052,5.28,5.3347,5.3608,5.376,5.438,5.4271,5.4433,5.5203,5.5956,5.6561,5.706,5.7801,5.8349,5.8969,5.9385,5.9694,5.9848,6.0174,6.0548,6.0969,6.1383,6.1648,6.2124,6.2217,6.2242,6.2329,6.2404,6.2544,6.28,6.2715,6.2487,6.2039,6.1668,6.1353,6.1001,6.1392,6.1533,6.1278,6.1114,6.1129,6.1197,6.0962,6.0754,6.0885,6.0843,6.0867,7.1185,7.1134,7.0216,6.9764,6.9604,6.9265,6.8965,6.8492,6.7586,6.686,6.6246,6.5748,6.454,6.2918,6.3148,6.2939,6.2301,6.1686,6.1294,6.0745,5.9858,5.877,5.777,5.6971,5.6113,5.5043,5.4241,5.336,5.252,5.1946,5.1471,5.086,5.0103,4.9909,5.0109,4.9649,4.9427,5.0106,5.0274,5.0172,5.0047,5.0047,4.9799,4.928,4.9072,4.8916,4.8766,4.8666,4.8317,4.783,4.7662,4.8277,4.9938,5.0464,5.1137,5.2078,5.2587,5.3009,5.3234,5.3333,5.3381,5.3473,5.3441,5.3398,5.3442,5.3326,5.3256,5.3568,5.3101,5.3079,5.3402,5.3645,5.4357,5.5282,5.5225,5.5184,5.5725,5.6219,5.6915,5.7507,5.7942,5.8462,5.9234,5.9511,5.9595,5.9782,6.0152,6.0548,6.0957,6.1391,6.185,6.2263,6.2459,6.2411,6.2474,6.2585,6.278,6.309,6.331,6.3183,6.2945,6.235,6.2004,6.1756,6.1895,6.1915,6.1788,6.1615,6.1438,6.1407,6.1168,6.1,6.1045,6.1034,6.1108,7.2059,7.1511,7.1232,7.0763,7.0163,6.9951,6.9578,6.8938,6.7975,6.7188,6.6621,6.5898,6.4825,6.3076,6.37,6.3449,6.2695,6.2426,6.1737,6.0775,5.969,5.8719,5.8247,5.763,5.6847,5.5874,5.4938,5.4204,5.3509,5.2635,5.1953,5.1808,5.1664,5.1388,5.1426,5.1247,5.1164,5.1202,5.1288,5.115,5.0987,5.0878,5.0686,5.0515,5.046,5.0282,4.9864,4.9382,4.8999,4.9357,4.8691,4.9434,5.1231,5.1546,5.1923,5.2331,5.2701,5.3125,5.342,5.3238,5.3206,5.3444,5.3349,5.3111,5.3131,5.3056,5.3158,5.3498,5.3267,5.3377,5.3695,5.4068,5.4712,5.5577,5.5867,5.5984,5.6127,5.6519,5.7274,5.8407,5.8248,5.878,5.9479,5.9762,5.9548,6.0095,6.0326,6.0548,6.0957,6.1391,6.187,6.2322,6.2434,6.2434,6.2537,6.2712,6.2928,6.3174,6.3437,6.3484,6.3537,6.3176,6.2874,6.2691,6.2375,6.2453,6.2784,6.2513,6.21,6.1674,6.1463,6.1179,6.0965,6.0899,6.0938,7.1759,7.1842,7.0989,7.0554,7.042,7.035,6.9956,6.9286,6.881,6.8037,6.7403,6.7006,6.5918,6.4404,6.4527,6.4214,6.3135,6.2461,6.1365,6.0232,5.9489,5.9365,5.9118,5.8441,5.7619,5.6785,5.5683,5.528,5.5175,5.458,5.4399,5.4529,5.3474,5.3277,5.3487,5.2633,5.2373,5.2798,5.2882,5.2463,5.1908,5.1637,5.1387,5.1015,5.0904,5.0795,5.0829,5.1085,5.139,5.1169,5.0405,5.0216,5.1195,5.2321,5.2505,5.2082,5.2427,5.2966,5.3177,5.3055,5.3018,5.3507,5.3503,5.3412,5.3167,5.3504,5.355,5.3619,5.362,5.3961,5.4392,5.4388,5.4849,5.5483,5.5837,5.6077,5.6293,5.67,5.7545,5.8466,5.8932,5.9435,6.0607,6.0362,6.0258,6.0461,6.0555,6.0614,6.099,6.1391,6.183,6.2282,6.2473,6.2493,6.2591,6.277,6.3095,6.3321,6.3543,6.3607,6.3624,6.3777,6.3465,6.3045,6.2572,6.29,6.363,6.3223,6.2805,6.2289,6.1863,6.1681,6.1483,6.1194,6.0914,7.2625,7.2132,7.1603,7.0985,7.0433,7.0363,7.0011,6.943,6.9116,6.8381,6.7507,6.7117,6.6173,6.4951,6.4982,6.4611,6.3814,6.2606,6.1508,6.0529,5.9848,5.956,5.9446,5.9035,5.8471,5.7845,5.7087,5.6684,5.6347,5.596,5.56,5.5847,5.5041,5.4815,5.5136,5.4383,5.4176,5.4092,5.4147,5.3725,5.2914,5.2612,5.2447,5.1989,5.171,5.1572,5.1947,5.1835,5.2198,5.2261,5.1773,5.1415,5.1816,5.2598,5.253,5.2097,5.2425,5.2941,5.3064,5.2919,5.2937,5.3537,5.3474,5.3294,5.3391,5.3868,5.4028,5.3841,5.413,5.4753,5.5141,5.5115,5.5304,5.5872,5.6013,5.6248,5.6794,5.706,5.7578,5.8545,5.9002,5.9775,6.0363,6.0628,6.0725,6.0822,6.0609,6.0696,6.099,6.1404,6.177,6.213,6.242,6.2557,6.2615,6.2866,6.3265,6.3473,6.3699,6.364,6.3537,6.3796,6.4,6.3672,6.3409,6.3999,6.4486,6.3973,6.3566,6.327,6.2864,6.2466,6.2016,6.162,6.132,7.3673,7.2495,7.2382,7.1564,7.048,7.0196,6.9936,6.958,6.9231,6.8666,6.7668,6.7013,6.6531,6.5543,6.5376,6.5119,6.4191,6.3102,6.1828,6.1136,6.055,6.021,5.9931,5.9759,5.9576,5.8994,5.8112,5.7544,5.7176,5.6726,5.66,5.6358,5.6214,5.6128,5.6185,5.6065,5.5656,5.5089,5.4895,5.4614,5.3938,5.3745,5.3632,5.329,5.2801,5.2725,5.2903,5.2653,5.2457,5.322,5.3005,5.2921,5.2894,5.2707,5.2465,5.214,5.2571,5.2914,5.3039,5.2865,5.2829,5.3427,5.3356,5.3118,5.328,5.4035,5.4364,5.446,5.4697,5.5473,5.5701,5.5582,5.6006,5.6492,5.6315,5.6536,5.7187,5.7281,5.7798,5.8703,5.9349,6.01,6.0706,6.1037,6.1093,6.1052,6.0858,6.0814,6.1119,6.1417,6.175,6.203,6.2341,6.2557,6.2635,6.2828,6.3246,6.3457,6.3698,6.3674,6.3485,6.3606,6.3917,6.4519,6.4648,6.4994,6.5076,6.4754,6.4386,6.4198,6.3593,6.2872,6.2386,6.2011,6.1692,7.3627,7.2949,7.2332,7.167,7.1009,7.023,7.0034,7.019,6.9721,6.9497,6.9191,6.8652,6.7792,6.701,6.6485,6.5499,6.4104,6.2979,6.2171,6.1689,6.1313,6.1089,6.1031,6.0781,6.0726,6.0393,5.9192,5.8259,5.8369,5.794,5.7697,5.7964,5.767,5.7353,5.6991,5.6447,5.6243,5.5904,5.5598,5.5234,5.4925,5.4732,5.445,5.4073,5.3603,5.3687,5.3946,5.3659,5.3543,5.4146,5.3659,5.3218,5.2898,5.2386,5.2087,5.2116,5.225,5.2669,5.3068,5.2672,5.2728,5.3123,5.3453,5.3274,5.3324,5.4169,5.4948,5.5177,5.553,5.6057,5.5731,5.5928,5.5968,5.6218,5.6431,5.6439,5.6959,5.7473,5.8075,5.9184,5.9831,6.0321,6.0865,6.1349,6.1555,6.1475,6.1284,6.1146,6.1213,6.1475,6.175,6.201,6.2263,6.2479,6.2654,6.2866,6.3152,6.324,6.3466,6.3705,6.3571,6.3485,6.3814,6.4522,6.4935,6.5141,6.5188,6.5215,6.4983,6.4612,6.3918,6.3168,6.2722,6.2306,6.1829,7.4022,7.3068,7.2453,7.1608,7.0647,6.9905,6.9786,7.0042,6.98,6.9599,6.9346,6.8905,6.8215,6.7419,6.6849,6.5651,6.4228,6.3289,6.2482,6.1885,6.1682,6.1574,6.1637,6.1357,6.1158,6.0749,5.9753,5.9274,5.9553,5.9066,5.8778,5.8634,5.8632,5.8669,5.8529,5.8212,5.7578,5.7179,5.6497,5.5872,5.5502,5.5282,5.5023,5.479,5.4583,5.4664,5.4807,5.4749,5.4461,5.4374,5.3851,5.3552,5.3263,5.2829,5.2364,5.2481,5.2338,5.2559,5.3149,5.2864,5.2859,5.3563,5.3895,5.3942,5.4081,5.4987,5.595,5.6351,5.6589,5.701,5.7007,5.6888,5.7132,5.7355,5.7304,5.7436,5.7918,5.8429,5.9064,5.9688,5.9744,6.0249,6.1095,6.1556,6.192,6.1898,6.171,6.1543,6.1459,6.1613,6.1843,6.1991,6.2263,6.2498,6.2693,6.2866,6.3057,6.3127,6.3356,6.3597,6.3797,6.3817,6.4094,6.4611,6.4974,6.518,6.5445,6.5517,6.5271,6.5009,6.442,6.3745,6.3089,6.2566,6.2017,7.4444,7.326,7.2678,7.1705,7.0535,6.9846,6.9829,7.0058,7.0037,6.9942,6.9665,6.9097,6.8452,6.7584,6.6696,6.5643,6.4429,6.3795,6.2898,6.221,6.2186,6.2044,6.1817,6.1794,6.1949,6.1813,6.1337,6.0827,6.0194,5.9904,5.9608,5.9574,5.9842,5.9964,5.9904,5.9674,5.9327,5.8719,5.7796,5.6819,5.6103,5.5705,5.5591,5.5562,5.5503,5.5416,5.5591,5.5358,5.5213,5.4865,5.4345,5.3919,5.4111,5.3611,5.3394,5.3403,5.2782,5.2862,5.3082,5.3104,5.3099,5.3863,5.43,5.4492,5.5031,5.5917,5.7084,5.7552,5.7913,5.7851,5.7776,5.7999,5.8158,5.8328,5.8342,5.848,5.8907,5.9336,5.9757,5.9989,5.9799,6.0391,6.1483,6.1979,6.2368,6.2448,6.2266,6.1851,6.1758,6.1837,6.2016,6.2051,6.2263,6.2537,6.2731,6.2866,6.3,6.3117,6.342,6.3734,6.3986,6.42,6.4515,6.4753,6.4959,6.5216,6.5529,6.5691,6.542,6.5106,6.4792,6.4219,6.3353,6.2602,6.1981,7.4597,7.3881,7.2952,7.2345,7.1735,7.0666,7.0701,7.1337,7.0946,7.0997,7.0849,7.0135,6.9204,6.8112,6.6546,6.5551,6.4899,6.4262,6.359,6.2927,6.3054,6.3147,6.3209,6.3564,6.3328,6.3031,6.3002,6.211,6.1186,6.0772,6.0587,6.0637,6.0783,6.093,6.0874,6.0562,6.0476,6.0156,5.9341,5.8385,5.7492,5.6747,5.6431,5.62,5.5881,5.5794,5.6171,5.5882,5.5678,5.5968,5.5182,5.4815,5.489,5.5126,5.4984,5.447,5.3643,5.2789,5.3261,5.3144,5.3459,5.414,5.4471,5.4809,5.5634,5.6562,5.7444,5.7338,5.8213,5.8492,5.808,5.8065,5.8278,5.8501,5.8676,5.8817,5.9247,6.0172,6.0568,6.0835,6.082,6.1367,6.2239,6.2561,6.2839,6.2864,6.2754,6.2377,6.2133,6.2269,6.2178,6.2219,6.2243,6.2498,6.2635,6.2789,6.3132,6.3194,6.3505,6.3889,6.4265,6.4532,6.4585,6.4808,6.4962,6.5046,6.523,6.5349,6.5332,6.5133,6.4721,6.4076,6.3342,6.2657,6.1966,7.3978,7.3555,7.2762,7.2025,7.1467,7.0818,7.0792,7.102,7.1011,7.0958,7.0845,7.038,6.9461,6.822,6.6687,6.5864,6.5444,6.483,6.4215,6.3713,6.3713,6.38,6.377,6.3915,6.3941,6.3877,6.3645,6.3354,6.2499,6.2108,6.1771,6.109,6.1737,6.2032,6.1767,6.119,6.0989,6.0581,5.9883,5.9099,5.8549,5.794,5.7477,5.7419,5.681,5.6694,5.6723,5.6723,5.6374,5.6547,5.6249,5.6156,5.5723,5.5629,5.5677,5.5659,5.4657,5.4097,5.4113,5.351,5.3969,5.4771,5.5193,5.5529,5.6503,5.7145,5.7678,5.7839,5.8595,5.8757,5.8497,5.868,5.9031,5.9225,5.9236,5.9696,6.0108,6.0709,6.1337,6.161,6.1902,6.2364,6.2728,6.2843,6.3196,6.3515,6.3473,6.3196,6.288,6.2789,6.2641,6.235,6.2375,6.2454,6.2518,6.2669,6.3363,6.3555,6.3666,6.41,6.4631,6.4882,6.4795,6.4723,6.4792,6.4877,6.4962,6.5115,6.5232,6.4949,6.4596,6.3989,6.3361,6.256,6.192,7.3525,7.3149,7.2437,7.1824,7.1268,7.0932,7.0764,7.0785,7.0844,7.094,7.0868,7.0499,6.9616,6.8287,6.7051,6.6259,6.6002,6.544,6.4695,6.4244,6.4087,6.4115,6.4141,6.414,6.4215,6.418,6.4306,6.4342,6.4473,6.4187,6.3386,6.181,6.2907,6.3143,6.2669,6.2112,6.1673,6.1025,6.0209,5.9655,5.9277,5.8812,5.8581,5.8348,5.7971,5.7565,5.7536,5.7303,5.6984,5.7063,5.7346,5.7194,5.669,5.6645,5.6576,5.6469,5.5782,5.5484,5.5213,5.4817,5.4824,5.5486,5.626,5.6621,5.7482,5.7727,5.7826,5.8381,5.8741,5.8936,5.8936,5.9204,5.9496,5.9838,6.0202,6.0763,6.1175,6.1319,6.1702,6.2126,6.2483,6.298,6.3211,6.3133,6.3464,6.4035,6.4093,6.3918,6.3672,6.3418,6.327,6.3053,6.3272,6.3292,6.3337,6.3401,6.3835,6.4038,6.4167,6.4414,6.4979,6.4969,6.476,6.4706,6.4724,6.474,6.4843,6.5014,6.508,6.4836,6.4521,6.4004,6.3377,6.2561,6.192,7.3396,7.2873,7.2304,7.2031,7.1896,7.1104,7.0906,7.1044,7.0822,7.1223,7.162,7.1024,6.9881,6.8667,6.7427,6.6618,6.6402,6.5799,6.4963,6.4445,6.4315,6.4508,6.4583,6.4674,6.4888,6.5431,6.5333,6.5582,6.6158,6.6088,6.5522,6.4935,6.4487,6.4397,6.3891,6.309,6.2145,6.141,6.0677,6.0238,5.9801,5.9365,5.919,5.9103,5.8639,5.8232,5.8203,5.7738,5.7473,5.7551,5.7833,5.7884,5.7578,5.7624,5.75,5.718,5.6984,5.6709,5.6347,5.5888,5.5925,5.6424,5.7003,5.7514,5.811,5.8445,5.8691,5.8855,5.9045,5.9099,5.9153,5.9369,5.977,6.0065,6.0429,6.082,6.1155,6.1308,6.1721,6.2481,6.2978,6.3293,6.3651,6.3597,6.3859,6.4397,6.4548,6.4427,6.4211,6.3981,6.3999,6.399,6.4356,6.4497,6.4645,6.475,6.4791,6.4888,6.501,6.5137,6.5411,6.5213,6.49,6.483,6.4865,6.4777,6.4706,6.4826,6.486,6.4758,6.4494,6.4066,6.345,6.2679,6.2002,7.3011,7.2615,7.2052,7.1807,7.178,7.1392,7.1148,7.0981,7.1009,7.108,7.1337,7.0683,6.9979,6.8947,6.7582,6.673,6.6429,6.579,6.529,6.5047,6.5016,6.5145,6.5203,6.5274,6.5486,6.5857,6.598,6.6244,6.6672,6.7107,6.7174,6.6577,6.5809,6.4864,6.4299,6.3672,6.2665,6.1748,6.1279,6.0928,6.0349,5.9826,5.9623,5.98,5.9248,5.8697,5.8377,5.8229,5.802,5.7983,5.8201,5.8187,5.8058,5.8134,5.8067,5.7803,5.7692,5.753,5.7249,5.6726,5.6417,5.6923,5.7482,5.7975,5.8362,5.8472,5.8582,5.88,5.9153,5.9234,5.9153,5.9663,6.0167,6.0302,6.0508,6.0897,6.1155,6.1308,6.174,6.2513,6.293,6.3301,6.3651,6.3997,6.437,6.4725,6.4842,6.4881,6.4696,6.4602,6.4601,6.4723,6.506,6.5168,6.5303,6.5414,6.5612,6.5744,6.5872,6.5859,6.5912,6.5578,6.5321,6.5181,6.49,6.4777,6.4689,6.4689,6.4689,6.4689,6.453,6.4228,6.3524,6.2766,6.2266,7.2641,7.2321,7.1753,7.1534,7.1589,7.131,7.1064,7.0873,7.0869,7.0999,7.0935,7.0691,7.0141,6.9193,6.7967,6.6881,6.6497,6.6021,6.5728,6.5535,6.5499,6.5583,6.5669,6.5797,6.5882,6.6063,6.6733,6.7248,6.7351,6.76,6.7571,6.7272,6.6727,6.5672,6.4777,6.3704,6.2865,6.1973,6.1477,6.1334,6.0761,6.0364,6.0109,6.0261,5.9799,5.9451,5.9103,5.8956,5.8717,5.8647,5.8658,5.8664,5.844,5.825,5.8357,5.833,5.8253,5.8092,5.7749,5.7234,5.6809,5.7172,5.7678,5.8109,5.8362,5.8445,5.8609,5.8828,5.918,5.9342,5.9234,5.977,6.0219,6.0329,6.056,6.0923,6.1206,6.141,6.1941,6.2513,6.2856,6.3252,6.3897,6.4263,6.4633,6.4963,6.5056,6.5181,6.526,6.5189,6.527,6.543,6.5656,6.5726,6.5752,6.6257,6.674,6.677,6.6811,6.6424,6.6324,6.594,6.5424,6.4935,6.4708,6.4689,6.4723,6.4775,6.474,6.4689,6.453,6.437,6.3844,6.3144,6.2755,7.2375,7.2052,7.1479,7.1369,7.1447,7.067,7.0532,7.0761,7.0627,7.0831,7.1313,7.126,7.0546,6.9396,6.824,6.7275,6.6449,6.6248,6.6016,6.5684,6.5755,6.5582,6.5658,6.5861,6.6348,6.6593,6.7443,6.8166,6.813,6.8401,6.8182,6.7497,6.6926,6.6211,6.565,6.3919,6.2711,6.2019,6.1508,6.137,6.1146,6.0903,6.0884,6.0749,6.0551,6.0293,5.9829,5.9713,5.9476,5.9259,5.9449,5.9458,5.9287,5.9194,5.9162,5.9018,5.9072,5.8907,5.86,5.768,5.7333,5.7392,5.7923,5.8246,5.8276,5.847,5.8773,5.9072,5.9315,5.9422,5.9556,5.988,6.0276,6.0455,6.0716,6.1124,6.1438,6.1812,6.2355,6.2953,6.2984,6.3148,6.3912,6.4551,6.4918,6.5167,6.5291,6.5448,6.5591,6.5644,6.5684,6.5926,6.6157,6.6446,6.6657,6.7422,6.7852,6.7862,6.7541,6.6996,6.6507,6.6056,6.5472,6.483,6.4848,6.5143,6.5002,6.486,6.4932,6.4986,6.4741,6.4494,6.3969,6.3593,6.3227,7.2052,7.1753,7.1369,7.1258,7.1258,7.0841,7.0733,7.0824,7.115,7.1546,7.1822,7.1639,7.0616,6.9394,6.8303,6.7216,6.6145,6.5972,6.5755,6.5474,6.5855,6.5765,6.5824,6.6434,6.6876,6.7164,6.8075,6.8861,6.8725,6.9017,6.8793,6.8148,6.7039,6.6012,6.5191,6.4026,6.3272,6.2537,6.2263,6.2225,6.1825,6.1851,6.1812,6.159,6.1452,6.1136,6.0556,6.0531,6.0441,6.014,6.0363,6.0349,6.0333,6.0328,6.0064,5.974,5.959,5.9251,5.8635,5.7904,5.7848,5.7946,5.8134,5.8342,5.821,5.8676,5.9039,5.9422,5.977,5.9929,6.0193,6.059,6.085,6.0742,6.1016,6.1578,6.2016,6.2459,6.2959,6.3603,6.3868,6.4004,6.4556,6.479,6.5076,6.5347,6.547,6.567,6.5857,6.5834,6.5898,6.6265,6.658,6.7003,6.7455,6.7793,6.7827,6.7596,6.7433,6.713,6.6661,6.6294,6.6118,6.5811,6.5707,6.5633,6.5473,6.5313,6.5386,6.5318,6.5126,6.4739,6.4233,6.395,6.3752,7.1799,7.1771,7.1497,7.133,7.1186,7.094,7.0761,7.0771,7.1345,7.1719,7.1726,7.1468,7.0556,6.9306,6.8219,6.7041,6.577,6.5816,6.5931,6.5619,6.6278,6.6294,6.6461,6.7021,6.7224,6.7519,6.8337,6.91,6.8545,6.9222,6.8904,6.8024,6.722,6.614,6.5155,6.4165,6.3573,6.2936,6.2733,6.258,6.2457,6.2423,6.2447,6.2344,6.2327,6.2277,6.1755,6.1673,6.1792,6.1523,6.1427,6.1389,6.1412,6.111,6.0757,6.0285,5.9921,5.964,5.9102,5.8537,5.8393,5.8121,5.8402,5.8289,5.8154,5.853,5.9021,5.9516,6.0219,6.056,6.0783,6.1175,6.1262,6.1158,6.1485,6.2079,6.2277,6.2688,6.3084,6.3785,6.4208,6.4551,6.4912,6.5074,6.5212,6.5459,6.567,6.5935,6.6234,6.6333,6.642,6.6822,6.7087,6.7458,6.768,6.7775,6.7668,6.7345,6.7329,6.7346,6.7165,6.6869,6.6836,6.6688,6.6233,6.5896,6.5855,6.5837,6.5984,6.5828,6.5513,6.507,6.4513,6.4272,6.4134,7.1585,7.2069,7.1882,7.1506,7.1211,7.0784,7.0536,7.0372,7.0971,7.1165,7.1013,7.123,7.0355,6.9001,6.8144,6.6973,6.5919,6.5908,6.5985,6.6344,6.6721,6.6707,6.6964,6.7497,6.7589,6.7773,6.8401,6.9196,6.8295,6.8895,6.8737,6.8046,6.7659,6.6475,6.5244,6.4431,6.3819,6.3357,6.3163,6.3129,6.3153,6.3037,6.2996,6.2981,6.3113,6.3274,6.3195,6.347,6.3623,6.3476,6.3205,6.258,6.1984,6.1383,6.106,6.0674,6.0424,6.0094,5.9817,5.9308,5.871,5.8234,5.8145,5.7955,5.8038,5.8424,5.9017,5.9562,6.0171,6.0756,6.1221,6.1445,6.1638,6.1796,6.2031,6.227,6.2355,6.2694,6.3076,6.3533,6.3829,6.4211,6.479,6.5054,6.5369,6.5681,6.6057,6.6778,6.7043,6.722,6.7351,6.7622,6.7866,6.7954,6.8055,6.7878,6.7633,6.7315,6.7692,6.7761,6.7595,6.743,6.7346,6.7058,6.6462,6.6301,6.6669,6.6759,6.6725,6.6497,6.618,6.5474,6.4952,6.4563,6.4395,7.108,7.0872,7.0759,7.0532,7.0211,6.9912,7.0012,7.0392,7.0612,7.085,7.1322,7.0338,6.9778,6.9089,6.8176,6.6905,6.6215,6.5874,6.5809,6.6185,6.6761,6.6696,6.697,6.7502,6.7808,6.828,6.891,6.9635,6.952,6.9567,6.9379,6.9003,6.8285,6.6874,6.572,6.4984,6.4287,6.3739,6.3643,6.3751,6.4009,6.4037,6.3875,6.3832,6.3871,6.3976,6.4021,6.4086,6.4154,6.4308,6.4219,6.3832,6.3743,6.3294,6.2873,6.168,6.0997,6.0345,6.0149,5.9907,5.9368,5.8501,5.8145,5.8115,5.8195,5.8576,5.916,5.9739,6.0329,6.0958,6.1489,6.1752,6.2161,6.2531,6.2757,6.2928,6.3016,6.3316,6.3665,6.3677,6.3996,6.4333,6.4862,6.5179,6.5525,6.5902,6.6411,6.7154,6.7877,6.802,6.8229,6.8479,6.8299,6.8318,6.8077,6.7862,6.7575,6.7409,6.7804,6.8069,6.7885,6.7757,6.7754,6.7586,6.7218,6.7429,6.787,6.7835,6.7588,6.7306,6.6972,6.6141,6.5411,6.4987,6.4721,7.0718,7.054,7.0543,7.0284,6.9849,6.9655,6.9694,6.9727,7.0032,7.0557,7.0947,7.0194,6.961,6.9104,6.8223,6.7108,6.5892,6.6138,6.6094,6.5968,6.6529,6.6986,6.7279,6.7506,6.8082,6.8689,6.9308,6.984,7.0142,7.0219,7.0063,6.9289,6.8728,6.7426,6.6188,6.5645,6.5145,6.4459,6.4099,6.4354,6.4579,6.4836,6.4737,6.4663,6.4639,6.4689,6.4705,6.4708,6.5106,6.535,6.529,6.4753,6.4516,6.404,6.3559,6.2455,6.2067,6.1471,6.1074,6.0326,5.9752,5.909,5.8494,5.8454,5.8666,5.9074,5.9526,6.0041,6.0638,6.1222,6.1675,6.216,6.2751,6.3316,6.3501,6.3706,6.3925,6.4168,6.4245,6.4167,6.4377,6.4708,6.5044,6.5358,6.5692,6.6065,6.6561,6.718,6.8104,6.883,6.9098,6.9342,6.8868,6.8512,6.8234,6.8017,6.7852,6.7821,6.8089,6.823,6.8138,6.8218,6.8351,6.8272,6.8117,6.8293,6.8416,6.8539,6.838,6.8081,6.757,6.6741,6.596,6.5374,6.5214,7.0485,7.0667,7.0729,7.0226,6.9878,6.9702,6.9303,6.8662,6.9452,6.9995,7.0249,7.0144,6.9558,6.8889,6.7961,6.7074,6.6265,6.6163,6.6104,6.5814,6.6457,6.6963,6.7345,6.7649,6.8061,6.8946,6.9667,7.0035,7.0546,7.0536,7.0066,6.931,6.9583,6.8427,6.6314,6.635,6.5688,6.4421,6.4192,6.4321,6.4612,6.49,6.519,6.5446,6.5729,6.5983,6.6325,6.6662,6.6999,6.6637,6.6186,6.5409,6.4814,6.4338,6.3801,6.3381,6.3081,6.2601,6.1942,6.1134,6.0551,5.9915,5.9198,5.9201,5.9406,5.91,5.9326,6.0063,6.0669,6.1241,6.1694,6.2129,6.2684,6.3443,6.3938,6.4358,6.4799,6.48,6.4481,6.4477,6.4645,6.4976,6.5201,6.5514,6.5812,6.6271,6.6651,6.7192,6.8048,6.9101,6.9637,6.9884,6.9312,6.8782,6.8671,6.8467,6.8266,6.8289,6.8451,6.8604,6.8634,6.8765,6.8965,6.8833,6.8662,6.8627,6.8715,6.8855,6.8872,6.8627,6.8028,6.7305,6.6579,6.5923,6.5478,7.0208,6.937,6.9106,6.9026,6.9093,6.8878,6.8985,6.9134,6.8832,6.9106,6.9446,6.887,6.8639,6.8628,6.7444,6.6569,6.6264,6.6171,6.5902,6.5938,6.6351,6.675,6.7155,6.7348,6.7939,6.865,6.9409,7.0382,7.103,7.0801,7.0301,6.9933,6.9782,6.8234,6.6519,6.6673,6.5849,6.4523,6.4451,6.4579,6.4868,6.5158,6.5475,6.5601,6.5882,6.6195,6.6475,6.6599,6.6814,6.6786,6.6757,6.6309,6.5681,6.5231,6.4874,6.4546,6.4066,6.3645,6.2838,6.2057,6.1475,6.0743,6.0162,6.0156,5.9868,5.9164,5.9152,6.0002,6.063,6.1182,6.1668,6.2093,6.2669,6.3537,6.4345,6.4974,6.5543,6.5193,6.4753,6.477,6.4928,6.5156,6.5381,6.5658,6.5965,6.6268,6.6601,6.7104,6.7878,6.8837,6.9704,6.9891,6.9502,6.9081,6.896,6.8843,6.8628,6.8663,6.8822,6.897,6.9096,6.9139,6.918,6.9252,6.9203,6.9064,6.9047,6.9168,6.9168,6.8977,6.8539,6.7799,6.7163,6.6544,6.5923,6.9492,6.8683,6.8506,6.8545,6.8667,6.8659,6.8846,6.9033,6.8594,6.8544,6.8781,6.8301,6.8223,6.8315,6.7205,6.6362,6.6162,6.6269,6.562,6.5464,6.6028,6.6411,6.6726,6.7061,6.8229,6.9043,7.0415,7.1431,7.1773,7.1459,7.0984,7.0345,6.9432,6.8535,6.7211,6.6731,6.6054,6.4944,6.4942,6.5025,6.5248,6.5441,6.5727,6.5853,6.6164,6.6413,6.6599,6.6722,6.6814,6.6819,6.6639,6.6248,6.586,6.5801,6.5532,6.5293,6.4992,6.4779,6.3792,6.301,6.2371,6.1612,6.0835,6.0711,6.0498,5.9849,5.9723,6.0429,6.0612,6.1071,6.1444,6.1856,6.2804,6.374,6.4429,6.5078,6.5404,6.5319,6.4935,6.4714,6.4953,6.5269,6.5559,6.5977,6.6302,6.6558,6.6812,6.7348,6.8067,6.8802,6.9632,7.0134,6.9874,6.9288,6.8867,6.8903,6.8958,6.9059,6.9153,6.9134,6.9134,6.9283,6.9394,6.9359,6.9359,6.9342,6.9359,6.9394,6.9394,6.922,6.8802,6.8293,6.7711,6.7075,6.6435,6.8746,6.8328,6.839,6.8516,6.8632,6.8857,6.8973,6.8909,6.8499,6.8124,6.8027,6.8074,6.8151,6.7913,6.7396,6.6628,6.6128,6.5963,6.5275,6.5045,6.5548,6.6012,6.6477,6.6946,6.8258,6.9718,7.1149,7.1934,7.2454,7.1824,7.104,7.0392,6.9768,6.9152,6.8136,6.738,6.6643,6.6009,6.5796,6.5646,6.5655,6.566,6.6007,6.6319,6.6657,6.6841,6.7026,6.7238,6.7238,6.7089,6.694,6.658,6.6401,6.6492,6.6072,6.5891,6.61,6.5438,6.4479,6.3843,6.3207,6.2535,6.1695,6.117,6.1018,6.0757,6.063,6.0626,6.0808,6.0861,6.1226,6.1801,6.278,6.3834,6.4476,6.5055,6.5237,6.5408,6.5138,6.479,6.5078,6.5448,6.5824,6.6292,6.6571,6.6791,6.7212,6.7815,6.846,6.9185,6.9952,7.0505,7.0625,6.9958,6.93,6.9231,6.9526,6.919,6.9227,6.9171,6.9171,6.9302,6.9394,6.9394,6.9394,6.9394,6.9394,6.9394,6.9394,6.9394,6.9133,6.8732,6.8152,6.7534,6.6877,6.8727,6.7699,6.8243,6.8725,6.9171,6.9261,6.927,6.9107,6.8533,6.7805,6.7254,6.7432,6.7561,6.7395,6.6767,6.6131,6.5582,6.5539,6.5319,6.4963,6.5146,6.5611,6.6174,6.6849,6.8211,6.9846,7.1284,7.1573,7.2463,7.1753,7.0925,7.0397,6.9709,6.9111,6.8451,6.7815,6.7355,6.681,6.6484,6.6363,6.6534,6.6515,6.6349,6.6777,6.7291,6.7594,6.7928,6.8345,6.8525,6.8405,6.7899,6.7484,6.7306,6.7216,6.6914,6.6641,6.6851,6.5947,6.5044,6.4474,6.3841,6.2964,6.2281,6.2172,6.1862,6.1412,6.1259,6.116,6.1158,6.0815,6.106,6.1583,6.2475,6.3634,6.4505,6.488,6.5183,6.5346,6.5344,6.5342,6.5526,6.5867,6.6227,6.655,6.6741,6.6993,6.7229,6.7885,6.8699,6.9497,7.0347,7.0882,7.1361,7.1261,7.0876,7.0251,7.0208,6.9729,6.9339,6.9339,6.9339,6.9339,6.9394,6.9394,6.9394,6.9394,6.9394,6.9394,6.9394,6.9394,6.9394,6.9116,6.8557,6.8064,6.7427]}]]